[[{"header":{"parameterUnit":"m.s-1","parameterCategory":1,"la1":30.6,"la2":28.766,"lo1":-90.7593,"lo2":-88.6598,"dy":0.0162,"dx":0.0183,"nx":116,"ny":114,"refTime":"2023-08-15T18:00:00:Z","depth":0,"parameterNumber":2,"parameterNumberName":"U-component_of_WINDS"},"data":[0.0,0.0,0.0,0.0,0.0,0.0,0.0,0.0,0.0,0.0,0.0,0.0,0.0,0.0,0.0,0.0,0.0,0.0,0.0,0.0,0.0,0.0,0.0,0.0,0.0,0.0,0.0,0.0,0.0,0.0,0.0,0.0,0.0,0.0,0.0,0.0,0.0,0.0,0.0,0.0,0.0,0.0,0.0,0.0,0.0,0.0,0.0,0.0,0.0,0.0,0.0,0.0,0.0,0.0,0.0,0.0,0.0,0.0,0.0,0.0,0.0,0.0,0.0,0.0,0.0,0.0,0.0,0.0,0.0,0.0,0.0,0.0,0.0,0.0,0.0,0.0,0.0,0.0,0.0,0.0,0.0,0.0,0.0,0.0,0.0,0.0,0.0,0.0,0.0,0.0,0.0,0.0,0.0,0.0,0.0,0.0,0.0,0.0,0.0,0.0,0.0,0.0,0.0,0.0,0.0,0.0,0.0,0.0,0.0,0.0,0.0,0.0,0.0,0.0,0.0,0.0,0.0,0.0,0.0,0.0,0.0,0.0,0.0,0.0,0.0,0.0,0.0,0.0,0.0,0.0,0.0,0.0,0.0,0.0,0.0,0.0,0.0,0.0,0.0,0.0,0.0,0.0,0.0,0.0,0.0,0.0,0.0,0.0,0.0,0.0,0.0,0.0,0.0,0.0,0.0,0.0,0.0,0.0,0.0,0.0,0.0,0.0,0.0,0.0,0.0,0.0,0.0,0.0,0.0,0.0,0.0,0.0,0.0,0.0,0.0,0.0,0.0,0.0,0.0,0.0,0.0,0.0,0.0,0.0,0.0,0.0,0.0,0.0,0.0,0.0,0.0,0.0,0.0,0.0,0.0,0.0,0.0,0.0,0.0,0.0,0.0,0.0,0.0,0.0,0.0,0.0,0.0,0.0,0.0,0.0,0.0,0.0,0.0,0.0,0.0,0.0,0.0,0.0,0.0,0.0,0.0,0.0,0.0,0.0,0.0,0.0,0.0,0.0,0.0,0.0,0.0,0.0,0.0,0.0,0.0,0.0,0.0,0.0,0.0,0.0,0.0,0.0,0.0,0.0,0.0,0.0,0.0,0.0,0.0,0.0,0.0,0.0,0.0,0.0,0.0,0.0,0.0,0.0,0.0,0.0,0.0,0.0,0.0,0.0,0.0,0.0,0.0,0.0,0.0,0.0,0.0,0.0,0.0,0.0,0.0,0.0,0.0,0.0,0.0,0.0,0.0,0.0,0.0,0.0,0.0,0.0,0.0,0.0,0.0,0.0,0.0,0.0,0.0,0.0,0.0,0.0,0.0,0.0,0.0,0.0,0.0,0.0,0.0,0.0,0.0,0.0,0.0,0.0,0.0,0.0,0.0,0.0,0.0,0.0,0.0,0.0,0.0,0.0,0.0,0.0,0.0,0.0,0.0,0.0,0.0,0.0,0.0,0.0,0.0,0.0,0.0,0.0,0.0,0.0,0.0,0.0,0.0,0.0,0.0,0.0,0.0,0.0,0.0,0.0,0.0,0.0,0.0,0.0,0.0,0.0,0.0,0.0,0.0,0.0,0.0,0.0,0.0,0.0,0.0,0.0,0.0,0.0,0.0,0.0,0.0,0.0,0.0,0.0,0.0,0.0,0.0,0.0,0.0,0.0,0.0,0.0,0.0,0.0,0.0,0.0,0.0,0.0,0.0,0.0,0.0,0.0,0.0,0.0,0.0,0.0,0.0,0.0,0.0,0.0,0.0,0.0,0.0,0.0,0.0,0.0,0.0,0.0,0.0,0.0,0.0,0.0,0.0,0.0,0.0,0.0,0.0,0.0,0.0,0.0,0.0,0.0,0.0,0.0,0.0,0.0,0.0,0.0,0.0,0.0,0.0,0.0,0.0,0.0,0.0,0.0,0.0,0.0,0.0,0.0,0.0,0.0,0.0,0.0,0.0,0.0,0.0,0.0,0.0,0.0,0.0,0.0,0.0,0.0,0.0,0.0,0.0,0.0,0.0,0.0,0.0,0.0,0.0,0.0,0.0,0.0,0.0,0.0,0.0,0.0,0.0,0.0,0.0,0.0,0.0,0.0,0.0,0.0,0.0,0.0,0.0,0.0,0.0,0.0,0.0,0.0,0.0,0.0,0.0,0.0,0.0,0.0,0.0,0.0,0.0,0.0,0.0,0.0,0.0,0.0,0.0,0.0,0.0,0.0,0.0,0.0,0.0,0.0,0.0,0.0,0.0,0.0,0.0,0.0,0.0,0.0,0.0,0.0,0.0,0.0,0.0,0.0,0.0,0.0,0.0,0.0,0.0,0.0,0.0,0.0,0.0,0.0,0.0,0.0,0.0,0.0,0.0,0.0,0.0,0.0,0.0,0.0,0.0,0.0,0.0,0.0,0.0,0.0,0.0,0.0,0.0,0.0,0.0,0.0,0.0,0.0,0.0,0.0,0.0,0.0,0.0,0.0,0.0,0.0,0.0,0.0,0.0,0.0,0.0,0.0,0.0,0.0,0.0,0.0,0.0,0.0,0.0,0.0,0.0,0.0,0.0,0.0,0.0,0.0,0.0,0.0,0.0,0.0,0.0,0.0,0.0,0.0,0.0,0.0,0.0,0.0,0.0,0.0,0.0,0.0,0.0,0.0,0.0,0.0,0.0,0.0,0.0,0.0,0.0,0.0,0.0,0.0,0.0,0.0,0.0,0.0,0.0,0.0,0.0,0.0,0.0,0.0,0.0,0.0,0.0,0.0,0.0,0.0,0.0,0.0,0.0,0.0,0.0,0.0,0.0,0.0,0.0,0.0,0.0,0.0,0.0,0.0,0.0,0.0,0.0,0.0,0.0,0.0,0.0,0.0,0.0,0.0,0.0,0.0,0.0,0.0,0.0,0.0,0.0,0.0,0.0,0.0,0.0,0.0,0.0,0.0,0.0,0.0,0.0,0.0,0.0,0.0,0.0,0.0,0.0,0.0,0.0,0.0,0.0,0.0,0.0,0.0,0.0,0.0,0.0,0.0,0.0,0.0,0.0,0.0,0.0,0.0,0.0,0.0,0.0,0.0,0.0,0.0,0.0,0.0,0.0,0.0,0.0,0.0,0.0,0.0,0.0,0.0,0.0,0.0,0.0,0.0,0.0,0.0,0.0,0.0,0.0,0.0,0.0,0.0,0.0,0.0,0.0,0.0,0.0,0.0,0.0,0.0,0.0,0.0,0.0,0.0,0.0,0.0,0.0,0.0,0.0,0.0,0.0,0.0,0.0,0.0,0.0,0.0,0.0,0.0,0.0,0.0,0.0,0.0,0.0,0.0,0.0,0.0,0.0,0.0,0.0,0.0,0.0,0.0,0.0,0.0,0.0,0.0,0.0,0.0,0.0,0.0,0.0,0.0,0.0,0.0,0.0,0.0,0.0,0.0,0.0,0.0,0.0,0.0,0.0,0.0,0.0,0.0,0.0,0.0,0.0,0.0,0.0,0.0,0.0,0.0,0.0,0.0,0.0,0.0,0.0,0.0,0.0,0.0,0.0,0.0,0.0,0.0,0.0,0.0,0.0,0.0,0.0,0.0,0.0,0.0,0.0,0.0,0.0,0.0,0.0,0.0,0.0,0.0,0.0,0.0,0.0,0.0,0.0,0.0,0.0,0.0,0.0,0.0,0.0,0.0,0.0,0.0,0.0,0.0,0.0,0.0,0.0,0.0,0.0,0.0,0.0,0.0,0.0,0.0,0.0,0.0,0.0,0.0,0.0,0.0,0.0,0.0,0.0,0.0,0.0,0.0,0.0,0.0,0.0,0.0,0.0,0.0,0.0,0.0,0.0,0.0,0.0,0.0,0.0,0.0,0.0,0.0,0.0,0.0,0.0,0.0,0.0,0.0,0.0,0.0,0.0,0.0,0.0,0.0,0.0,0.0,0.0,0.0,0.0,0.0,0.0,0.0,0.0,0.0,0.0,0.0,0.0,0.0,0.0,0.0,0.0,0.0,0.0,0.0,0.0,0.0,0.0,0.0,0.0,0.0,0.0,0.0,0.0,0.0,0.0,0.0,0.0,0.0,0.0,0.0,0.0,0.0,0.0,0.0,0.0,0.0,0.0,0.0,0.0,0.0,0.0,0.0,0.0,0.0,0.0,0.0,0.0,0.0,0.0,0.0,0.0,0.0,0.0,0.0,0.0,0.0,0.0,0.0,0.0,0.0,0.0,0.0,0.0,0.0,0.0,0.0,0.0,0.0,0.0,0.0,0.0,0.0,0.0,0.0,0.0,0.0,0.0,0.0,0.0,0.0,0.0,0.0,0.0,0.0,0.0,0.0,0.0,0.0,0.0,0.0,0.0,0.0,0.0,0.0,0.0,0.0,0.0,0.0,0.0,0.0,0.0,0.0,0.0,0.0,0.0,0.0,0.0,0.0,0.0,0.0,0.0,0.0,0.0,0.0,0.0,0.0,0.0,0.0,0.0,0.0,0.0,0.0,0.0,0.0,0.0,0.0,0.0,0.0,0.0,0.0,0.0,0.0,0.0,0.0,0.0,0.0,0.0,0.0,0.0,0.0,0.0,0.0,0.0,0.0,0.0,0.0,0.0,0.0,0.0,0.0,0.0,0.0,0.0,0.0,0.0,0.0,0.0,0.0,0.0,0.0,0.0,0.0,0.0,0.0,0.0,0.0,0.0,0.0,0.0,0.0,0.0,0.0,0.0,0.0,0.0,0.0,0.0,0.0,0.0,0.0,0.0,0.0,0.0,0.0,0.0,0.0,0.0,0.0,0.0,0.0,0.0,0.0,0.0,0.0,0.0,0.0,0.0,0.0,0.0,0.0,0.0,0.0,0.0,0.0,0.0,0.0,0.0,0.0,0.0,0.0,0.0,0.0,0.0,0.0,0.0,0.0,0.0,0.0,0.0,0.0,0.0,0.0,0.0,0.0,0.0,0.0,0.0,0.0,0.0,0.0,0.0,0.0,0.0,0.0,0.0,0.0,0.0,0.0,0.0,0.0,0.0,0.0,0.0,0.0,0.0,0.0,0.0,0.0,0.0,0.0,0.0,0.0,0.0,0.0,0.0,0.0,0.0,0.0,0.0,0.0,0.0,0.0,0.0,0.0,0.0,0.0,0.0,0.0,0.0,0.0,0.0,0.0,0.0,0.0,0.0,0.0,0.0,0.0,0.0,0.0,0.0,0.0,0.0,0.0,0.0,0.0,0.0,0.0,0.0,0.0,0.0,0.0,0.0,0.0,0.0,0.0,0.0,0.0,0.0,0.0,0.0,0.0,0.0,0.0,0.0,0.0,0.0,0.0,0.0,0.0,0.0,0.0,0.0,0.0,0.0,0.0,0.0,0.0,0.0,0.0,0.0,0.0,0.0,0.0,0.0,0.0,0.0,0.0,0.0,0.0,0.0,0.0,0.0,0.0,0.0,0.0,0.0,0.0,0.0,0.0,0.0,0.0,0.0,0.0,0.0,0.0,0.0,0.0,0.0,0.0,0.0,0.0,0.0,0.0,0.0,0.0,0.0,0.0,0.0,0.0,0.0,0.0,0.0,0.0,0.0,0.0,0.0,0.0,0.0,0.0,0.0,0.0,0.0,0.0,0.0,0.0,0.0,0.0,0.0,0.0,0.0,0.0,0.0,0.0,0.0,0.0,0.0,0.0,0.0,0.0,0.0,0.0,0.0,0.0,0.0,0.0,0.0,0.0,0.0,0.0,0.0,0.0,0.0,0.0,0.0,0.0,0.0,0.0,0.0,0.0,0.0,0.0,0.0,0.0,0.0,0.0,0.0,0.0,0.0,0.0,0.0,0.0,0.0,0.0,0.0,0.0,0.0,0.0,0.0,0.0,0.0,0.0,0.0,0.0,0.0,0.0,0.0,0.0,0.0,0.0,0.0,0.0,0.0,0.0,0.0,0.0,0.0,0.0,0.0,0.0,0.0,0.0,0.0,0.0,0.0,0.0,0.0,0.0,0.0,0.0,0.0,0.0,0.0,0.0,0.0,0.0,0.0,0.0,0.0,0.0,0.0,0.0,0.0,0.0,0.0,0.0,0.0,0.0,0.0,0.0,0.0,0.0,0.0,0.0,0.0,0.0,0.0,0.0,0.0,0.0,0.0,0.0,0.0,0.0,-1.565,-1.3982,0.0,0.0,0.0,0.0,0.0,0.0,0.0,0.0,0.0,0.0,0.0,0.0,0.0,0.0,0.0,0.0,0.0,0.0,0.0,0.0,0.0,0.0,0.0,0.0,0.0,0.0,0.0,0.0,0.0,0.0,0.0,0.0,0.0,0.0,0.0,0.0,0.0,0.0,0.0,0.0,0.0,0.0,0.0,0.0,0.0,0.0,0.0,0.0,0.0,0.0,0.0,0.0,0.0,0.0,0.0,0.0,0.0,0.0,0.0,0.0,0.0,0.0,0.0,0.0,0.0,0.0,0.0,0.0,0.0,0.0,0.0,0.0,0.0,0.0,0.0,0.0,0.0,0.0,0.0,0.0,0.0,0.0,0.0,0.0,0.0,0.0,0.0,0.0,0.0,0.0,0.0,0.0,0.0,0.0,0.0,0.0,0.0,0.0,0.0,0.0,0.0,0.0,0.0,0.0,0.0,0.0,0.0,0.0,0.0,0.0,0.0,0.0,0.0,0.0,-1.7299,-1.6273,0.0,0.0,0.0,0.0,0.0,0.0,0.0,0.0,0.0,0.0,0.0,0.0,0.0,0.0,0.0,0.0,0.0,0.0,0.0,0.0,0.0,0.0,0.0,0.0,0.0,0.0,0.0,0.0,0.0,0.0,0.0,0.0,0.0,0.0,0.0,0.0,0.0,0.0,0.0,0.0,0.0,0.0,0.0,0.0,0.0,0.0,0.0,0.0,0.0,0.0,0.0,0.0,0.0,0.0,0.0,0.0,0.0,0.0,0.0,0.0,0.0,0.0,0.0,0.0,0.0,0.0,0.0,0.0,0.0,0.0,0.0,0.0,0.0,0.0,0.0,0.0,0.0,0.0,0.0,0.0,0.0,0.0,0.0,0.0,0.0,0.0,0.0,0.0,0.0,0.0,0.0,0.0,0.0,0.0,0.0,0.0,0.0,0.0,0.0,0.0,0.0,0.0,0.0,0.0,0.0,0.0,0.0,0.0,-1.8066,-1.8359,-1.8691,-1.8691,-1.8867,-1.9182,-1.9512,-1.9274,-1.8657,-1.7817,0.0,0.0,0.0,0.0,0.0,0.0,0.0,0.0,0.0,0.0,0.0,0.0,0.0,0.0,0.0,0.0,0.0,0.0,0.0,0.0,0.0,0.0,0.0,0.0,0.0,0.0,0.0,0.0,0.0,0.0,0.0,0.0,0.0,0.0,0.0,0.0,0.0,0.0,-1.7837,-1.7028,-1.6899,-1.7254,-1.5635,0.0,0.0,0.0,0.0,0.0,0.0,0.0,0.0,0.0,0.0,0.0,0.0,0.0,0.0,0.0,0.0,0.0,0.0,0.0,0.0,0.0,0.0,0.0,0.0,0.0,0.0,0.0,0.0,0.0,0.0,0.0,0.0,0.0,0.0,0.0,0.0,0.0,0.0,0.0,0.0,0.0,0.0,0.0,-1.4447,-1.5324,0.0,0.0,0.0,0.0,0.0,0.0,0.0,0.0,0.0,0.0,0.0,0.0,0.0,-1.7695,-1.7754,-1.8906,-1.9531,-1.959,-2.0742,-2.1328,-2.1387,-2.1387,-2.1406,-2.1445,-2.1113,0.0,-2.0275,-1.9713,0.0,0.0,0.0,0.0,0.0,0.0,0.0,0.0,0.0,0.0,0.0,0.0,0.0,0.0,0.0,0.0,0.0,0.0,0.0,0.0,0.0,0.0,0.0,0.0,0.0,0.0,0.0,0.0,0.0,0.0,0.0,0.0,0.0,0.0,0.0,0.0,-1.7571,-1.8641,-1.9453,-1.9102,-1.9102,-1.9453,-1.8713,-1.7406,-1.5665,-1.4864,0.0,0.0,0.0,0.0,0.0,0.0,0.0,0.0,0.0,0.0,0.0,0.0,0.0,0.0,0.0,0.0,0.0,0.0,0.0,0.0,0.0,0.0,0.0,0.0,0.0,0.0,0.0,0.0,0.0,0.0,0.0,0.0,0.0,0.0,0.0,0.0,0.0,0.0,0.0,-1.4131,-1.5497,-1.6782,-1.6179,-1.5504,0.0,0.0,0.0,0.0,0.0,0.0,0.0,0.0,0.0,-1.8286,-1.8828,-1.9199,-1.9453,-2.0723,-2.1504,-2.1738,-2.2559,-2.3086,-2.3301,-2.3301,-2.3301,-2.3301,-2.3105,-2.291,-2.2656,-2.1758,-2.107,-2.0423,0.0,0.0,0.0,0.0,-1.5739,-1.6397,0.0,0.0,0.0,0.0,0.0,0.0,0.0,0.0,0.0,0.0,0.0,0.0,0.0,0.0,0.0,-1.7128,0.0,0.0,0.0,0.0,0.0,0.0,0.0,0.0,0.0,0.0,0.0,0.0,-1.8984,-1.9979,-2.0605,-2.0723,-2.0742,-2.0742,-2.0899,-1.9639,-1.7413,-1.6563,-1.5233,0.0,0.0,0.0,0.0,0.0,0.0,0.0,0.0,0.0,0.0,0.0,0.0,0.0,0.0,0.0,0.0,0.0,0.0,0.0,0.0,0.0,0.0,0.0,0.0,0.0,0.0,0.0,0.0,0.0,0.0,0.0,0.0,0.0,0.0,0.0,0.0,0.0,0.0,-1.5288,-1.6843,-1.8472,-1.7846,-1.7181,0.0,0.0,0.0,0.0,0.0,0.0,-1.8598,-1.8769,-1.9143,-1.9904,-2.0684,-2.123,-2.1584,-2.2519,-2.3164,-2.3496,-2.3809,-2.4121,-2.4414,-2.4414,-2.4414,-2.4414,-2.4531,-2.459,-2.4512,-2.3437,-2.2812,-2.2457,-2.1583,-2.0485,-1.9295,-1.8679,-1.8698,-1.9115,0.0,0.0,0.0,0.0,0.0,0.0,0.0,0.0,0.0,0.0,0.0,0.0,0.0,0.0,-1.9792,-1.8065,-1.8623,-1.8206,0.0,0.0,0.0,0.0,0.0,0.0,0.0,0.0,0.0,-1.8539,-1.9863,-2.0566,-2.0625,-2.0996,-2.1171,-2.1171,-2.1641,-2.0859,-1.911,-1.8322,-1.6845,-1.4952,0.0,0.0,0.0,0.0,0.0,0.0,0.0,0.0,0.0,0.0,0.0,0.0,0.0,0.0,0.0,0.0,0.0,0.0,0.0,0.0,0.0,0.0,0.0,0.0,0.0,0.0,0.0,0.0,0.0,0.0,0.0,0.0,0.0,0.0,0.0,0.0,0.0,0.0,0.0,-2.0234,-2.1133,0.0,0.0,0.0,0.0,-1.7097,-1.7594,-1.8676,-2.039,-2.084,-2.1836,-2.3477,-2.3965,-2.4199,-2.4219,-2.4297,-2.4336,-2.4355,-2.4375,-2.4394,-2.4414,-2.4414,-2.4414,-2.4434,-2.4863,-2.5086,-2.5047,-2.4512,-2.4316,-2.416,-2.2906,-2.2379,-2.2165,-2.0897,-2.144,-2.2838,0.0,0.0,0.0,0.0,0.0,0.0,0.0,0.0,0.0,0.0,0.0,0.0,0.0,-2.0536,-2.0992,-1.9899,-2.0523,-2.0185,-1.8272,0.0,0.0,0.0,0.0,0.0,0.0,0.0,-1.8422,-1.9416,-2.0488,-2.1133,-2.1426,-2.1582,-2.166,-2.166,-2.1816,-2.1543,-2.0937,-2.0332,-1.9048,-1.7307,-1.552,-1.3595,0.0,0.0,0.0,0.0,0.0,0.0,0.0,0.0,0.0,0.0,0.0,0.0,0.0,0.0,0.0,0.0,0.0,0.0,0.0,0.0,0.0,0.0,0.0,0.0,0.0,0.0,0.0,0.0,0.0,0.0,0.0,0.0,0.0,0.0,0.0,0.0,0.0,-2.0391,-2.0605,0.0,-2.0024,-2.043,-2.0566,-2.0197,-2.1382,-2.2402,-2.3008,-2.3203,-2.3555,-2.418,-2.4336,-2.4414,-2.4414,-2.4687,-2.4844,-2.4844,-2.5117,-2.541,-2.5684,-2.5684,-2.584,-2.6094,-2.625,-2.6328,-2.6309,-2.6152,-2.5937,-2.5664,-2.5488,-2.541,-2.5352,-2.4883,-2.5098,-2.5625,0.0,0.0,0.0,0.0,0.0,0.0,0.0,0.0,0.0,0.0,0.0,-2.0831,-2.0231,-2.1543,-2.2116,-2.128,-2.1404,-2.0633,-1.8551,0.0,0.0,0.0,0.0,0.0,0.0,-1.8125,-1.9414,-2.0586,-2.1172,-2.1602,-2.1894,-2.2031,-2.209,-2.2109,-2.2246,-2.2305,-2.2285,-2.1814,-2.0688,-1.9025,-1.7135,-1.4945,-1.2685,0.0,0.0,0.0,0.0,0.0,0.0,0.0,0.0,0.0,0.0,0.0,0.0,0.0,0.0,0.0,0.0,0.0,0.0,0.0,0.0,0.0,0.0,0.0,0.0,0.0,0.0,0.0,0.0,0.0,0.0,0.0,0.0,0.0,0.0,0.0,-1.9506,-2.1054,-2.123,-2.1387,-2.1816,-2.2129,-2.2422,-2.2715,-2.3789,-2.4414,-2.4414,-2.4551,-2.4629,-2.4629,-2.4922,-2.5078,-2.5078,-2.5508,-2.5723,-2.5723,-2.6035,-2.6328,-2.6602,-2.6602,-2.6504,-2.6387,-2.6816,-2.6758,-2.6406,-2.6992,-2.707,-2.6836,-2.6973,-2.7012,-2.7012,-2.7012,-2.7012,-2.691,0.0,0.0,0.0,0.0,0.0,0.0,0.0,0.0,0.0,0.0,-2.1755,-2.2761,-2.1946,-2.2849,-2.3121,-2.2113,-2.1145,-1.9529,-1.6921,-1.6687,0.0,0.0,0.0,0.0,-1.9219,-1.9336,-2.0195,-2.1894,-2.1894,-2.1914,-2.1934,-2.2344,-2.2539,-2.2559,-2.2906,-2.3101,-2.3062,-2.2652,-2.1613,-2.0099,-1.8009,-1.5967,-1.3966,0.0,0.0,0.0,0.0,0.0,0.0,0.0,0.0,0.0,0.0,0.0,0.0,0.0,0.0,0.0,0.0,0.0,0.0,0.0,0.0,0.0,0.0,0.0,0.0,0.0,0.0,0.0,0.0,0.0,0.0,0.0,0.0,0.0,-1.6573,-1.8894,-2.1173,-2.2422,-2.3301,-2.3965,-2.4375,-2.4434,-2.4434,-2.4434,-2.4453,-2.4473,-2.4473,-2.4844,-2.5106,-2.5106,-2.5898,-2.6348,-2.6348,-2.6797,-2.7012,-2.7012,-2.7012,-2.7031,-2.7031,-2.7031,-2.6348,-2.5282,-2.6523,-2.6348,-2.536,-2.7082,-2.7787,-2.7728,-2.7226,-2.7051,-2.7051,-2.707,-2.709,-2.6865,0.0,0.0,0.0,0.0,0.0,0.0,0.0,0.0,0.0,0.0,-2.0824,-2.1816,-2.1037,-2.246,-2.3121,-2.2113,-2.1773,-2.0605,-1.8223,0.0,0.0,0.0,0.0,0.0,-1.9238,-2.0527,-2.1562,-2.2344,-2.2344,-2.25,-2.275,-2.2867,-2.2925,-2.2925,-2.3042,-2.3101,-2.3038,-2.2051,-2.1895,-2.2073,-1.9202,-1.7317,-1.6021,0.0,0.0,0.0,0.0,0.0,0.0,0.0,0.0,0.0,0.0,0.0,0.0,0.0,0.0,0.0,0.0,0.0,0.0,0.0,0.0,0.0,0.0,0.0,0.0,0.0,0.0,0.0,0.0,0.0,0.0,0.0,0.0,-2.0149,-1.9968,-2.1358,-2.2793,-2.3769,-2.4102,-2.4297,-2.4414,-2.4707,-2.4883,-2.4883,-2.5195,-2.5508,-2.584,-2.5059,-2.4746,-2.5106,-2.536,-2.5478,-2.5478,-2.6484,-2.7012,-2.7012,-2.7012,-2.7187,-2.748,-2.748,-2.7461,-2.7441,-2.8105,-2.8184,-2.793,-2.8711,-2.9098,-2.8965,-2.8223,-2.7949,-2.7988,-2.8281,-2.8594,-2.8637,0.0,0.0,0.0,0.0,0.0,0.0,0.0,0.0,0.0,0.0,-2.048,-2.1452,-2.0775,-2.1983,-2.2638,-2.2038,-2.1621,-2.0316,-1.7729,0.0,0.0,0.0,0.0,-1.8769,-2.0605,-2.1621,-2.2363,-2.273,-2.273,-2.2847,-2.3101,-2.3101,-2.3101,-2.3101,-2.3101,-2.3101,-2.3057,-2.2359,-2.2164,-2.2126,-1.9788,-1.8353,-1.7332,-1.5471,-1.3882,-1.2679,-1.2679,-1.2679,-1.2585,-1.1944,0.0,0.0,0.0,0.0,0.0,0.0,0.0,0.0,0.0,0.0,0.0,0.0,0.0,0.0,0.0,0.0,0.0,0.0,0.0,0.0,0.0,0.0,0.0,0.0,-1.9946,-2.2309,-2.3028,-2.3435,-2.3926,-2.4609,-2.4687,-2.4766,-2.4961,-2.5371,-2.5625,-2.5625,-2.6016,-2.6387,-2.6641,-2.5918,-2.5371,-2.5125,-2.583,-2.5898,-2.5352,-2.6816,-2.7539,-2.7559,-2.7734,-2.7949,-2.8203,-2.8432,-2.8301,-2.8066,-2.8848,-2.8887,-2.8457,-2.9238,-2.9626,-2.9567,0.0,0.0,0.0,0.0,-2.9355,-2.9358,0.0,0.0,0.0,0.0,0.0,0.0,0.0,0.0,0.0,0.0,0.0,-2.1426,-2.073,-2.1455,-2.1962,-2.1849,-2.0948,-1.9157,0.0,0.0,0.0,-1.9043,-1.8945,-1.9904,-2.2461,-2.2559,-2.2711,-2.3101,-2.3101,-2.3101,-2.3101,-2.3101,-2.312,-2.3159,-2.3159,-2.3198,-2.3237,-2.3105,-2.2492,-2.1518,-2.0161,-1.9029,-1.7976,-1.6725,-1.5119,-1.3507,-1.3507,-1.3507,-1.3454,-1.3105,0.0,0.0,0.0,0.0,0.0,0.0,0.0,0.0,0.0,0.0,0.0,0.0,0.0,0.0,0.0,0.0,0.0,0.0,0.0,0.0,0.0,0.0,0.0,0.0,-2.1901,-2.3997,-2.5538,-2.5128,-2.4844,-2.5223,-2.5262,-2.5391,-2.5791,-2.623,-2.6465,-2.6465,-2.6797,-2.7031,-2.709,-2.6953,0.0,0.0,0.0,-2.6992,-2.5849,-2.7539,-2.8398,-2.8437,-2.8809,-2.8984,-2.9004,-2.9394,-2.9,-2.8002,-2.9196,-2.9059,-2.8047,-2.9293,-2.9783,-2.9763,-2.9665,-2.9646,-2.9609,-2.9489,-2.9567,-2.9519,0.0,0.0,0.0,0.0,0.0,0.0,0.0,0.0,0.0,-1.799,-2.018,-2.1144,-1.9756,-2.1011,-2.1697,-2.0934,-1.972,-1.8164,0.0,0.0,-1.5801,-1.8598,-1.9299,-2.0566,-2.248,-2.2808,-2.3023,-2.3101,-2.3101,-2.3101,-2.3101,-2.3101,-2.3276,-2.3672,-2.3672,-2.3848,-2.4069,-2.313,-2.313,-2.3591,-2.132,-1.9333,-1.7675,-1.6387,-1.5643,-1.5278,-1.5278,-1.5278,-1.5158,-1.4442,-1.4175,-1.4162,-1.4108,0.0,0.0,0.0,0.0,0.0,0.0,0.0,0.0,0.0,0.0,0.0,0.0,0.0,0.0,0.0,0.0,0.0,0.0,0.0,0.0,-2.1206,-2.3867,-2.5879,-2.6211,-2.6406,-2.6426,-2.6172,-2.6133,-2.6309,-2.6719,-2.6836,-2.6894,-2.6894,-2.6973,-2.7168,-2.7519,-2.6562,-2.6035,-2.6133,-2.6465,-2.668,-2.6758,-2.8125,-2.8984,-2.9316,-2.9414,0.0,-2.9453,-2.9587,-2.9489,-2.9238,-2.9824,-2.9941,-2.9746,-3.0371,-3.0644,-3.0566,-2.9844,-2.9785,-2.9902,-2.8589,-2.9141,-3.0372,0.0,0.0,0.0,0.0,0.0,0.0,0.0,0.0,0.0,0.0,-1.8672,-1.9469,-1.871,-1.9289,-1.966,-1.9588,-1.8223,0.0,0.0,-1.6641,-1.7559,-2.0156,-2.0664,-2.1504,-2.275,-2.2984,-2.3101,-2.3101,-2.3101,-2.3101,-2.3101,-2.3315,-2.3574,-2.3809,-2.4004,-2.4219,-2.4368,-2.3746,-2.3514,-2.342,-2.2114,-2.0657,-1.9099,-1.7683,-1.6794,-1.6273,-1.6273,-1.6273,-1.6206,-1.5765,-1.5618,-1.5618,-1.5618,-1.5204,-1.4539,0.0,0.0,0.0,0.0,0.0,0.0,0.0,0.0,0.0,0.0,0.0,0.0,0.0,0.0,-1.6524,0.0,0.0,-2.0889,-2.2851,-2.4628,-2.5957,-2.6602,-2.6875,-2.6934,-2.6719,-2.6699,-2.6777,-2.6992,-2.7207,-2.7344,-2.7344,-2.7539,-2.7754,-2.7969,-2.7559,-2.7129,-2.6719,-2.7539,-2.7773,-2.7344,-2.8613,-2.9355,-2.9626,-2.9785,-2.9883,-2.9883,-3.0117,-3.0234,-3.0234,-3.0449,-3.0547,-3.0566,-3.0801,-3.0898,-3.084,-3.041,-3.0351,-3.0449,-2.959,-2.9961,-3.0762,0.0,0.0,0.0,0.0,0.0,0.0,0.0,0.0,0.0,0.0,-1.7199,-1.7749,-1.786,-1.7519,-1.7422,0.0,0.0,0.0,0.0,-1.7988,-1.9258,-2.1777,-2.1894,-2.2285,-2.3081,-2.3101,-2.3101,-2.3101,-2.3101,-2.314,-2.3237,-2.3633,-2.3887,-2.4043,-2.4394,-2.459,-2.4621,-2.4621,-2.4087,-2.3173,-2.2935,-2.2249,-2.1221,-1.9709,-1.828,-1.71,-1.71,-1.69,-1.67,-1.67,-1.67,-1.67,-1.67,-1.67,-1.6299,-1.4242,-1.4309,0.0,0.0,0.0,0.0,0.0,0.0,0.0,0.0,0.0,-1.7188,-1.8665,-1.8945,-1.9417,-2.1065,-2.1398,-2.2199,-2.4547,-2.5293,-2.5937,-2.6992,-2.7207,-2.7266,-2.7266,-2.7187,-2.7168,-2.7246,-2.7578,-2.7845,-2.7845,-2.8184,-2.8418,-2.8418,-2.8809,-2.8574,-2.7539,-2.8848,-2.9121,-2.8164,-2.918,-2.9726,-2.988,-3.0176,-3.0332,-3.0351,-3.0723,-3.0898,-3.0898,-3.0898,-3.0898,-3.0898,-3.0898,-3.0898,-3.0898,-3.0898,-3.0704,-3.045,-3.0762,-3.0704,-3.0392,0.0,0.0,0.0,0.0,0.0,0.0,0.0,0.0,0.0,0.0,0.0,0.0,0.0,0.0,0.0,0.0,0.0,0.0,-1.6843,-1.7896,-1.9514,-2.1797,-2.1894,-2.2285,-2.3081,-2.3101,-2.3101,-2.3101,-2.3101,-2.3296,-2.3711,-2.3769,-2.4199,-2.4969,-2.5028,-2.5215,-2.5538,-2.5538,-2.5489,-2.5247,-2.4067,-2.3507,-2.326,-2.1879,-2.0137,-1.8508,-1.8508,-1.7733,-1.67,-1.67,-1.67,-1.67,-1.67,-1.67,-1.65,-1.5458,0.0,-1.4883,-1.2772,-1.2347,-1.2841,-1.4295,-1.5178,-1.6074,0.0,0.0,-1.9713,-2.1538,-2.1879,-2.2738,-2.5672,-2.5295,-2.4965,-2.6478,-2.709,-2.7474,-2.763,-2.791,-2.8144,-2.8144,-2.7832,-2.7734,-2.8105,-2.8203,-2.8223,-2.8223,-2.8613,-2.8848,-2.8848,-2.9258,-2.9489,-2.9297,-2.9528,-2.9687,-2.9902,-3.0059,-3.0332,-3.0742,-3.0801,-3.082,-3.082,-3.0859,-3.0898,-3.0898,-3.0898,-3.0898,-3.0898,-3.0898,-3.0898,-3.0898,-3.0898,-2.9962,-2.8842,-3.0333,-2.9962,-2.8664,0.0,0.0,0.0,0.0,0.0,0.0,0.0,0.0,0.0,0.0,0.0,0.0,0.0,0.0,0.0,0.0,0.0,0.0,-1.6309,-1.774,-1.9572,-2.1797,-2.1894,-2.2285,-2.3081,-2.3101,-2.3101,-2.3101,-2.3101,-2.3198,-2.3418,-2.3926,-2.4336,-2.4707,-2.5234,-2.5566,-2.5645,-2.4873,-2.4559,-2.4412,-2.3067,-2.2567,-2.2466,-2.1895,-2.0655,-1.9119,-1.8453,-1.7337,0.0,0.0,-1.6192,-1.6313,-1.7007,-1.674,-1.6077,-1.5752,-1.5164,0.0,-1.446,-1.4375,-1.4698,0.0,-1.7279,-1.8507,-2.0248,-2.0879,-2.1802,-2.4535,-2.438,-2.4416,-2.6615,-2.6129,-2.5831,0.0,-2.7129,-2.7187,-2.793,-2.8184,-2.8379,-2.8633,-2.7637,-2.709,-2.75,-2.8223,-2.8457,-2.7969,-2.8769,-2.9297,-2.9297,-2.9707,-2.9941,-2.9941,-3.0195,-3.043,-3.0605,-3.0605,-3.0703,-3.0898,-3.0898,-3.0898,-3.0898,-3.0898,-3.0898,-3.0898,-3.0898,-3.0898,-3.0898,-3.0898,-3.0898,-3.0898,-3.0898,-3.045,-2.9844,-2.953,-2.8426,-2.7013,0.0,0.0,0.0,0.0,0.0,0.0,0.0,0.0,0.0,0.0,0.0,0.0,0.0,0.0,0.0,0.0,0.0,0.0,0.0,-1.772,-1.9514,-2.1621,-2.1816,-2.2227,-2.2906,-2.3042,-2.3101,-2.3101,-2.3101,-2.3159,-2.3296,-2.4062,-2.4473,-2.4629,-2.4987,-2.5167,-2.5069,-2.3732,-2.3135,-2.3067,-2.2097,-2.1693,-2.1693,-2.1693,-2.0607,-1.9005,-1.8112,-1.6854,0.0,0.0,-1.5331,-1.5792,-1.6233,-1.6072,-1.5598,-1.5278,-1.4509,-1.4035,-1.5482,-1.6009,0.0,-1.8581,-1.9463,-2.0487,-2.26,-2.2614,-2.3097,-2.6022,-2.6064,-2.5979,-2.7137,-2.6855,-2.6758,-2.7695,-2.7324,-2.7285,-2.832,-2.8457,-2.8457,-2.8398,-2.7305,-2.6406,-2.5996,-2.7441,-2.834,-2.8256,-2.916,-2.9746,-2.9746,-3.0156,-3.0391,-3.0391,-3.0723,-3.0898,-3.0898,-3.0898,-3.0898,-3.0898,-3.0898,-3.0898,-3.0898,-3.0898,-3.0898,-3.0898,-3.0898,-3.0898,-3.0898,-3.0898,-3.0898,-3.0898,-3.0898,-3.0645,-3.002,-2.8367,-2.7013,-2.5924,0.0,0.0,0.0,0.0,0.0,0.0,0.0,0.0,0.0,0.0,0.0,0.0,0.0,0.0,0.0,0.0,0.0,0.0,0.0,-1.7896,-1.9377,-2.1132,-2.166,-2.209,-2.2519,-2.2886,-2.3101,-2.3101,-2.3101,-2.3315,-2.3769,-2.4219,-2.4648,-2.5011,-2.4159,-2.3732,-2.3683,-2.2316,-2.1744,-2.1744,-2.1693,-2.1693,-2.1693,-2.1693,-2.015,-1.7885,-1.7553,0.0,0.0,0.0,-1.4229,-1.5164,-1.3774,-1.4295,0.0,-1.3999,-1.3267,-1.3253,0.0,0.0,-1.8089,-2.1579,-2.1592,-2.1495,-2.4257,-2.3738,-2.3258,-2.5236,-2.6688,-2.7721,-2.8184,-2.8242,-2.8223,-2.8262,-2.8262,-2.8398,-2.8848,-2.8906,-2.8437,-2.7207,-2.7031,-2.6016,0.0,-2.5586,-2.7754,-2.945,-2.9922,-3.0176,-3.0176,-3.0625,-3.0859,-3.0859,-3.0879,-3.0898,-3.0898,-3.0898,-3.0898,-3.0898,-3.0898,-3.0898,-3.0898,-3.0898,-3.0898,-3.0898,-3.0898,-3.0898,-3.0898,-3.0898,-3.0898,-3.0898,-3.0898,-2.9903,-2.8289,-2.6651,-2.6045,-2.5802,0.0,0.0,0.0,0.0,0.0,0.0,0.0,0.0,0.0,0.0,0.0,0.0,0.0,0.0,0.0,0.0,0.0,0.0,0.0,-1.6629,-1.811,-1.9863,-2.1191,-2.209,-2.25,-2.2886,-2.3101,-2.3101,-2.3101,-2.3179,-2.3379,-2.3789,-2.4219,-2.4648,-2.465,-2.4802,-2.4873,-2.2667,-2.1693,-2.1541,-1.9716,-1.8954,-1.8867,-1.8065,-1.7246,-1.6276,0.0,0.0,0.0,0.0,-1.2358,-1.2812,-1.312,-1.2999,-1.2612,-1.1824,-1.3219,-1.5243,-1.6435,0.0,-1.8752,-2.2037,-2.2445,-2.2666,-2.4879,-2.4934,-2.5041,-2.6974,-2.5558,-2.4503,-2.6261,-2.511,-2.4516,-2.6306,-2.6094,-2.6465,-2.8613,-2.7643,-2.7331,-2.8945,-2.7383,0.0,0.0,0.0,0.0,-2.7461,-2.9453,-3.0664,-3.0664,-3.0801,-3.0898,-3.0898,-3.0898,-3.0898,-3.0898,-3.0898,-3.0898,-3.0898,-3.0898,-3.0898,-3.0898,-3.0898,-3.0898,-3.0898,-3.0898,-3.0898,-3.0898,-3.0898,-3.0898,-3.0898,-3.0898,-2.9903,-2.823,-2.6591,-2.5314,-2.4178,0.0,0.0,0.0,0.0,0.0,0.0,0.0,0.0,0.0,0.0,0.0,0.0,0.0,0.0,0.0,0.0,0.0,0.0,0.0,0.0,-1.6738,-1.8301,-1.9746,-2.0625,-2.0898,-2.1892,-2.2418,-2.2418,-2.2867,-2.3101,-2.3101,-2.3574,-2.3926,-2.4173,-2.3824,-2.3784,-2.3846,-2.129,-2.0231,-2.003,-1.7816,-1.6954,-1.682,-1.5658,-1.4937,0.0,0.0,0.0,0.0,-1.0749,-1.0962,-1.1429,-1.1682,-1.1476,-1.131,-1.236,-1.3852,-1.5801,-1.8518,-1.9445,-2.0492,-2.3868,-2.3878,-2.3574,-2.538,-2.5272,-2.5343,-2.7166,-2.541,-2.3856,-2.4968,-2.3765,-2.3202,-2.5107,-2.5363,-2.6289,-2.9004,-2.8203,-2.7871,-2.9336,-2.7812,-2.7285,0.0,0.0,0.0,-2.7109,-2.9004,-3.0117,-2.998,-3.0098,-3.041,-3.0879,-3.0898,-3.0898,-3.0898,-3.0898,-3.0898,-3.0898,-3.0898,-3.0898,-3.0898,-3.0898,-3.0547,-3.0,-3.0625,-3.0547,-2.9943,-3.0025,-3.002,-2.9962,-2.9353,-2.8486,-2.7331,-2.5741,-2.4471,-2.3387,0.0,0.0,0.0,0.0,0.0,0.0,0.0,0.0,0.0,0.0,0.0,0.0,0.0,0.0,0.0,0.0,0.0,0.0,0.0,0.0,0.0,-1.6551,-1.75,-1.7988,-1.8008,-2.0001,-2.1073,-2.1093,-2.2259,-2.2862,-2.2906,-2.3315,-2.353,-2.3524,-2.1687,-2.09,-2.0802,-1.8511,-1.7526,-1.7432,-1.6206,-1.5752,-1.5618,-1.4442,0.0,0.0,0.0,0.0,0.0,0.0,0.0,0.0,-0.983,-1.0047,-1.1489,-1.5061,-1.5066,-1.5147,-2.106,-2.2385,-2.2945,-2.6669,-2.5613,-2.41,-2.5717,-2.4986,-2.4288,-2.5684,-2.5901,-2.5412,0.0,0.0,-2.3903,-2.4638,-2.592,-2.7598,-2.9785,-3.0059,-2.9609,0.0,0.0,0.0,0.0,0.0,0.0,-2.8301,0.0,-2.8848,-2.8437,-2.8809,-2.959,-3.0859,-3.0898,-3.0898,-3.0898,-3.0898,-3.0898,-3.0898,-3.0898,-3.0898,-3.0898,-3.0898,-2.9924,-2.8408,-3.0042,-2.9771,-2.8211,-2.8278,-2.8289,-2.811,-2.6591,-2.5924,-2.568,-2.4178,-2.3574,-2.3263,0.0,0.0,0.0,0.0,0.0,0.0,0.0,0.0,0.0,0.0,0.0,0.0,0.0,0.0,0.0,0.0,0.0,0.0,0.0,0.0,0.0,0.0,0.0,0.0,0.0,0.0,0.0,0.0,0.0,-1.9677,-2.0273,-1.9791,-2.0039,-2.0878,-1.9765,-1.9585,-1.9963,-1.7726,-1.6786,-1.6667,0.0,-1.4723,-1.4402,0.0,0.0,0.0,0.0,0.0,0.0,0.0,0.0,0.0,0.0,-1.2652,-1.3291,-1.3602,-1.5433,-1.7914,-2.0315,-2.1064,-2.2078,-2.5631,-2.431,-2.287,-2.548,-2.5827,-2.5308,-2.4624,-2.3044,-2.1241,0.0,0.0,0.0,-2.2474,-2.366,0.0,-2.834,-2.8223,0.0,-2.8691,0.0,-2.8965,-2.9531,-2.998,0.0,0.0,-2.959,-3.0351,-3.0234,-3.0332,-3.0547,-3.0879,-3.0898,-3.0898,-3.0898,-3.0898,-3.0898,-3.0898,-3.0898,-3.0898,-3.0898,-3.0898,-2.9967,-2.8373,-2.8855,-2.8133,-2.6599,-2.6602,-2.6591,-2.6591,-2.6167,-2.5253,-2.4178,-2.376,-2.2841,-2.1664,0.0,0.0,0.0,0.0,0.0,0.0,0.0,0.0,0.0,0.0,0.0,0.0,0.0,0.0,0.0,0.0,0.0,0.0,0.0,0.0,0.0,0.0,0.0,0.0,0.0,0.0,0.0,0.0,0.0,0.0,0.0,-1.8304,-1.8471,-1.907,-1.7849,-1.7536,-1.7806,-1.6156,0.0,0.0,0.0,0.0,0.0,0.0,0.0,0.0,0.0,0.0,0.0,0.0,0.0,-1.2158,-1.4122,-1.4616,-1.4805,-1.6264,0.0,-1.8766,-2.1179,-2.1539,-2.1851,-2.4437,-2.3319,-2.1897,-2.2921,-2.3161,-2.2791,-2.1428,-2.0046,0.0,-1.7139,-1.6875,0.0,0.0,0.0,0.0,-2.8164,-2.8144,-2.8125,0.0,-2.8926,0.0,-3.0762,-3.0898,-3.0488,0.0,-2.9805,-2.9941,-2.9766,-2.9922,-3.0293,-3.0879,-3.0898,-3.0898,-3.0898,-3.0898,-3.0898,-3.0898,-3.0898,-3.0898,-3.0898,-3.0157,-2.8886,-2.7301,-2.7333,-2.6398,-2.4858,-2.4951,-2.4962,-2.4901,-2.4163,-2.3311,-2.2529,-2.2529,-2.1999,-2.1309,0.0,0.0,0.0,0.0,0.0,0.0,0.0,0.0,0.0,0.0,0.0,0.0,0.0,0.0,0.0,0.0,0.0,0.0,0.0,0.0,0.0,0.0,0.0,0.0,0.0,0.0,0.0,0.0,0.0,0.0,0.0,0.0,0.0,0.0,0.0,0.0,0.0,0.0,0.0,0.0,0.0,0.0,0.0,0.0,0.0,0.0,0.0,0.0,0.0,0.0,-1.3427,-1.3093,-1.5979,-1.6219,-1.6184,-1.9939,-1.9483,-1.8642,-2.2261,-2.228,-2.1643,-2.3151,-2.242,-2.0988,-1.9948,-1.9552,-1.9072,-1.7858,0.0,-1.7106,-1.6179,-1.7085,-1.8786,-2.1182,0.0,-2.606,-2.7955,-2.8594,-2.8769,-2.8594,-2.8789,-2.9434,-3.0762,-3.0742,-3.0703,-3.0879,-2.9824,-2.9023,-2.8652,-2.8984,-2.9707,-3.0859,-3.0898,-3.0898,-3.0898,-3.0898,-3.0898,-3.0898,-3.0898,-3.0898,-3.084,-2.9157,-2.7495,-2.5925,-2.5737,-2.4682,-2.3079,-2.3217,-2.3263,-2.3153,-2.1705,-2.1162,-2.1176,-2.1216,-2.139,-2.1681,0.0,0.0,0.0,0.0,0.0,0.0,0.0,0.0,0.0,0.0,-1.1717,-1.2255,0.0,0.0,0.0,0.0,0.0,0.0,0.0,0.0,0.0,0.0,0.0,0.0,0.0,0.0,0.0,0.0,0.0,0.0,0.0,0.0,0.0,0.0,0.0,0.0,0.0,0.0,0.0,0.0,0.0,0.0,0.0,0.0,0.0,0.0,0.0,0.0,0.0,0.0,-1.4108,-1.4563,-1.6983,-1.7849,-1.7889,-1.795,-1.8523,-1.9273,-2.0264,-2.012,-2.0141,-2.1586,-2.0873,-2.0028,-2.1003,-2.028,0.0,0.0,-1.6866,-1.5822,-1.4671,-1.5777,-1.7823,-2.0783,-2.2638,-2.3926,-2.4578,-2.6836,-2.8008,0.0,-2.8066,-2.9434,-3.0762,-2.9902,0.0,0.0,-3.0684,-3.0508,-3.0449,-3.0508,-3.0644,-3.0879,-3.0898,-3.0898,-3.0898,-3.0898,-3.0898,-3.0898,-3.0898,-3.0898,-3.084,-2.9157,-2.7533,-2.592,-2.4623,-2.3068,-2.1486,-2.1519,-2.1538,-2.1502,-2.1504,-2.1534,-2.1574,-2.175,-2.1871,-2.1911,0.0,0.0,0.0,0.0,0.0,0.0,0.0,0.0,-1.1045,-1.0649,-1.0781,-1.1052,-1.1403,-1.1097,0.0,0.0,0.0,0.0,0.0,0.0,0.0,0.0,0.0,0.0,0.0,0.0,0.0,0.0,0.0,0.0,0.0,0.0,0.0,0.0,0.0,0.0,0.0,0.0,0.0,0.0,0.0,0.0,0.0,0.0,0.0,0.0,0.0,0.0,0.0,0.0,-1.3467,-1.4362,-1.7341,-1.837,-1.837,-1.7782,-1.845,-1.9304,-1.898,-1.9112,-1.9591,-2.0256,-1.9924,-1.9185,-1.833,0.0,0.0,0.0,-1.4094,-1.3701,-1.3263,-1.442,0.0,-1.9654,-2.2034,-2.361,-2.3921,-2.6623,0.0,-2.6645,-2.7914,-2.916,0.0,-2.9297,-2.918,-2.9824,-2.9863,-3.0156,-3.0859,-3.0898,-3.0898,-3.0898,-3.0898,-3.0898,-3.0898,-3.0898,-3.0898,-3.0898,-3.002,-2.9589,-2.953,-2.703,-2.5513,-2.4655,-2.3014,-2.1493,-2.0254,-2.1029,-2.0975,-2.0521,-2.143,-2.1842,-2.179,-2.1937,-2.2084,-2.2205,0.0,0.0,0.0,0.0,0.0,0.0,0.0,-1.0333,-1.0396,-1.06,-1.0354,-1.0301,-1.0559,-1.0533,-1.0629,0.0,0.0,0.0,0.0,0.0,0.0,0.0,0.0,0.0,0.0,0.0,0.0,0.0,0.0,0.0,0.0,0.0,0.0,0.0,0.0,0.0,0.0,0.0,0.0,0.0,0.0,0.0,0.0,0.0,0.0,0.0,0.0,0.0,0.0,0.0,-1.2625,-1.3574,-1.674,-1.7822,-1.7929,-1.7943,-1.849,-1.8971,-1.845,-1.8824,-1.943,-1.943,-1.943,-1.8733,-1.608,-1.5418,0.0,0.0,-1.1891,-1.2087,-1.2665,-1.3694,-1.5438,0.0,-2.086,-2.2452,-2.3255,-2.5593,-2.6879,0.0,-2.705,0.0,-2.8257,-2.805,0.0,-2.8742,-2.8816,-2.9427,-3.084,-3.0587,-3.0509,-3.0898,-3.0587,-3.0528,-3.0898,-3.0898,-3.0704,-3.0333,-2.9039,-2.823,-2.7811,-2.4901,-2.3574,-2.3512,-2.1853,-2.0481,-1.9573,-2.1038,-2.0895,-2.004,-2.151,-2.2084,-2.2084,-2.2151,-2.2311,-2.2512,0.0,0.0,0.0,0.0,0.0,0.0,0.0,-0.9428,-0.9696,-1.0491,-1.0573,-1.0559,-1.0586,-1.0314,-1.0278,0.0,0.0,0.0,0.0,0.0,0.0,0.0,0.0,0.0,0.0,0.0,0.0,0.0,0.0,0.0,0.0,0.0,0.0,0.0,0.0,0.0,0.0,0.0,0.0,0.0,0.0,0.0,0.0,0.0,0.0,0.0,0.0,0.0,0.0,0.0,0.0,-1.2719,-1.4713,-1.5645,-1.6273,-1.7315,0.0,0.0,-1.9052,-1.9305,-1.943,-1.943,-1.943,-1.9001,-1.7367,0.0,0.0,-1.3666,-1.2599,-1.2409,-1.4015,-1.4421,-1.5442,0.0,0.0,-1.8134,0.0,0.0,0.0,-2.3507,0.0,0.0,-2.6157,-2.5236,-2.5645,-2.8233,-2.8442,-2.9164,-3.082,-2.9471,-2.9335,-3.082,-2.9412,-2.9353,-3.0898,-3.0898,-3.0157,-2.8605,-2.8486,-2.7632,-2.6167,-2.4425,-2.3574,-2.3512,-2.1853,-2.0601,-1.9853,-2.1119,-2.1015,-2.0334,-2.1804,-2.2378,-2.2418,-2.2686,-2.2806,-2.2819,0.0,0.0,0.0,0.0,0.0,0.0,0.0,-0.8979,-0.9428,-0.9779,-1.0082,-1.0399,-1.0573,-1.0287,-1.0234,0.0,0.0,0.0,0.0,0.0,0.0,0.0,0.0,0.0,0.0,0.0,0.0,0.0,0.0,0.0,0.0,0.0,0.0,0.0,0.0,0.0,0.0,0.0,0.0,0.0,0.0,0.0,0.0,0.0,0.0,0.0,0.0,0.0,0.0,0.0,0.0,0.0,-1.2559,-1.324,0.0,0.0,-1.67,-1.7729,-1.7555,-1.8479,-1.943,-1.943,-1.943,-1.88,-1.6415,0.0,-1.5017,-1.2734,-1.2211,-1.2345,-1.3053,-1.3186,-1.3831,0.0,0.0,0.0,-1.9391,0.0,0.0,-2.3461,-2.4547,0.0,0.0,0.0,-2.4548,-2.5751,-2.6712,-2.7437,-2.7896,-2.7314,-2.7254,-2.7931,-2.823,-2.8724,-2.9394,-3.0392,-3.0079,-2.8367,-2.7434,-2.6106,-2.4471,-2.2827,-2.209,-2.2041,-2.1615,-2.0374,0.0,-2.1149,-2.1042,-1.9666,-2.183,-2.2686,-2.2699,-2.2819,-2.2928,-2.2928,0.0,0.0,0.0,0.0,0.0,-0.7242,-0.7558,-0.8129,-0.8613,-0.8882,-0.9229,-0.9569,-0.9786,-0.9606,-0.9662,-1.018,0.0,0.0,0.0,0.0,0.0,0.0,0.0,0.0,0.0,0.0,0.0,-0.997,-1.006,-1.0083,0.0,0.0,0.0,0.0,0.0,0.0,0.0,0.0,0.0,0.0,0.0,0.0,0.0,0.0,0.0,0.0,0.0,0.0,0.0,0.0,0.0,0.0,0.0,0.0,0.0,0.0,-1.5725,-1.7114,-1.6754,-1.7983,-1.943,-1.943,-1.9162,-1.8211,0.0,0.0,-1.4576,-1.1935,-1.1891,-1.2305,-1.2305,-1.2305,-1.2786,0.0,0.0,-1.6723,-1.8063,-2.0214,0.0,0.0,0.0,-2.3751,0.0,-2.3634,-2.3927,-2.3927,-2.4978,-2.5545,-2.5282,-2.4824,-2.5008,-2.5984,-2.6651,-2.7211,-2.7692,-2.8861,-2.8623,-2.697,-2.5802,-2.4269,-2.2352,-2.1499,-2.0962,-2.0748,-2.1309,-2.0521,0.0,-2.143,-2.1296,-1.9786,-2.2004,-2.2928,-2.2928,-2.2928,-2.2928,-2.2928,0.0,0.0,0.0,0.0,0.0,0.0,0.0,-0.6719,-0.7046,-0.7892,-0.8021,-0.8021,-0.8021,-0.8021,-0.8377,-0.9236,0.0,0.0,0.0,0.0,0.0,0.0,0.0,0.0,0.0,0.0,-1.0586,-1.0586,-1.0261,-1.0083,-1.0083,-0.982,-0.9846,0.0,0.0,0.0,0.0,0.0,0.0,0.0,0.0,0.0,0.0,0.0,0.0,0.0,0.0,0.0,0.0,0.0,0.0,0.0,0.0,0.0,0.0,0.0,-1.5137,-1.6522,-1.7328,-1.845,-1.943,-1.943,-1.8477,-1.7141,0.0,-1.4566,-1.3601,-1.1797,-1.1891,-1.2305,-1.2305,-1.2305,-1.2786,-1.4282,0.0,0.0,-1.6526,-1.6727,0.0,0.0,0.0,-1.9564,-2.1011,-2.264,-2.3621,-2.3621,-2.3621,0.0,-2.3636,-2.2027,-2.264,-2.5924,-2.4471,-2.4409,-2.5984,-2.6045,-2.5253,-2.3636,-2.3636,-2.2175,-1.9484,-2.0575,-2.0641,-1.988,-2.1105,-2.1279,0.0,-2.1924,-2.1897,-2.1203,-2.2392,-2.2928,-2.2928,-2.2928,-2.2928,-2.2928,0.0,0.0,0.0,0.0,0.0,0.0,0.0,-0.6334,-0.6785,-0.7079,-0.7632,-0.7989,-0.7989,-0.7989,-0.8118,-0.8388,0.0,0.0,0.0,0.0,0.0,0.0,0.0,0.0,0.0,0.0,-1.0586,-1.0586,-1.0492,-1.0452,-1.0439,-1.0114,-1.0033,-1.0083,-1.0083,0.0,0.0,0.0,0.0,0.0,0.0,0.0,0.0,0.0,0.0,0.0,0.0,0.0,0.0,0.0,0.0,0.0,0.0,0.0,0.0,0.0,0.0,0.0,-1.4629,-1.5605,-1.6607,-1.6455,-1.612,-1.5424,-1.3842,-1.3627,-1.3293,-1.1722,-1.1891,-1.2305,-1.2305,-1.2305,-1.2786,-1.4282,-1.4522,0.0,0.0,0.0,0.0,-2.0241,-2.0414,-2.0601,0.0,0.0,-2.2118,-2.1923,-2.2097,-2.2132,-2.1874,-2.1411,-2.1601,-2.264,-2.3263,-2.3807,-2.4348,-2.5436,-2.5192,-2.3574,-2.3574,-2.2115,-1.947,-2.0575,-2.0628,-1.988,-2.1256,-2.1403,-2.0788,-2.2151,-2.2084,-2.1229,-2.2405,-2.2928,-2.2928,-2.2928,-2.2928,-2.2928,0.0,0.0,0.0,0.0,0.0,0.0,0.0,-0.5848,-0.6203,-0.6203,-0.6695,-0.7022,-0.7022,-0.7022,-0.7153,-0.747,0.0,0.0,0.0,0.0,0.0,0.0,0.0,0.0,0.0,-0.9652,-1.011,-1.011,-1.0428,-1.0428,-1.0098,-0.9772,-0.9614,-0.9614,-0.9614,0.0,0.0,0.0,0.0,0.0,0.0,0.0,-1.0894,0.0,0.0,0.0,0.0,0.0,0.0,0.0,0.0,0.0,0.0,0.0,0.0,0.0,-1.2358,0.0,0.0,-1.4202,-1.519,-1.5062,-1.4673,0.0,0.0,-1.2946,-1.2705,-1.1784,-1.2412,-1.2973,-1.2398,-1.2759,-1.3253,-1.3627,-1.4616,-1.5792,0.0,0.0,0.0,-1.9506,0.0,0.0,0.0,-2.1265,-2.1352,-2.1132,-2.1313,-2.1291,-2.1145,-2.1109,-2.1109,-2.1109,-2.209,-2.2654,-2.2654,-2.3683,-2.3683,-2.2654,-2.2654,-2.1521,-1.947,-2.0695,-2.0802,-2.004,-2.151,-2.1897,0.0,-2.2485,-2.2432,-2.1844,-2.2579,-2.2928,-2.2928,-2.2928,-2.2928,-2.2928,0.0,0.0,0.0,0.0,0.0,0.0,0.0,0.0,0.0,-0.5392,-0.5392,-0.5392,-0.5392,-0.5392,-0.5716,-0.6523,0.0,0.0,0.0,0.0,0.0,0.0,0.0,0.0,0.0,-0.8775,-0.9236,-0.93,-1.0047,-1.0047,-0.93,-0.8893,-0.8734,-0.8703,-0.8734,-0.9217,-1.0076,-1.0309,-1.046,-1.0491,-1.0428,-1.0415,0.0,0.0,0.0,0.0,0.0,0.0,0.0,0.0,0.0,0.0,0.0,0.0,0.0,0.0,0.0,0.0,0.0,-1.3828,0.0,0.0,0.0,0.0,-1.3053,-1.2425,0.0,-1.2033,-1.336,-1.4095,-1.2719,-1.3667,-1.4188,-1.2705,-1.4843,-1.6233,0.0,-1.6206,0.0,0.0,-1.8784,0.0,-2.0909,-2.1056,-2.1109,-2.1109,-2.1109,-2.1109,-2.1109,-2.1109,-2.1109,-2.1109,-2.1109,-2.1109,-2.1109,-2.1109,-2.1069,-2.0989,-2.1069,-2.0468,-1.9319,-2.0918,-2.1082,-2.0347,-2.179,-2.2592,-2.2928,-2.2928,-2.2928,-2.2928,-2.2928,-2.2928,-2.2928,-2.2928,-2.2928,-2.2928,0.0,0.0,0.0,0.0,0.0,0.0,0.0,0.0,0.0,0.0,-0.5392,-0.5392,-0.5392,-0.5392,-0.5491,0.0,0.0,0.0,0.0,0.0,0.0,0.0,0.0,0.0,0.0,-0.7859,-0.8646,-0.93,-0.8839,-0.8839,-0.9268,-0.8393,-0.7902,-0.7809,-0.7933,-0.8538,-0.9439,-0.8849,-0.9,-0.9556,-0.8871,-0.8525,0.0,0.0,0.0,0.0,-0.9545,-0.9688,0.0,0.0,0.0,0.0,0.0,0.0,0.0,0.0,-1.0469,-0.9995,-1.0936,0.0,-1.1913,-1.1685,-1.1417,-1.127,0.0,-1.1516,-1.1917,-1.328,-1.4068,-1.4372,-1.4068,-1.5204,-1.5712,-1.4242,-1.5524,-1.666,-1.6603,0.0,0.0,-1.7648,-1.9452,-2.0535,-1.984,-2.0588,-2.1109,-2.1109,-2.1109,-2.1109,-2.1109,-2.1109,-2.1109,-2.1109,-2.1109,-2.1109,-2.1109,-2.1109,-2.0655,-1.9786,-2.0681,-2.0134,-1.841,-2.0636,-2.1253,-2.0641,-2.1884,-2.2592,-2.2928,-2.2928,-2.2928,-2.2928,-2.2928,-2.2928,-2.2928,-2.2928,-2.2928,-2.2928,0.0,0.0,0.0,0.0,0.0,0.0,0.0,0.0,0.0,0.0,0.0,0.0,0.0,0.0,0.0,0.0,0.0,0.0,0.0,0.0,0.0,0.0,0.0,0.0,-0.6104,-0.6948,-0.7632,-0.8096,-0.8021,-0.8021,-0.8086,-0.7506,-0.7116,-0.6938,-0.7406,-0.7975,-0.8544,-0.8174,-0.8258,-0.8646,-0.8194,0.0,0.0,0.0,0.0,0.0,-0.8516,-0.8821,0.0,-0.7697,-0.8289,-0.9358,0.0,0.0,0.0,0.0,-1.0198,-0.9492,-1.0364,-1.0707,-1.0948,-1.1471,-1.1189,-1.1042,-1.1984,0.0,0.0,0.0,0.0,0.0,-1.4522,-1.5284,-1.5605,-1.4669,-1.5418,0.0,0.0,0.0,-1.8464,-1.7675,-1.8838,-1.9613,0.0,-2.0428,-2.1109,-2.1109,-2.1109,-2.1109,-2.1109,-2.1109,-2.1109,-2.1109,-2.1109,-2.1109,-2.1109,-2.1109,-2.0521,-1.9386,-2.0548,-2.0307,-1.8905,-2.0855,-2.1657,-2.1483,-2.1724,-2.2218,-2.2887,-2.2285,-2.2378,-2.2928,-2.2928,-2.2928,-2.2928,-2.2928,-2.2928,-2.2928,0.0,0.0,0.0,0.0,0.0,0.0,0.0,0.0,0.0,0.0,0.0,0.0,0.0,0.0,0.0,0.0,0.0,0.0,0.0,0.0,0.0,0.0,0.0,-0.5392,-0.5392,-0.6137,-0.6547,-0.6644,-0.7261,-0.7242,-0.6634,-0.6506,-0.6318,-0.6109,-0.6863,-0.7327,-0.7558,-0.7587,-0.7665,-0.7795,-0.7636,0.0,0.0,0.0,0.0,0.0,0.0,0.0,0.0,-0.6785,-0.765,-0.8975,-0.834,0.0,0.0,0.0,0.0,0.0,-1.0174,-1.0531,-1.1015,-1.2489,-1.194,-1.1463,-1.3253,0.0,0.0,0.0,0.0,0.0,0.0,-1.5458,0.0,0.0,0.0,0.0,-1.7341,-1.7929,-1.8063,-1.7635,-1.813,0.0,-1.9319,-2.0428,-2.1109,-2.1109,-2.1109,-2.1109,-2.1109,-2.1109,-2.1109,-2.1109,-2.1109,-2.1109,-2.1109,-2.1109,-2.0521,-1.9386,-2.0601,-2.0722,-1.992,-2.139,-2.2205,-2.2445,-2.1697,0.0,-2.2847,-2.179,-2.1964,-2.2928,-2.2928,-2.2928,-2.2928,-2.2928,-2.2928,-2.2928,0.0,0.0,0.0,0.0,0.0,0.0,0.0,0.0,0.0,0.0,0.0,0.0,0.0,0.0,0.0,0.0,0.0,0.0,0.0,0.0,0.0,0.0,-0.5392,-0.5392,-0.5392,-0.5524,-0.5879,-0.6457,-0.5823,-0.5786,-0.625,-0.5636,-0.5417,-0.5529,-0.5798,-0.6238,-0.6807,-0.6096,-0.6235,-0.6833,-0.5917,0.0,0.0,0.0,0.0,0.0,0.0,0.0,0.0,-0.5881,-0.6284,-0.7124,-0.6992,0.0,0.0,0.0,0.0,0.0,-0.9268,-1.0212,-1.1289,-1.2772,-1.2064,-1.153,-1.3561,0.0,0.0,0.0,0.0,0.0,0.0,-1.8624,-1.9011,0.0,0.0,-1.7005,0.0,0.0,-1.8771,-1.7716,0.0,-2.0307,-1.9511,-2.0428,-2.1109,-2.1109,-2.1109,-2.1109,-2.1109,-2.1109,-2.1109,-2.1109,-2.1109,-2.1109,-2.1109,-2.1109,-2.0521,-1.9444,-2.0864,-2.1015,-2.0214,-2.1683,-2.2512,-2.2792,0.0,-2.2767,-2.2914,-2.2672,-2.2699,-2.2928,-2.2928,-2.2928,-2.2928,-2.2928,-2.2928,-2.2928,0.0,0.0,0.0,0.0,0.0,0.0,0.0,0.0,0.0,0.0,0.0,0.0,0.0,0.0,0.0,0.0,0.0,0.0,0.0,0.0,0.0,-0.5392,-0.5392,-0.5392,-0.5392,-0.5392,-0.5513,-0.5698,-0.5287,-0.5283,-0.5616,-0.5375,-0.525,-0.5243,-0.5433,-0.5605,-0.5811,-0.5522,-0.5574,-0.5804,0.0,0.0,0.0,0.0,0.0,0.0,0.0,0.0,0.0,0.0,-0.5932,-0.6772,-0.6602,0.0,0.0,0.0,0.0,0.0,-0.8355,-0.9423,-1.0874,-1.3286,-1.2791,-1.2532,-1.5738,-1.4456,0.0,0.0,0.0,0.0,0.0,0.0,-1.7475,-1.6576,0.0,-1.9065,-1.8492,-1.8988,-1.9158,0.0,0.0,-1.996,-1.947,-2.0428,-2.1109,-2.1109,-2.1109,-2.1109,-2.1109,-2.1109,-2.1109,-2.1109,-2.1109,-2.1109,-2.1109,-2.1109,-2.0601,-1.9613,-2.0935,-2.1176,-2.0521,-2.1817,-2.2579,-2.2887,0.0,-2.2271,-2.2887,-2.2178,-2.2285,-2.2928,-2.2928,-2.2928,-2.2928,-2.2928,-2.2928,-2.2928,0.0,0.0,0.0,0.0,0.0,0.0,0.0,0.0,0.0,0.0,0.0,0.0,0.0,0.0,0.0,0.0,0.0,0.0,0.0,0.0,-0.5392,-0.5392,-0.5392,-0.5392,-0.5392,-0.5358,-0.5237,-0.5049,-0.5049,-0.5083,-0.5189,-0.5337,-0.5351,-0.5211,-0.5365,-0.5311,-0.5103,-0.5257,-0.5237,-0.5103,0.0,0.0,0.0,0.0,0.0,0.0,0.0,0.0,0.0,0.0,0.0,0.0,0.0,0.0,0.0,-0.7034,-0.7046,-0.6859,-0.7559,-0.8743,-1.042,-1.3031,0.0,-1.332,-1.7622,-1.5752,0.0,0.0,0.0,0.0,0.0,-1.6576,0.0,-1.7742,-1.9519,-2.0481,-1.9867,-1.9773,-1.9773,-1.9773,-1.9773,-1.9773,-1.9773,-2.0588,-2.1109,-2.1109,-2.1109,-2.1109,-2.1109,-2.1109,-2.1109,-2.1109,-2.1109,-2.1109,-2.1109,-2.1176,-2.0869,-2.0227,-2.1189,-2.1456,-2.1122,-2.2084,-2.2645,-2.2874,-2.1911,-2.2031,-2.2861,-2.1884,-2.2058,-2.2928,-2.2928,-2.2928,-2.2928,-2.2928,-2.2928,-2.2928,0.0,0.0,0.0,0.0,0.0,0.0,0.0,0.0,0.0,0.0,0.0,0.0,0.0,0.0,0.0,0.0,0.0,0.0,0.0,0.0,-0.5392,-0.5392,-0.5392,-0.5392,-0.5392,-0.5223,-0.5049,-0.4908,-0.4908,-0.5074,-0.5378,-0.5392,-0.5467,-0.5555,-0.5569,-0.5406,-0.5096,-0.511,-0.511,-0.509,-0.4968,0.0,0.0,0.0,0.0,0.0,0.0,0.0,0.0,0.0,0.0,0.0,0.0,0.0,-0.5439,-0.5564,-0.6104,-0.6753,-0.6933,-0.85,-1.0252,-1.1025,-1.1599,-1.3172,-1.7822,-1.5725,0.0,-1.8076,0.0,0.0,0.0,-1.821,-1.7796,-1.9095,-1.9386,-1.984,-2.0842,0.0,-2.0989,-2.0989,-2.0989,-2.0989,-2.0989,-2.1056,-2.1109,-2.1109,-2.1109,-2.1109,-2.1109,-2.1109,-2.1109,-2.1109,-2.1109,-2.1109,-2.1109,-2.139,-2.1561,-2.1494,-2.179,-2.2071,-2.2311,-2.2672,-2.2914,-2.2928,-2.2847,-2.2847,-2.2928,-2.2834,-2.2847,-2.2928,-2.2928,-2.2928,-2.2928,-2.2928,-2.2928,-2.2928,0.0,0.0,0.0,0.0,0.0,0.0,0.0,0.0,0.0,0.0,0.0,0.0,0.0,0.0,0.0,0.0,0.0,0.0,0.0,0.0,-0.5216,-0.5216,-0.5135,-0.5087,-0.5087,-0.5083,-0.5069,-0.5022,-0.5022,-0.5076,-0.5216,-0.5351,-0.5426,-0.5481,-0.5345,-0.5204,-0.5096,-0.5096,-0.5049,-0.4982,-0.5142,-0.5203,0.0,0.0,0.0,0.0,0.0,0.0,0.0,0.0,-0.5108,-0.511,0.0,-0.5284,-0.5392,-0.5392,-0.5624,-0.5918,-0.6048,-0.782,-0.9809,-1.0726,-1.1685,0.0,0.0,-1.6119,-1.5511,-1.9466,-1.817,0.0,0.0,0.0,-1.8894,-1.935,-1.9973,-2.0601,-2.1042,-2.1109,-2.1109,-2.1109,-2.1109,-2.1109,-2.1109,-2.1109,-2.1109,-2.1109,-2.1109,-2.1109,-2.1109,-2.1109,-2.1109,-2.1109,-2.1109,-2.1109,-2.1109,-2.1403,-2.1708,-2.183,-2.2111,-2.2405,-2.2699,-2.2806,-2.2928,-2.2928,-2.2928,-2.2928,-2.2928,-2.2928,-2.2928,-2.2928,-2.2928,-2.2928,-2.2928,-2.2928,-2.2928,-2.2928,0.0,0.0,0.0,0.0,0.0,0.0,0.0,0.0,0.0,0.0,0.0,0.0,0.0,0.0,0.0,0.0,0.0,0.0,0.0,-0.5189,-0.5076,-0.5036,-0.4941,-0.4908,-0.4955,-0.5009,-0.5029,-0.5029,-0.5076,-0.5123,-0.5203,-0.5344,-0.5392,-0.5392,-0.525,-0.5143,-0.5096,-0.5096,-0.5042,-0.4975,-0.5209,-0.5257,0.0,0.0,0.0,0.0,0.0,0.0,0.0,0.0,-0.4988,-0.5049,0.0,0.0,0.0,-0.5392,-0.5392,-0.544,-0.5603,-0.7141,-0.8989,-1.0287,0.0,0.0,-1.6646,-1.6292,-1.6273,-1.9826,-1.8931,-1.7382,-1.7007,0.0,0.0,0.0,-2.004,-2.0695,-2.1056,-2.1109,-2.1109,-2.1109,-2.1109,-2.1109,-2.1109,-2.1109,-2.1109,-2.1109,-2.1109,-2.1109,-2.1109,-2.1109,-2.1109,-2.1109,-2.1109,-2.1149,-2.1256,-2.155,-2.183,-2.2124,-2.2418,-2.2672,-2.2928,-2.2928,-2.2928,-2.2928,-2.2928,-2.2928,-2.2928,-2.2928,-2.2928,-2.2928,-2.2928,-2.2928,-2.2928,-2.2928,-2.2928,-2.2928,0.0,0.0,0.0,0.0,0.0,0.0,0.0,0.0,0.0,0.0,0.0,0.0,0.0,0.0,0.0,0.0,0.0,0.0,-0.511,-0.5096,-0.5029,-0.4894,-0.4887,-0.4955,-0.509,-0.4961,-0.4887,-0.4887,-0.5029,-0.5209,-0.5392,-0.5392,-0.5392,-0.5392,-0.5399,-0.5284,-0.5096,-0.5103,-0.5103,-0.5096,-0.5103,-0.5223,-0.5378,0.0,0.0,0.0,0.0,0.0,0.0,0.0,-0.5002,-0.4972,0.0,0.0,0.0,-0.5405,-0.5399,-0.5467,-0.5732,-0.6551,-0.7755,-0.9529,0.0,0.0,-1.6404,-1.6138,-1.5866,-1.8827,-2.0294,-2.0735,-1.9573,-1.943,0.0,-1.943,-1.943,-1.9786,-2.0949,-2.1109,-2.1109,-2.1109,-2.1109,-2.1109,-2.1109,-2.1109,-2.1109,-2.1109,-2.1109,-2.1109,-2.1109,-2.1109,-2.1109,-2.1109,-2.1109,-2.1256,-2.1614,-2.1844,-2.2138,-2.2418,-2.2726,-2.2928,-2.2928,-2.2928,-2.2928,-2.2928,-2.2928,-2.2928,-2.2928,-2.2928,-2.2928,-2.2928,-2.2928,-2.2928,-2.2928,-2.2928,-2.2928,-2.2928,0.0,0.0,0.0,0.0,0.0,0.0,0.0,0.0,0.0,0.0,0.0,0.0,0.0,0.0,0.0,0.0,0.0,0.0,-0.5103,-0.4938,-0.4802,-0.4762,-0.4762,-0.4775,-0.4823,-0.4955,-0.5036,-0.5036,-0.5216,-0.5257,-0.5203,-0.542,-0.5406,-0.5223,-0.5794,-0.5671,-0.5123,-0.5548,-0.5487,-0.511,-0.525,-0.5257,-0.5196,0.0,0.0,0.0,0.0,0.0,0.0,0.0,0.0,0.0,-0.533,0.0,0.0,-0.6027,-0.5883,-0.5677,-0.6396,-0.7809,0.0,-0.9446,0.0,0.0,0.0,-1.5545,0.0,0.0,-1.9947,-1.9826,-1.8651,-1.9626,0.0,-1.9506,-2.0054,-2.0708,-2.1056,-2.1109,-2.1109,-2.1109,-2.1109,-2.1109,-2.1109,-2.1109,-2.1109,-2.1109,-2.1109,-2.1109,-2.1109,-2.1109,-2.1109,-2.1109,-2.1309,-2.1534,-2.1614,-2.2044,-2.2338,-2.2418,-2.2726,-2.2928,-2.2928,-2.2928,-2.2928,-2.2928,-2.2928,-2.2928,-2.2928,-2.2928,-2.2928,-2.2928,-2.2928,-2.2928,-2.2928,-2.2928,-2.2928,-2.2928,0.0,0.0,0.0,0.0,0.0,0.0,0.0,0.0,0.0,0.0,0.0,0.0,0.0,0.0,0.0,0.0,0.0,0.0,0.0,0.0,-0.4694,-0.4694,-0.4694,-0.4748,-0.4863,-0.5101,-0.5189,-0.5096,-0.5223,-0.525,-0.5223,-0.5413,-0.5399,-0.5243,-0.5801,-0.5705,-0.5243,-0.561,-0.5555,-0.5223,-0.5257,-0.5216,-0.5083,0.0,0.0,0.0,0.0,0.0,0.0,0.0,0.0,0.0,-0.5344,0.0,0.0,-0.602,-0.6067,-0.6311,-0.759,-0.8864,0.0,-1.2051,-1.3651,-1.4829,-1.4936,0.0,0.0,0.0,-2.0321,-2.0107,-1.9399,-2.0281,0.0,-2.0174,-2.0655,-2.1109,-2.1109,-2.1109,-2.1109,-2.1109,-2.1109,-2.1109,-2.1109,-2.1109,-2.1109,-2.1109,-2.1109,-2.1109,-2.1109,-2.1109,-2.1109,-2.1109,-2.1403,-2.1668,-2.1789,-2.2191,-2.2472,-2.2592,-2.2779,-2.2928,-2.2928,-2.2928,-2.2928,-2.2928,-2.2928,-2.2928,-2.2928,-2.2928,-2.2928,-2.2928,-2.2928,-2.2928,-2.2928,-2.2928,-2.2928,-2.2928,0.0,0.0,0.0,0.0,0.0,0.0,0.0,0.0,0.0,0.0,0.0,0.0,0.0,0.0,0.0,0.0,0.0,0.0,0.0,0.0,-0.4694,-0.4694,-0.4714,-0.4863,-0.511,-0.5277,-0.5277,-0.5117,-0.5117,-0.5209,-0.5358,-0.5399,-0.5399,-0.5385,-0.5603,-0.559,-0.5399,-0.544,-0.5426,-0.5358,-0.5176,-0.5069,-0.5029,-0.4796,0.0,0.0,0.0,0.0,0.0,0.0,0.0,0.0,-0.5351,-0.5863,-0.6293,-0.5692,-0.6071,-0.7139,-0.911,-0.9712,0.0,-1.5874,-1.5536,0.0,-1.7305,-1.7822,-1.8384,-2.0641,0.0,-2.1015,-2.1096,-2.1109,-2.1109,-2.1109,-2.1109,-2.1109,-2.1109,-2.1109,-2.1109,-2.1109,-2.1109,-2.1109,-2.1109,-2.1109,-2.1109,-2.1109,-2.1109,-2.1109,-2.1109,-2.1109,-2.1122,-2.1149,-2.1443,-2.1802,-2.2017,-2.2311,-2.2592,-2.2928,-2.2928,-2.2928,-2.2928,-2.2928,-2.2928,-2.2928,-2.2928,-2.2928,-2.2928,-2.2928,-2.2928,-2.2928,-2.2928,-2.2928,-2.2928,-2.2928,-2.2928,-2.2928,0.0,0.0,0.0,0.0,0.0,0.0,0.0,0.0,0.0,0.0,0.0,0.0,0.0,0.0,0.0,0.0,0.0,0.0,0.0,0.0,-0.4694,-0.4694,-0.4911,-0.5121,-0.5344,-0.5223,-0.5223,-0.5344,-0.5344,-0.5209,-0.502,-0.5372,-0.5413,-0.5209,-0.5956,-0.5979,-0.5419,-0.5739,-0.561,-0.5169,-0.4995,-0.4891,-0.4775,-0.4714,-0.4648,0.0,0.0,0.0,0.0,0.0,0.0,0.0,-0.5385,-0.5508,-0.574,-0.6254,-0.6634,-0.7425,-0.991,-1.0772,0.0,0.0,-1.5015,-1.6242,-1.9581,-1.9639,-1.9386,-2.0815,-2.0561,-2.0294,-2.0975,-2.1109,-2.1109,-2.1109,-2.1109,-2.1109,-2.1109,-2.1109,-2.1109,-2.1109,-2.1109,-2.1109,-2.1109,-2.1109,-2.1109,-2.1109,-2.1109,-2.1109,-2.1109,-2.1109,-2.1216,-2.1443,-2.1737,-2.2031,-2.2325,-2.2619,-2.2806,-2.2928,-2.2928,-2.2928,-2.2928,-2.2928,-2.2928,-2.2928,-2.2928,-2.2928,-2.2928,-2.2928,-2.2928,-2.2928,-2.2928,-2.2928,-2.2928,-2.2928,-2.2928,-2.2928,0.0,0.0,0.0,0.0,0.0,0.0,0.0,0.0,0.0,0.0,0.0,0.0,0.0,0.0,0.0,0.0,0.0,0.0,0.0,0.0,0.0,-0.4897,-0.5121,-0.5277,-0.5392,-0.5284,-0.5243,-0.525,-0.5358,-0.5317,-0.5135,-0.5405,-0.5393,-0.5264,-0.5806,-0.5829,-0.5405,-0.5528,-0.5386,-0.5076,-0.4897,-0.4809,-0.4796,-0.4721,-0.4687,-0.4694,-0.4769,0.0,0.0,0.0,0.0,0.0,0.0,0.0,-0.5965,-0.6118,-0.6532,-0.7389,-0.9696,0.0,0.0,-1.5867,0.0,-1.8691,-1.9987,-2.0241,-2.0374,-2.0989,-2.0748,-2.0561,-2.1029,-2.1109,-2.1109,-2.1109,-2.1109,-2.1109,-2.1109,-2.1109,-2.1109,-2.1109,-2.1109,-2.1109,-2.1109,-2.1109,-2.1109,-2.1109,-2.1109,-2.1109,-2.1109,-2.1243,-2.139,-2.1614,-2.1964,-2.2271,-2.2418,-2.2712,-2.2928,-2.2928,-2.2928,-2.2928,-2.2928,-2.2928,-2.2928,-2.2928,-2.2928,-2.2928,-2.2928,-2.2928,-2.2928,-2.2928,-2.2928,-2.2928,-2.2928,-2.2928,-2.2928,-2.2928,0.0,0.0,0.0,0.0,0.0,0.0,0.0,0.0,0.0,0.0,0.0,0.0,0.0,0.0,0.0,0.0,0.0,0.0,0.0,0.0,0.0,-0.513,-0.5324,-0.5392,-0.5392,-0.5365,-0.527,-0.5137,-0.527,-0.5419,-0.5549,-0.5549,-0.5549,-0.5556,-0.5685,-0.561,-0.5385,-0.5196,-0.5096,-0.5076,-0.4836,-0.4809,-0.4874,-0.4775,-0.4809,-0.4894,-0.4914,-0.5002,-0.5103,-0.513,0.0,0.0,0.0,0.0,-0.6231,-0.5759,-0.6247,-0.7304,-0.9209,0.0,-1.4548,-1.8407,-1.9754,0.0,-1.974,-2.0254,-2.0869,-2.1069,-2.1109,-2.1109,-2.1109,-2.1109,-2.1109,-2.1109,-2.1109,-2.1109,-2.1109,-2.1109,-2.1109,-2.1109,-2.1109,-2.1109,-2.1109,-2.1109,-2.1109,-2.1109,-2.1109,-2.1136,-2.1189,-2.1416,-2.1668,-2.1762,-2.2164,-2.2445,-2.2498,-2.2739,-2.2928,-2.2928,-2.2928,-2.2928,-2.2928,-2.2928,-2.2928,-2.2928,-2.2928,-2.2928,-2.2928,-2.2928,-2.2928,-2.2928,-2.2928,-2.2928,-2.2928,-2.2928,-2.2928,-2.2928,0.0,0.0,0.0,0.0,0.0,0.0,0.0,0.0,0.0,0.0,0.0,0.0,0.0,0.0,0.0,0.0,0.0,0.0,-0.4694,0.0,0.0,-0.5358,-0.5385,-0.5392,-0.5392,-0.523,-0.5216,-0.5365,-0.5216,-0.5501,-0.6177,-0.6177,-0.6177,-0.6177,-0.6197,-0.5904,-0.5385,-0.5196,-0.5096,-0.5083,-0.4921,-0.4874,-0.4887,-0.4867,-0.4874,-0.4908,-0.5029,-0.5083,-0.5117,-0.5284,-0.5378,0.0,0.0,0.0,-0.5576,-0.5718,-0.6322,-0.7332,0.0,0.0,-1.4114,0.0,-1.761,-1.6718,0.0,0.0,-1.9893,0.0,-2.1109,-2.1109,-2.1109,-2.1109,-2.1109,-2.1109,-2.1109,-2.1109,-2.1109,-2.1109,-2.1109,-2.1109,-2.1109,-2.1109,-2.1109,-2.1109,-2.1109,-2.1109,-2.1109,-2.1216,-2.1547,-2.1601,-2.1777,-2.2285,-2.2378,-2.2539,-2.2806,-2.2914,-2.2928,-2.2928,-2.2928,-2.2928,-2.2928,-2.2928,-2.2928,-2.2928,-2.2928,-2.2928,-2.2928,-2.2928,-2.2928,-2.2928,-2.2928,-2.2928,-2.2928,-2.2928,-2.2928,-2.2928,0.0,0.0,0.0,0.0,0.0,0.0,0.0,0.0,0.0,0.0,0.0,0.0,0.0,0.0,0.0,-0.3508,-0.3897,-0.4313,-0.4894,-0.5142,-0.5332,-0.5515,-0.544,-0.5433,-0.5521,-0.5338,-0.5324,-0.5392,-0.5324,-0.5772,-0.6756,-0.6756,-0.658,-0.632,-0.6736,-0.6354,-0.5412,-0.565,-0.5521,-0.5083,-0.4941,-0.502,-0.5155,-0.5074,-0.5142,-0.5291,-0.527,-0.5257,-0.527,-0.5371,-0.5392,-0.5392,-0.5392,0.0,0.0,0.0,-0.6098,-0.7017,-0.9862,-1.0979,-1.2284,0.0,-1.6389,-1.6114,-1.8951,-1.952,-1.9693,-2.0869,-2.1109,-2.1109,-2.1109,-2.1109,-2.1109,-2.1109,-2.1109,-2.1109,-2.1109,-2.1109,-2.1109,-2.1109,-2.1109,-2.1109,-2.1109,-2.1109,-2.1109,-2.1109,-2.1109,-2.1243,-2.1601,-2.171,-2.1991,-2.2405,-2.2579,-2.2726,-2.2928,-2.2928,-2.2928,-2.2928,-2.2928,-2.2928,-2.2928,-2.2928,-2.2928,-2.2928,-2.2928,-2.2928,-2.2928,-2.2928,-2.2928,-2.2928,-2.2928,-2.2928,-2.2928,-2.2928,-2.2928,-2.2928,0.0,0.0,0.0,0.0,0.0,0.0,0.0,0.0,0.0,0.0,0.0,0.0,0.0,0.0,0.0,0.0,-0.3851,-0.4327,-0.5137,-0.533,-0.5446,-0.5562,-0.5453,-0.5446,-0.5528,-0.5453,-0.5392,-0.5392,-0.5392,-0.5931,-0.6919,-0.7109,-0.6966,-0.6607,-0.7166,-0.688,-0.5986,-0.6286,-0.6023,-0.5467,-0.5399,-0.5393,-0.5446,-0.5332,-0.544,-0.5623,-0.5508,-0.5453,-0.5446,-0.5405,-0.5365,-0.5344,-0.5385,-0.5474,0.0,0.0,0.0,0.0,0.0,0.0,-1.0287,-1.4318,-1.4676,-1.4641,0.0,0.0,-1.8832,0.0,-2.0855,-2.1109,-2.1109,-2.1109,-2.1109,-2.1109,-2.1109,-2.1109,-2.1109,-2.1109,-2.1109,-2.1109,-2.1109,-2.1109,-2.1109,-2.1109,-2.1109,-2.1109,-2.1176,-2.1349,-2.1708,-2.1937,-2.2231,-2.2525,-2.2752,-2.2928,-2.2928,-2.2928,-2.2928,-2.2928,-2.2928,-2.2928,-2.2928,-2.2928,-2.2928,-2.2928,-2.2928,-2.2928,-2.2928,-2.2928,-2.2928,-2.2928,-2.2928,-2.2928,-2.2928,-2.2928,-2.2928,-2.2928,0.0,0.0,0.0,0.0,0.0,0.0,0.0,0.0,0.0,0.0,0.0,0.0,-0.2505,-0.307,-0.3554,-0.3762,-0.4559,-0.5111,-0.5371,-0.5392,-0.5399,-0.5405,-0.5399,0.0,-0.5405,-0.5399,-0.5392,-0.5392,-0.5392,-0.5719,-0.6361,-0.7071,-0.7392,-0.7357,-0.7398,-0.7414,-0.7448,-0.6905,-0.6573,-0.6457,-0.6552,-0.6193,-0.5589,-0.5718,-0.5779,-0.5772,-0.563,-0.5576,-0.5555,-0.5446,-0.5264,-0.5137,-0.5351,-0.5399,-0.5467,0.0,0.0,0.0,0.0,-0.8836,0.0,-1.276,-1.1717,0.0,0.0,0.0,-1.6405,-1.8559,-2.0147,-2.1109,-2.1109,-2.1109,-2.1109,-2.1109,-2.1109,-2.1109,-2.1109,-2.1109,-2.1109,-2.1109,-2.1109,-2.1109,-2.1109,-2.1109,-2.1109,-2.1109,-2.1376,-2.1722,-2.1951,-2.2231,-2.2539,-2.2832,-2.2928,-2.2928,-2.2928,-2.2928,-2.2928,-2.2928,-2.2928,-2.2928,-2.2928,-2.2928,-2.2928,-2.2928,-2.2928,-2.2928,-2.2928,-2.2928,-2.2928,-2.2928,-2.2928,-2.2928,-2.2928,-2.2928,-2.2928,-2.2928,0.0,0.0,0.0,0.0,0.0,0.0,0.0,0.0,0.0,0.0,0.0,0.0,0.0,-0.2827,-0.3271,-0.3872,-0.4852,-0.5406,-0.5399,-0.5487,-0.5542,-0.5542,-0.5446,-0.544,-0.5542,-0.5446,-0.5392,-0.5392,-0.5494,-0.5849,-0.6443,-0.677,-0.7149,-0.7556,-0.8425,-0.8085,-0.6926,-0.7672,-0.7129,-0.5883,-0.6871,-0.6654,-0.5772,-0.6213,-0.6437,-0.6444,-0.5813,0.0,-0.6115,-0.5576,0.0,0.0,0.0,0.0,0.0,0.0,0.0,0.0,0.0,0.0,0.0,-0.9762,-0.949,-0.9462,-1.278,-1.4579,-1.582,-1.6493,-1.9018,-2.0618,-1.9127,-2.0081,-2.1109,-2.1109,-2.1109,-2.1109,-2.1109,-2.1109,-2.1109,-2.1109,-2.1109,-2.1109,-2.1109,-2.1109,-2.1189,-2.1376,-2.069,-2.0762,-2.2191,-2.147,-2.1577,-2.2887,-2.2928,-2.2928,-2.2928,-2.2928,-2.2928,-2.2928,-2.2928,-2.2928,-2.2928,-2.2928,-2.2928,-2.2928,-2.2928,-2.2928,-2.2928,-2.2928,-2.2928,-2.2928,-2.2928,-2.2928,-2.2928,-2.2928,-2.2993,-2.3153,0.0,0.0,0.0,0.0,0.0,0.0,0.0,0.0,0.0,0.0,0.0,0.0,0.0,0.0,-0.3752,-0.4411,-0.5171,-0.5562,-0.5405,-0.5487,-0.5549,-0.5549,-0.5446,-0.544,-0.5542,-0.5446,-0.5419,-0.5474,-0.5542,-0.5813,-0.6254,-0.6559,-0.6912,-0.7346,-0.8445,-0.8296,-0.7292,-0.8343,-0.7896,-0.6559,-0.7407,-0.7265,-0.658,-0.6831,-0.6987,-0.7027,0.0,0.0,-0.6654,-0.6356,0.0,0.0,0.0,0.0,0.0,0.0,0.0,0.0,-0.6579,0.0,0.0,0.0,-0.7672,-0.8171,-1.0461,-1.2618,-1.4171,-1.4441,-1.7065,-1.9071,-1.8094,-1.9175,-2.0386,-2.0982,-2.1109,-2.1109,-2.1109,-2.1109,-2.1109,-2.1109,-2.1109,-2.1109,-2.1109,-2.1109,-2.1229,-2.1601,-2.0797,-2.0882,-2.2338,-2.159,-2.1657,-2.2887,-2.2928,-2.2928,-2.2928,-2.2928,-2.2928,-2.2928,-2.2928,-2.2928,-2.2928,-2.2928,-2.2928,-2.2928,-2.2928,-2.2928,-2.2928,-2.2928,-2.2928,-2.2928,-2.2928,-2.2928,-2.2873,-2.2979,-2.3153,-2.334,0.0,0.0,0.0,0.0,0.0,0.0,0.0,0.0,0.0,0.0,0.0,0.0,0.0,0.0,0.0,-0.5385,-0.5535,-0.5562,-0.5405,-0.5399,-0.5399,-0.5392,-0.5392,-0.5399,-0.5399,-0.5399,-0.5474,0.0,0.0,0.0,0.0,-0.6403,-0.6675,-0.6702,-0.7305,-0.7977,-0.8662,-0.8797,-0.8811,-0.8587,-0.819,-0.8002,-0.7894,-0.757,-0.7453,-0.7501,-0.8108,-0.7794,0.0,-0.7793,0.0,0.0,0.0,0.0,0.0,0.0,0.0,0.0,0.0,0.0,0.0,0.0,0.0,0.0,-0.7557,0.0,-1.1317,-1.2301,-1.4258,-1.6389,-1.8006,-1.8425,-1.9024,-2.0779,-2.1046,-2.1109,-2.1109,-2.1109,-2.1109,-2.1109,-2.1109,-2.1109,-2.1109,-2.1122,-2.1243,-2.1601,-2.179,-2.2084,-2.2418,-2.2712,-2.2928,-2.2928,-2.2928,-2.2928,-2.2928,-2.2928,-2.2928,-2.2928,-2.2928,-2.2928,-2.2928,-2.2928,-2.2928,-2.2928,-2.2928,-2.2928,-2.2928,-2.2928,-2.2928,-2.2928,-2.2941,-2.2873,-2.2913,-2.322,-2.334,-2.3394,0.0,0.0,0.0,0.0,0.0,0.0,0.0,0.0,0.0,0.0,0.0,0.0,-0.5065,-0.523,-0.5351,-0.5392,-0.5535,-0.5562,-0.5405,-0.5501,-0.5515,-0.5399,-0.5392,-0.5446,-0.5562,-0.5562,-0.5596,0.0,0.0,0.0,0.0,0.0,0.0,0.0,-0.6681,-0.7061,-0.7326,-0.8343,-0.7875,-0.6634,-0.8622,-0.8391,-0.6905,-0.8296,-0.8289,-0.7604,0.0,-0.814,-0.7963,0.0,-0.7537,-0.6869,0.0,0.0,0.0,0.0,0.0,0.0,-0.5827,0.0,0.0,0.0,0.0,0.0,0.0,0.0,-1.0285,-1.0096,-1.2743,-1.4891,-1.4192,-1.6484,-1.864,-1.9152,-2.0259,-2.1109,-2.1109,-2.1109,-2.1109,-2.1109,-2.1109,-2.1109,-2.1109,-2.1309,-2.155,0.0,-2.1149,-2.1309,-2.2672,-2.2819,-2.2928,-2.2928,-2.2928,-2.2928,-2.2928,-2.2928,-2.2928,-2.2928,-2.2928,-2.2928,-2.2928,-2.2928,-2.2928,-2.2928,-2.2928,-2.2928,-2.2928,-2.2928,-2.2928,-2.2954,-2.3113,-2.3193,-2.3233,-2.3541,-2.3781,-2.3968,0.0,0.0,0.0,0.0,0.0,0.0,0.0,0.0,0.0,0.0,0.0,0.0,-0.5216,-0.5365,-0.5467,-0.5399,-0.5535,-0.5562,-0.5405,-0.5542,-0.5549,-0.5494,-0.5549,-0.5589,-0.5677,-0.5677,-0.5752,0.0,0.0,0.0,0.0,0.0,0.0,0.0,0.0,-0.6234,-0.6315,-0.7475,-0.7624,-0.7255,-0.8703,-0.8791,-0.8183,-0.9103,-0.9042,-0.8513,-0.9089,0.0,-0.8866,-0.9083,-0.8506,0.0,0.0,0.0,0.0,0.0,0.0,0.0,0.0,0.0,0.0,0.0,0.0,0.0,-0.6912,-0.8268,-0.9292,-0.8916,-1.1129,-1.2917,-1.238,-1.4266,-1.6092,-1.6842,-1.8386,-1.9911,-2.0952,-2.1109,-2.1109,-2.1109,-2.1109,-2.1109,-2.1109,-2.1376,-2.1735,-2.1964,-2.1456,-2.1643,-2.2874,-2.2928,-2.2928,-2.2928,-2.2928,-2.2928,-2.2928,-2.2928,-2.2928,-2.2928,-2.2928,-2.2928,-2.2928,-2.2928,-2.2928,-2.2928,-2.2928,-2.2939,-2.306,-2.306,-2.306,-2.3086,-2.3394,-2.3514,-2.3554,-2.3848,-2.4062,-2.4222,0.0,0.0,0.0,0.0,0.0,0.0,0.0,0.0,0.0,0.0,0.0,-0.5209,-0.5378,-0.5515,0.0,0.0,-0.5542,-0.5542,-0.5453,-0.5569,-0.561,-0.561,-0.5732,-0.5813,-0.5827,-0.5813,0.0,0.0,0.0,0.0,0.0,0.0,0.0,0.0,0.0,0.0,-0.5691,-0.6491,-0.7658,-0.9002,-0.8606,-0.9157,-1.0256,-0.9876,-0.9652,-0.9639,-1.0432,-1.0249,-0.9734,-1.0378,-0.97,0.0,0.0,0.0,0.0,0.0,-0.6105,0.0,0.0,0.0,0.0,0.0,-0.5915,0.0,-0.5973,-0.7149,-0.8228,-0.8296,-0.9367,-1.0551,-1.157,-1.19,-1.2533,-1.41,-1.5818,-1.7795,-2.0208,-2.0876,-2.1042,-2.0882,-2.1015,-2.1122,-2.1149,-2.143,-2.1789,-2.2004,-2.2298,-2.2579,-2.2846,-2.2928,-2.2928,-2.2928,-2.2928,-2.2928,-2.2928,-2.2928,-2.2928,-2.2928,-2.2928,-2.2928,-2.2928,-2.2928,-2.2928,-2.2928,-2.2899,-2.3073,-2.3327,-2.3394,-2.3407,-2.3407,-2.3701,-2.3821,-2.3848,-2.4142,-2.4249,-2.4289,-0.4532,0.0,0.0,0.0,0.0,0.0,0.0,0.0,0.0,0.0,-0.5351,-0.5358,-0.5392,-0.5419,0.0,0.0,-0.5569,-0.5623,-0.5711,-0.5745,-0.5759,-0.5759,-0.5786,-0.5861,-0.5946,-0.5867,0.0,0.0,0.0,0.0,0.0,0.0,0.0,0.0,0.0,0.0,0.0,-0.6094,-0.6865,-0.7977,-0.8825,-0.9123,-0.9164,-1.0134,-0.991,-0.9154,-1.0324,-1.0317,-0.9781,-0.9815,-0.9551,-0.8988,0.0,0.0,0.0,-0.5996,0.0,0.0,0.0,0.0,0.0,0.0,-0.5915,0.0,-0.5874,-0.6186,-0.6647,-0.7129,-0.7422,-0.7904,-0.8663,-0.9965,-1.1081,-1.1554,-1.3131,-1.493,-1.6994,-1.9491,-2.0668,-1.9492,-2.0388,-2.1203,-2.1507,-2.1724,-2.2017,-2.2311,-2.2605,-2.2806,-2.2928,-2.2928,-2.2928,-2.2928,-2.2928,-2.2928,-2.2928,-2.2928,-2.2928,-2.2928,-2.2928,-2.2928,-2.2928,-2.2928,-2.2928,-2.2873,-2.3126,-2.3273,-2.3367,-2.3834,-2.3901,-2.3714,-2.4008,-2.4115,-2.4155,-2.4449,-2.4556,-2.4556,-0.4674,0.0,0.0,0.0,0.0,0.0,0.0,0.0,0.0,0.0,-0.5379,-0.5508,-0.5508,-0.5576,-0.561,0.0,0.0,0.0,0.0,-0.5874,-0.5915,-0.5915,-0.5915,-0.5912,-0.5993,-0.5881,-0.584,0.0,0.0,0.0,0.0,0.0,0.0,0.0,0.0,0.0,0.0,-0.6146,-0.6661,-0.757,-0.854,-0.9062,-0.9374,-1.0351,-1.0351,-0.9903,-1.0507,-1.0527,-1.0215,-0.9842,-0.9618,0.0,-0.8608,-0.7807,-0.7034,0.0,-0.5989,-0.5664,0.0,0.0,0.0,-0.5597,0.0,0.0,0.0,-0.6105,-0.6525,-0.6822,-0.7179,-0.7435,-0.7442,-0.8168,-0.879,-0.8877,-1.0399,-1.1779,-1.2302,-1.6342,-1.946,-1.9953,-2.0788,-2.139,-2.1601,-2.1951,-2.2325,-2.2619,-2.2779,-2.2928,-2.2928,-2.2928,-2.2928,-2.2928,-2.2928,-2.2928,-2.2928,-2.2928,-2.2928,-2.2928,-2.2928,-2.2928,-2.2928,-2.2928,-2.2953,-2.31,-2.326,-2.35,-2.3781,-2.4088,-2.4209,-2.4222,-2.4369,-2.4422,-2.4436,-2.4583,-2.4636,-2.4636,-0.4867,0.0,0.0,0.0,0.0,0.0,0.0,0.0,0.0,-0.5224,-0.5501,-0.5705,-0.5793,-0.5854,-0.5935,0.0,0.0,0.0,0.0,-0.6084,-0.6101,-0.5952,-0.5946,-0.5959,-0.5993,-0.5881,-0.5813,0.0,0.0,0.0,0.0,0.0,0.0,0.0,0.0,0.0,0.0,-0.6545,-0.6989,-0.7692,-0.8411,-0.9049,-0.9646,-1.0426,-1.0629,-1.0527,-1.067,-1.0717,-1.0622,-0.9992,-0.9686,-0.9544,-0.9429,-0.8445,0.0,0.0,0.0,0.0,0.0,0.0,0.0,0.0,0.0,-0.5616,0.0,0.0,0.0,-0.6634,-0.7109,-0.7294,-0.6736,0.0,0.0,-0.6701,0.0,0.0,0.0,-1.2837,0.0,-1.8861,-1.9902,-2.0447,-2.0509,-2.1472,-2.2298,-2.2887,-2.2928,-2.2928,-2.2928,-2.2928,-2.2928,-2.2928,-2.2928,-2.2722,-2.2366,-2.2722,-2.2722,-2.2366,-2.2722,-2.2928,-2.2928,-2.2926,-2.3086,-2.334,-2.3447,-2.3768,-2.4209,-2.4262,-2.4422,-2.4636,-2.4636,-2.4636,-2.4636,-2.4636,-2.4636,-2.4636,-0.4887,-0.4901,0.0,0.0,0.0,0.0,0.0,0.0,0.0,-0.5705,-0.5874,-0.6094,-0.6532,-0.6395,-0.6417,-0.6903,0.0,0.0,-0.6279,-0.6593,-0.6485,-0.5854,-0.5827,-0.5888,-0.5986,-0.5881,-0.5867,-0.5966,0.0,0.0,0.0,0.0,0.0,0.0,-0.6302,0.0,0.0,-0.7394,-0.7875,-0.8615,-0.9232,-0.9144,-0.8784,-1.0188,-1.031,-0.9822,-1.0487,-1.0717,-1.0609,0.0,-0.953,-0.9313,0.0,-0.7943,-0.7092,-0.693,0.0,0.0,0.0,0.0,0.0,0.0,-0.5603,0.0,-0.5481,0.0,-0.5705,-0.5603,0.0,-0.5672,-0.559,0.0,0.0,0.0,0.0,0.0,-0.948,-1.0137,-1.0831,-1.2026,-1.4491,-1.6242,-1.6521,-1.9188,-2.143,-2.2834,-2.2928,-2.2928,-2.2928,-2.2928,-2.2928,-2.2928,-2.2928,-2.2091,-2.0409,-2.2091,-2.2091,-2.0409,-2.2091,-2.2928,-2.2941,-2.3153,-2.33,-2.3354,-2.3875,-2.4142,-2.4222,-2.4476,-2.4609,-2.4636,-2.4636,-2.4636,-2.4636,-2.4636,-2.4636,-2.4636,-0.5029,-0.5009,0.0,0.0,0.0,0.0,0.0,0.0,0.0,-0.5793,-0.5935,-0.6195,-0.6776,-0.6797,-0.7014,-0.7564,-0.7617,-0.7597,-0.748,0.0,0.0,-0.6722,-0.6213,-0.5925,-0.5993,-0.5881,-0.5833,-0.5895,-0.5922,0.0,0.0,0.0,0.0,0.0,-0.6417,0.0,-0.7509,-0.757,-0.7977,-0.8608,-0.8947,-0.8845,-0.8648,-1.0148,-1.0527,-1.0249,-1.0215,-1.0426,-1.0568,0.0,-0.9639,0.0,0.0,0.0,0.0,-0.7746,0.0,0.0,0.0,0.0,0.0,0.0,0.0,0.0,-0.6166,0.0,-0.5474,0.0,0.0,0.0,0.0,0.0,0.0,0.0,-0.561,0.0,0.0,0.0,-0.9237,-1.1946,0.0,0.0,-1.7301,-1.795,-1.9218,-2.147,-1.9921,-1.9637,-2.1512,-2.1369,-2.1734,-2.2859,-2.2928,-2.2022,-2.012,-2.0894,-2.0328,-1.8449,-2.034,-2.0759,-1.9853,-2.2186,-2.2865,-2.2159,-2.3569,-2.4302,-2.4462,-2.4583,-2.4636,-2.4636,-2.4636,-2.4636,-2.4636,-2.4636,-2.4636,-2.4636,-0.5216,0.0,0.0,0.0,0.0,0.0,-0.5705,-0.5935,-0.6125,-0.6159,-0.6222,-0.6539,-0.7224,-0.7129,-0.7301,-0.8103,-0.817,-0.8255,-0.8323,-0.774,-0.7388,-0.755,-0.6532,-0.6047,-0.6289,-0.6023,-0.5881,-0.5928,0.0,0.0,0.0,0.0,0.0,0.0,0.0,-0.6892,-0.7611,-0.7821,-0.8269,-0.8872,-0.915,-0.9198,-0.9191,-1.008,-1.0541,-1.0663,-1.0222,-1.0351,-1.0555,-0.9483,-0.9673,0.0,-0.9252,-0.871,-0.8445,0.0,0.0,0.0,-0.7085,0.0,0.0,0.0,0.0,0.0,0.0,0.0,0.0,0.0,0.0,0.0,0.0,0.0,0.0,0.0,0.0,-0.5549,0.0,-0.6283,0.0,0.0,0.0,0.0,0.0,-1.6004,-1.6799,-1.9363,-1.7288,-1.7112,-1.9773,-1.9559,-2.019,-2.2091,-2.216,-2.1252,-1.9356,-1.9843,-1.8857,-1.6474,-1.8433,-1.8693,-1.7653,-2.1101,-2.2181,-2.1299,-2.3387,-2.4436,-2.4636,-2.4636,-2.4636,-2.4636,-2.4636,-2.4636,-2.4636,-2.4636,-2.4636,-2.4636,-0.5385,-0.5508,0.0,0.0,0.0,-0.5847,-0.5952,-0.6472,-0.6896,-0.7038,-0.7058,-0.7394,-0.8147,-0.7319,-0.7244,-0.8574,-0.8689,-0.8628,-0.8486,-0.818,-0.7961,0.0,0.0,-0.6213,0.0,-0.635,-0.6098,-0.6286,0.0,0.0,0.0,0.0,0.0,0.0,-0.645,-0.6892,-0.7645,-0.837,-0.9103,-0.9829,-1.0419,-1.0656,-1.0575,-0.9903,-1.0093,-1.0717,-1.0697,0.0,0.0,-0.9842,-0.9517,0.0,0.0,0.0,0.0,0.0,0.0,0.0,0.0,0.0,0.0,-0.6959,0.0,0.0,0.0,0.0,-0.5392,0.0,0.0,0.0,0.0,0.0,0.0,0.0,0.0,0.0,0.0,0.0,0.0,0.0,0.0,0.0,0.0,-1.2651,-1.4558,-1.6509,-1.6157,-1.649,-1.7936,-1.7531,-1.8159,-2.0132,-2.019,-1.9286,-1.7318,-1.9147,-1.8229,-1.4503,-1.6606,-1.7561,-1.7592,-2.0156,-2.1275,-2.1311,-2.3593,-2.4549,-2.4636,-2.4636,-2.4636,-2.4636,-2.4636,-2.4636,-2.4636,-2.4636,-2.4636,-2.4636,0.0,0.0,0.0,0.0,-0.5596,-0.5711,-0.5854,-0.6101,-0.6451,-0.6896,-0.717,-0.7692,-0.8791,-0.8628,-0.8696,-0.9259,-0.9578,-0.9639,-0.9381,-0.9089,-0.8974,-0.9076,-0.8113,-0.7489,0.0,0.0,0.0,0.0,0.0,0.0,0.0,0.0,0.0,0.0,0.0,-0.6892,0.0,0.0,0.0,0.0,-1.0046,-1.0127,-1.0141,-1.029,-1.05,-1.0717,-1.0717,-1.0717,0.0,-0.9971,-0.9978,-1.0209,-0.9856,-0.9476,-0.9306,-1.0046,-0.9388,-0.8506,0.0,0.0,-0.9069,-0.8716,0.0,0.0,0.0,0.0,0.0,0.0,0.0,0.0,0.0,0.0,0.0,0.0,0.0,0.0,0.0,0.0,-0.5881,0.0,0.0,0.0,0.0,0.0,-1.1216,-1.3707,-1.1906,-1.1819,-1.4407,-1.4589,-1.5497,-1.7391,-1.7959,-1.7248,-1.5345,-1.5981,-1.5132,-1.2685,-1.4677,-1.5065,-1.4207,-1.7585,-1.8543,-1.7558,-1.9672,-2.0617,-2.0617,-2.0617,-2.0617,-2.0617,-2.0617,-2.0617,-2.0916,-2.3648,-2.4636,-2.4636,-0.5672,0.0,0.0,-0.5549,-0.5644,-0.5867,-0.622,-0.6458,-0.6878,-0.7692,-0.778,-0.8211,-0.9205,-0.9164,-0.9232,-0.9646,-0.9802,-0.9951,-1.0127,-0.9415,-0.9293,-0.9971,-0.8872,-0.8221,0.0,0.0,0.0,0.0,0.0,-0.6436,0.0,0.0,0.0,0.0,0.0,-0.6729,-0.7339,-0.8248,-0.8967,0.0,0.0,-0.9951,0.0,0.0,-1.0534,-1.0717,0.0,-1.0717,-1.0663,-1.027,-1.0399,-1.0656,-1.0263,-1.008,-1.01,-1.0582,-1.0032,-0.9381,-0.9869,-1.0005,0.0,-0.9605,-0.9096,0.0,-0.8083,0.0,-0.6519,0.0,0.0,0.0,0.0,0.0,0.0,0.0,0.0,0.0,0.0,-0.5932,0.0,0.0,0.0,0.0,0.0,-0.843,-0.8955,-1.0964,-0.914,-0.9072,-1.1644,-1.209,-1.3174,-1.5008,-1.5846,-1.5628,-1.4432,-1.45,-1.3594,-1.183,-1.3184,-1.3282,-1.2443,-1.5705,-1.6557,-1.5616,-1.7739,-1.8572,-1.8572,-1.8572,-1.8572,-1.8572,-1.8572,-1.8572,-1.8874,-2.1527,-2.2893,-2.35,-0.5562,-0.5419,-0.5508,-0.5752,-0.5956,-0.6276,-0.6977,-0.7414,-0.8045,-0.9184,-0.8872,-0.8811,-0.9544,-0.9008,-0.892,-0.9727,-0.9429,-0.9612,-1.0588,-0.9211,-0.9062,0.0,-0.8947,-0.8472,-0.9585,0.0,0.0,0.0,0.0,0.0,0.0,0.0,0.0,0.0,-0.63,0.0,-0.6776,-0.7977,-0.8676,-0.8972,-0.9564,-1.0141,-1.0616,-1.0039,-1.0195,-1.0717,-1.0717,-1.0717,-1.0717,-1.0717,-1.0717,-1.0717,-1.0717,-1.0717,-1.0717,-1.0717,-1.0717,-1.0717,-1.0717,-1.0717,-1.0514,-0.9659,-0.9429,0.0,0.0,0.0,-0.834,0.0,0.0,0.0,0.0,0.0,0.0,0.0,0.0,0.0,0.0,0.0,-0.6098,0.0,-0.7014,0.0,-0.6381,-0.7041,-0.775,-0.8279,-0.7974,-0.8384,0.0,-1.0184,-1.1234,-1.311,-1.3789,-1.4198,-1.4298,-1.4441,-1.3608,-1.1857,-1.2149,-1.2291,-1.2381,-1.4404,-1.5387,-1.5463,-1.7436,-1.827,-1.827,-1.827,-1.827,-1.827,-1.827,-1.827,-1.8345,-1.8497,-1.9854,-2.1601,-0.5813,-0.5691,-0.5711,-0.5786,-0.6295,-0.6721,-0.691,-0.7617,-0.8248,-0.8655,-0.9069,-0.9435,-0.9734,-0.9992,-0.9971,-0.953,-0.9753,-0.9855,-0.9727,-0.9639,0.0,-1.0683,-1.0243,-0.9863,-0.9612,-0.9232,-0.8852,-0.8479,0.0,0.0,-0.7398,0.0,0.0,0.0,0.0,-0.6463,-0.6776,-0.7977,-0.8913,-0.9571,-0.9222,-0.9523,-1.0032,0.0,-1.0195,-1.0717,-1.0717,-1.0717,-1.0717,-1.0717,-1.0717,-1.0717,-1.0717,-1.0717,-1.0717,-1.0717,-1.0717,-1.0717,-1.0717,-1.0717,-1.0663,-1.0432,-1.0039,-0.9618,0.0,0.0,0.0,0.0,0.0,0.0,0.0,0.0,0.0,0.0,0.0,0.0,0.0,0.0,0.0,-0.6293,-0.6504,-0.6552,-0.632,-0.6607,-0.6819,-0.6976,-0.6979,-0.7448,-0.845,-0.8615,-0.9453,-1.1156,-1.0885,-1.1243,-1.2482,-1.1949,-1.1882,-1.2176,-1.225,-1.2345,-1.2447,-1.3014,-1.3259,-1.3259,-1.3791,-1.4099,-1.4099,-1.4099,-1.4099,-1.4099,-1.4099,-1.4099,-1.4399,-1.7512,-1.9854,-2.1601,-0.5935,-0.5854,-0.5901,-0.5901,-0.6851,-0.759,-0.7522,-0.8113,-0.8777,-0.9381,-0.9659,-0.991,-1.0181,-1.0521,-1.0521,-1.0012,-0.9842,-0.9822,-0.9958,-0.9652,0.0,-1.0683,-1.0534,-1.0202,-0.9713,-0.9639,0.0,-0.9069,0.0,0.0,-0.7883,0.0,0.0,0.0,0.0,-0.6429,-0.6688,-0.8018,-0.9028,-0.9707,-0.9435,-0.968,0.0,-0.9924,-1.0195,-1.0717,-1.0717,-1.0717,-1.0717,-1.0717,-1.0717,-1.0717,-1.0717,-1.0717,-1.0717,-1.0717,-1.0717,-1.0731,-1.0799,-1.0819,-1.0833,-1.09,-1.0656,-1.0385,-1.0304,-1.008,-0.9856,0.0,-0.9808,-0.9754,0.0,0.0,0.0,0.0,0.0,0.0,0.0,0.0,0.0,0.0,-0.6648,-0.6736,-0.634,-0.6375,-0.6443,-0.6504,-0.6552,-0.6878,0.0,-0.8174,-0.8832,-0.9496,-0.9747,-1.0188,-1.0853,-1.0507,-1.0819,-1.1796,-1.1864,-1.2108,-1.2501,-1.2501,-1.2501,-1.2501,-1.2501,-1.2501,-1.2501,-1.2501,-1.2501,-1.2501,-1.2501,-1.2501,-1.2811,-1.5089,-1.7208,-1.895,-0.6003,-0.5969,-0.6054,-0.6148,-0.7421,-0.8404,-0.8438,-0.8859,-0.9465,-1.0507,-1.028,-1.0199,-1.0595,-1.0683,-1.0697,-1.0636,-0.9917,-0.9802,-1.0582,-0.9537,-0.9435,-1.067,-1.028,-1.0011,-0.9937,-0.9815,-0.9815,0.0,0.0,0.0,0.0,0.0,0.0,0.0,0.0,0.0,0.0,-0.8065,-0.8994,-0.9646,-0.9774,-1.0134,-1.0555,-1.0107,-1.0263,-1.0717,-1.0717,-1.0717,-1.0717,-1.0717,-1.0717,-1.0717,-1.0717,-1.0717,-1.0724,-1.0744,-1.0751,-1.0785,-1.0867,-1.0907,-1.1009,-1.1131,-1.1179,-1.1261,-1.1261,-1.1307,-1.1423,-1.1423,-1.1525,-1.1416,-1.0758,0.0,0.0,0.0,0.0,0.0,0.0,0.0,0.0,0.0,0.0,0.0,-0.6388,-0.63,-0.6354,-0.6477,-0.6484,0.0,0.0,0.0,-0.8757,-0.8477,-0.9591,-1.0086,-0.9788,-0.9829,-1.0351,-1.1341,-1.1375,-1.1782,-1.2501,-1.2501,-1.2501,-1.2501,-1.2501,-1.2501,-1.2501,-1.2501,-1.2501,-1.2501,-1.2501,-1.2501,-1.2501,-1.2501,-1.366,-1.519,-0.634,-0.6238,-0.6457,-0.7027,-0.7577,-0.8255,-0.9225,-0.9964,-1.0351,-1.0125,-1.0419,-1.0493,-1.0139,-1.05,-1.0568,-1.0202,-1.0025,-0.9936,-1.0092,-0.9883,0.0,-1.069,-1.0643,-1.0588,-1.0561,-1.0541,-1.0541,0.0,0.0,0.0,0.0,0.0,0.0,0.0,0.0,0.0,-0.8119,-0.8011,0.0,-0.9788,-0.9808,-0.9883,-1.0019,-1.0412,-1.0629,-1.0717,-1.0717,-1.0717,-1.0717,-1.0717,-1.0717,-1.0717,-1.0717,-1.0717,-1.0744,-1.0806,-1.084,-1.0941,-1.1084,-1.1124,-1.1131,-1.1158,-1.126,-1.1348,-1.1348,-1.147,-1.1579,-1.1579,-1.1599,-1.1579,-1.145,0.0,0.0,0.0,0.0,0.0,0.0,0.0,0.0,0.0,0.0,-0.7244,-0.6388,-0.63,-0.6313,-0.6334,-0.6334,0.0,0.0,0.0,-0.776,0.0,-0.896,-0.9442,0.0,0.0,-1.0772,-1.2257,-1.1674,-1.1782,-1.2501,-1.2501,-1.2501,-1.2501,-1.2501,-1.2501,-1.2501,-1.2501,-1.2501,-1.2501,-1.2501,-1.2501,-1.2501,-1.2501,-1.2809,-1.3447,-0.6934,-0.6566,-0.6463,-0.6932,-0.7651,-0.8411,-0.915,-1.0093,-1.0643,-1.0361,-1.0588,-1.0636,-1.0419,-1.0588,-1.0636,-1.0419,-1.0181,-1.0148,-1.0378,-1.0118,-1.0186,-1.0704,-1.0717,-1.0575,-1.0263,-1.0561,-1.0568,-1.0256,0.0,0.0,0.0,0.0,0.0,0.0,0.0,-0.7282,0.0,0.0,-0.9117,-0.9747,-1.0134,-1.029,-1.0317,-1.0609,-1.0717,-1.0717,-1.0717,-1.0772,-1.0759,-1.0744,-1.0772,-1.0772,-1.0772,-1.0887,-1.0962,-1.1036,-1.1056,-1.109,-1.124,-1.128,-1.1301,-1.1382,-1.1457,-1.1511,-1.1511,-1.1565,-1.1619,-1.1619,-1.1619,-1.1477,-1.1009,-1.0276,0.0,0.0,0.0,0.0,0.0,0.0,-0.774,0.0,0.0,0.0,0.0,-0.6953,0.0,0.0,0.0,0.0,0.0,0.0,-0.778,0.0,0.0,0.0,-1.0408,0.0,-1.0683,-1.1925,-1.1565,-1.1782,-1.2501,-1.2501,-1.2501,-1.2501,-1.2501,-1.2501,-1.2501,-1.2501,-1.2501,-1.2508,-1.2589,-1.2617,-1.263,-1.2712,-1.2786,-1.2986,-0.7658,-0.718,-0.69,-0.7251,-0.8018,-0.8743,-0.9188,-0.997,-1.0616,-1.0711,-1.0717,-1.0717,-1.0717,-1.0717,-1.0683,-1.0588,-1.0344,-1.0249,-1.0378,-1.0263,-1.0226,-1.0521,-1.0649,-1.05,-1.0019,-1.048,-1.0487,0.0,0.0,0.0,0.0,0.0,0.0,0.0,0.0,0.0,0.0,0.0,-0.97,-0.9897,-1.0487,-1.0717,-1.0717,-1.0717,-1.0744,-1.0772,-1.0772,-1.0867,-1.0975,-1.0853,-1.0894,-1.0927,-1.0927,-1.107,-1.1241,-1.1199,-1.1212,-1.1246,-1.1396,-1.1443,-1.147,-1.1592,-1.1619,-1.1619,-1.1619,-1.1619,-1.1619,-1.1619,-1.1619,-1.1402,-1.0697,-1.0432,0.0,0.0,0.0,0.0,0.0,0.0,0.0,0.0,0.0,0.0,-0.7726,-0.7475,0.0,0.0,0.0,0.0,-0.7045,0.0,0.0,0.0,0.0,-0.9571,-0.9936,0.0,-1.0616,-1.1626,-1.1463,-1.1782,-1.2501,-1.2501,-1.2501,-1.2501,-1.2501,-1.2501,-1.2501,-1.2501,-1.2522,-1.2562,-1.2684,-1.2752,-1.2793,-1.2915,-1.2983,-1.299,-0.8377,-0.8323,-0.8499,-0.9211,-0.9089,-0.9215,-1.0385,-1.0304,-1.0193,-1.067,-1.0717,-1.0717,-1.0717,-1.0717,-1.0555,-1.0085,-1.0446,-1.027,-0.9419,-1.0154,-1.0432,-0.9924,-1.0432,-1.069,-1.0636,-1.069,-1.069,0.0,0.0,-0.915,0.0,0.0,0.0,0.0,0.0,0.0,0.0,-0.9551,-0.9998,-1.0622,-1.069,-1.0717,-1.0717,-1.0717,-1.0806,-1.086,-1.086,-1.1023,-1.1138,-1.1193,-1.1131,-1.1145,-1.1145,-1.1151,-1.1192,-1.1328,-1.1369,-1.1402,-1.1558,-1.1599,-1.1599,-1.1613,-1.1619,-1.1619,-1.1619,-1.1619,-1.1619,-1.1619,-1.1619,-1.1592,-1.1511,-1.0934,-1.0222,0.0,0.0,0.0,0.0,0.0,-0.8194,-0.7988,0.0,0.0,-0.7814,-0.7054,-0.6607,0.0,-0.6539,0.0,0.0,0.0,0.0,-0.8306,-0.8486,-0.8988,-0.9836,-1.012,-1.0975,-1.2386,-1.1714,-1.1782,-1.2501,-1.2501,-1.2501,-1.2501,-1.2501,-1.2501,-1.2501,-1.2501,-1.2583,-1.2712,-1.2725,-1.2813,-1.2942,-1.2956,-1.3044,-1.3152,-0.9157,-0.8791,-0.8635,-0.9123,-0.9279,-0.9564,-1.0152,-1.0327,-1.0514,-1.0697,-1.0717,-1.0717,-1.0717,-1.0717,-1.0649,-1.0466,-1.0616,-1.0541,-1.012,-1.0487,-1.0616,-1.0371,-1.0588,-1.0717,-1.0717,-1.0717,-1.0717,0.0,0.0,0.0,0.0,0.0,0.0,0.0,0.0,-0.9327,-0.9639,-1.0086,-1.0446,-1.0717,-1.0717,-1.0772,-1.0793,-1.0793,-1.0948,-1.1077,-1.1077,-1.1172,-1.1301,-1.1301,-1.1301,-1.1301,-1.1301,-1.1362,-1.145,-1.1511,-1.1531,-1.1545,-1.1606,-1.1619,-1.1619,-1.1619,-1.1619,-1.1619,-1.1619,-1.1619,-1.1619,-1.1619,-1.1619,-1.1619,-1.1619,-1.1375,-1.0921,-1.0168,0.0,0.0,0.0,0.0,0.0,-0.9462,0.0,-0.896,-0.9266,-0.8072,-0.7265,0.0,0.0,0.0,0.0,0.0,0.0,-0.9042,0.0,-1.0066,-1.1416,-1.1111,-1.147,-1.2501,-1.2203,-1.2216,-1.2501,-1.2501,-1.2501,-1.2501,-1.2501,-1.2556,-1.2637,-1.2637,-1.2732,-1.2874,-1.2963,-1.303,-1.3098,-1.3193,-1.3261,-1.3308,-0.9937,-0.9503,-0.9205,-0.937,-0.9727,-0.9944,-0.9916,-1.0341,-1.0656,-1.048,-1.0609,-1.0717,-1.0717,-1.0717,-1.067,-1.0534,-1.0643,-1.0588,-1.0283,-1.0548,-1.0643,-1.046,-1.0622,0.0,-1.0717,-1.0717,-1.0717,-1.0717,-0.9659,0.0,0.0,0.0,0.0,0.0,-0.9598,-0.9937,-0.9971,-1.0548,-1.0785,-1.0792,-1.0833,-1.0914,-1.1009,-1.1009,-1.1104,-1.1226,-1.1226,-1.1328,-1.1457,-1.1457,-1.1457,-1.1457,-1.1457,-1.1531,-1.1619,-1.1619,-1.1619,-1.1619,-1.1619,-1.1619,-1.1619,-1.1619,-1.1619,-1.1619,-1.1619,-1.1619,-1.1619,-1.1619,-1.1619,-1.1619,-1.1619,-1.1619,-1.1375,-1.0616,0.0,0.0,0.0,-0.9381,0.0,-1.01,-0.951,-0.9327,-1.0019,-0.8784,-0.7923,-0.7862,0.0,0.0,0.0,0.0,0.0,0.0,0.0,0.0,-1.1762,-1.1307,-1.1545,-1.2501,-1.2501,-1.2501,-1.2501,-1.2501,-1.2501,-1.2501,-1.2549,-1.263,-1.2732,-1.2779,-1.2888,-1.303,-1.3132,-1.32,-1.3254,-1.3363,-1.3403,-1.3403,-1.0704,-1.0697,-1.069,-1.0697,-1.0704,-1.0507,-0.9917,-1.0331,-1.0507,-0.991,-1.0351,-1.0717,-1.0717,-1.0717,-1.0541,-1.0038,-1.0402,-1.0283,-0.9296,-1.0148,-1.0453,0.0,-1.0405,-1.0717,-1.0717,-1.0717,-1.0717,-1.0717,0.0,0.0,-0.9598,0.0,-0.9585,-0.9632,-1.0371,-1.0704,-1.0717,-1.0813,-1.088,-1.0887,-1.1097,-1.1158,-1.1227,-1.1227,-1.1253,-1.1389,-1.1389,-1.1484,-1.1613,-1.1613,-1.1613,-1.1613,-1.1613,-1.1619,-1.1619,-1.1619,-1.1619,-1.1619,-1.1619,-1.1619,-1.1619,-1.1619,-1.1619,-1.1619,-1.1619,-1.1619,-1.1619,-1.1619,-1.1619,-1.1619,-1.1619,-1.1619,-1.1375,-1.0616,0.0,0.0,0.0,-0.9381,0.0,-0.9395,-0.8737,-0.8635,-0.953,-0.8798,0.0,-0.8459,-0.833,0.0,0.0,0.0,0.0,-0.8689,-0.8011,0.0,-1.0128,-1.0222,-1.1036,-1.2501,-1.2501,-1.2501,-1.2501,-1.2501,-1.2501,-1.2508,-1.2664,-1.2725,-1.2745,-1.2895,-1.3044,-1.3173,-1.3173,-1.3268,-1.3397,-1.3403,-1.3403,-1.3403,-0.9525,-1.0161,-1.0588,-1.0181,-1.0446,-1.0656,-1.046,-1.0595,-1.0649,-1.046,-1.0602,-1.0717,-1.0717,-1.0717,-1.0663,-1.0521,-1.0263,-1.0141,-1.0215,-1.0148,-1.0202,-1.0426,-1.0222,-1.0107,-1.0107,-1.0107,-1.0107,-1.0107,0.0,0.0,-0.9612,-0.9612,-0.9883,-1.0378,-1.0658,-1.0806,-1.082,-1.1029,-1.1097,-1.1097,-1.1145,-1.1226,-1.1321,-1.1321,-1.1416,-1.1545,-1.1545,-1.1579,-1.1619,-1.1619,-1.1619,-1.1619,-1.1619,-1.1619,-1.1619,-1.1619,-1.1619,-1.1619,-1.1619,-1.1619,-1.1619,-1.1619,-1.1619,-1.1619,-1.1619,-1.1619,-1.1619,-1.1619,-1.1619,-1.1619,-1.1619,-1.1619,-1.1375,-1.0616,-1.0921,0.0,-1.0243,0.0,-1.0297,-1.0297,-0.972,-0.9646,-1.0381,-0.9707,0.0,0.0,-0.8581,0.0,0.0,0.0,0.0,0.0,-1.0202,0.0,-1.1714,-1.1267,-1.1531,-1.2501,-1.2501,-1.2501,-1.2508,-1.261,-1.2657,-1.2664,-1.282,-1.2942,-1.3037,-1.3085,-1.3193,-1.3329,-1.3329,-1.3356,-1.3403,-1.3403,-1.3403,-1.3403,-0.968,-1.0209,-1.0602,-1.0222,-1.0466,-1.0643,-1.0419,-1.0575,-1.0636,-1.0412,-1.0582,-1.0717,-1.0717,-1.0717,-1.0717,-1.0717,-1.0378,-1.0317,-1.0697,-1.0365,-1.0324,-1.0704,-1.0358,-1.0161,-1.0161,-1.0161,-1.0161,-1.0161,-1.0066,-1.0053,-1.0114,-1.0114,-1.0392,-1.0887,-1.0989,-1.1029,-1.1036,-1.1185,-1.1246,-1.1253,-1.1307,-1.1389,-1.1477,-1.1477,-1.1538,-1.1619,-1.1619,-1.1619,-1.1619,-1.1619,-1.1619,-1.1619,-1.1619,-1.1619,-1.1619,-1.1619,-1.1619,-1.1619,-1.1619,-1.1619,-1.1619,-1.1619,-1.1619,-1.1619,-1.1619,-1.1619,-1.1619,-1.1619,-1.1619,-1.1619,-1.1619,-1.166,-1.1545,-1.107,-1.1443,-1.1619,-1.1145,0.0,-1.0806,0.0,0.0,-1.0141,-1.0948,-1.0521,-1.0175,0.0,0.0,0.0,0.0,0.0,-0.9802,-1.067,-1.088,-1.1328,-1.2074,-1.1626,-1.1762,-1.2501,-1.2501,-1.2528,-1.2589,-1.2684,-1.2759,-1.2827,-1.2976,-1.3091,-1.318,-1.3234,-1.3315,-1.3403,-1.3403,-1.3403,-1.3403,-1.3403,-1.3403,-1.3403,-1.0602,-1.0663,-1.0711,-1.0663,-1.069,-1.0534,-0.9971,-1.0358,-1.0521,-0.9958,-1.0371,-1.0717,-1.0717,-1.0717,-1.0717,-1.0717,-1.0683,-1.0677,-1.0717,-1.0683,-1.0677,-1.0717,-1.0677,-1.0656,-1.0656,-1.067,-1.0697,-1.0751,-1.0751,-1.0826,-1.0894,-1.0894,-1.1036,-1.1234,-1.1241,-1.1179,-1.1192,-1.1341,-1.1409,-1.1416,-1.1558,-1.1619,-1.1619,-1.1619,-1.1619,-1.1619,-1.1619,-1.1619,-1.1619,-1.1619,-1.1619,-1.1619,-1.1619,-1.1619,-1.1619,-1.1619,-1.1619,-1.1619,-1.1619,-1.1619,-1.1619,-1.1619,-1.1619,-1.1619,-1.1619,-1.1619,-1.1619,-1.1633,-1.1633,-1.164,-1.1647,-1.1762,-1.1843,-1.1843,-1.1965,-1.2047,-1.1993,-1.1396,-1.0873,-1.0826,0.0,0.0,-1.1097,-1.1226,-1.1287,0.0,0.0,0.0,0.0,0.0,-0.9361,-1.0405,-1.0432,-1.0765,-1.1463,-1.147,-1.1816,-1.2501,-1.2515,-1.2589,-1.2732,-1.2752,-1.284,-1.2983,-1.3125,-1.3186,-1.32,-1.3342,-1.3403,-1.3403,-1.3403,-1.3403,-1.3403,-1.3403,-1.3403,-1.3403,-0.939,-1.0093,-1.0575,-1.0114,-1.0412,-1.067,-1.0527,-1.0629,-1.067,-1.0527,-1.0629,-1.0717,-1.0717,-1.0717,-1.0717,-1.0717,-1.0297,-1.0229,-1.069,-1.029,-1.0236,-1.0704,-1.0276,-1.0032,-1.0032,-1.0085,-1.0487,-1.1056,-1.1056,-1.1077,-1.1111,-1.1111,-1.1131,-1.1165,-1.1287,-1.1335,-1.1348,-1.1497,-1.1565,-1.1565,-1.1606,-1.1619,-1.1619,-1.1619,-1.1619,-1.1619,-1.1619,-1.1619,-1.1619,-1.1619,-1.1619,-1.1619,-1.1619,-1.1619,-1.1619,-1.1619,-1.1619,-1.1619,-1.1619,-1.1619,-1.1619,-1.1619,-1.1619,-1.1619,-1.1619,-1.1619,-1.1647,-1.1755,-1.1782,-1.1816,-1.1938,-1.1986,-1.2006,-1.2006,-1.204,-1.1864,-1.1294,-1.1151,-1.09,0.0,-1.0711,-1.1104,-1.1314,-1.185,-1.1918,0.0,0.0,-1.1029,-1.1206,-1.0812,-1.1009,-1.1945,-1.1979,-1.206,-1.2237,-1.2237,-1.2325,-1.2501,-1.2617,-1.2698,-1.2739,-1.2963,-1.3085,-1.3132,-1.3281,-1.3349,-1.3349,-1.3383,-1.3403,-1.3403,-1.3403,-1.3403,-1.3403,-1.3403,-1.3403,-1.3403,-0.9815,-1.0276,-1.0616,-1.029,-1.05,-1.0717,-1.0717,-1.0717,-1.0717,-1.0717,-1.0717,-1.0717,-1.0717,-1.0717,-1.0717,-1.0717,-1.0419,-1.0371,-1.0697,-1.0412,-1.0412,-1.0739,-1.0514,-1.0365,-1.0432,-1.0514,-1.0758,-1.1234,-1.1234,-1.1199,-1.1267,-1.1267,-1.1307,-1.1375,-1.1457,-1.1497,-1.1504,-1.1586,-1.1619,-1.1619,-1.1619,-1.1619,-1.1619,-1.1619,-1.1619,-1.1619,-1.1619,-1.1619,-1.1619,-1.1619,-1.1619,-1.1619,-1.1619,-1.1619,-1.1619,-1.1619,-1.1619,-1.1619,-1.1619,-1.1619,-1.1619,-1.1619,-1.1619,-1.1619,-1.1619,-1.1667,-1.1735,-1.1816,-1.1884,-1.1965,-1.2047,-1.2121,-1.2169,-1.2169,-1.1932,-1.1613,-1.1206,-1.0928,-1.0738,-1.067,-1.1097,-1.1525,-1.1864,-1.2264,-1.2298,-1.1809,-1.1463,0.0,-1.1755,-1.145,-1.1647,-1.2474,-1.2501,-1.2501,-1.2501,-1.2501,-1.2535,-1.261,-1.2691,-1.28,-1.2935,-1.3098,-1.3214,-1.3281,-1.3363,-1.3403,-1.3403,-1.3403,-1.3403,-1.3403,-1.3403,-1.3403,-1.3403,-1.3403,-1.3403,-1.3403,-1.0717,-1.0717,-1.0717,-1.0717,-1.0717,-1.0717,-1.0717,-1.0717,-1.0717,-1.0717,-1.0717,-1.0717,-1.0717,-1.0717,-1.0731,-1.0751,-1.0758,-1.0758,-1.0758,-1.0758,-1.0819,-1.0975,-1.0982,-1.1036,-1.1227,-1.1185,-1.1206,-1.1233,-1.1233,-1.1301,-1.1423,-1.1423,-1.1497,-1.1619,-1.1619,-1.1619,-1.1619,-1.1619,-1.1619,-1.1619,-1.1619,-1.1619,-1.1619,-1.1619,-1.1619,-1.1619,-1.1619,-1.1619,-1.1619,-1.1619,-1.1619,-1.1619,-1.1619,-1.1619,-1.1619,-1.1619,-1.1619,-1.1619,-1.1619,-1.1619,-1.1619,-1.1619,-1.1619,-1.1626,-1.1647,-1.1742,-1.1843,-1.1891,-1.2006,-1.2176,-1.2121,-1.2237,-1.2284,-1.2169,-1.1721,-1.1355,-1.124,0.0,-1.0683,-1.1314,-1.1491,-1.1809,-1.244,-1.2501,-1.2501,-1.2501,-1.1918,-1.1837,-1.2467,-1.1904,-1.185,-1.2481,-1.2501,-1.2501,-1.2501,-1.2522,-1.2603,-1.2732,-1.2773,-1.2929,-1.3173,-1.32,-1.3275,-1.3403,-1.3403,-1.3403,-1.3403,-1.3403,-1.3403,-1.3403,-1.3403,-1.3403,-1.3403,-1.3403,-1.3403,-1.3403,-1.0717,-1.0717,-1.0717,-1.0717,-1.0717,-1.0717,-1.0717,-1.0717,-1.0717,-1.0717,-1.0717,-1.0717,-1.0717,-1.0717,-1.0772,-1.0833,-1.0847,-1.0847,-1.0847,-1.0847,-1.0975,-1.1124,-1.1131,-1.1138,-1.1234,-1.1287,-1.1416,-1.1552,-1.1552,-1.1558,-1.1586,-1.1586,-1.1599,-1.1619,-1.1619,-1.1619,-1.1619,-1.1619,-1.1619,-1.1619,-1.1619,-1.1619,-1.1619,-1.1619,-1.1619,-1.1619,-1.1619,-1.1619,-1.1619,-1.1619,-1.1619,-1.1619,-1.1619,-1.1619,-1.1619,-1.1619,-1.1619,-1.1619,-1.1619,-1.1619,-1.1619,-1.1619,-1.1619,-1.1653,-1.1769,-1.1816,-1.1904,-1.2162,-1.2237,-1.2291,-1.2413,-1.2454,-1.2264,-1.1633,-1.145,-1.1172,-1.0541,0.0,-1.126,-1.1375,-1.1945,-1.2372,-1.2488,-1.2501,-1.2501,-1.2501,-1.2393,-1.2379,-1.2494,-1.2393,-1.2379,-1.2501,-1.2501,-1.2501,-1.2501,-1.263,-1.2705,-1.2732,-1.2983,-1.3125,-1.3173,-1.3308,-1.3376,-1.3403,-1.3403,-1.3403,-1.3403,-1.3403,-1.3403,-1.3403,-1.3403,-1.3403,-1.3403,-1.3403,-1.3403,-1.3403,-1.0717,-1.0717,-1.0717,-1.0717,-1.0717,-1.0717,-1.0717,-1.0717,-1.0717,-1.0717,-1.0792,-1.0846,-1.0846,-1.0914,-1.0989,-1.1056,-1.1063,-1.1097,-1.1179,-1.1111,-1.1131,-1.128,-1.1287,-1.1321,-1.1409,-1.1477,-1.1552,-1.1619,-1.1619,-1.1619,-1.1619,-1.1619,-1.1619,-1.1619,-1.1619,-1.1619,-1.1619,-1.1619,-1.1619,-1.1619,-1.1619,-1.1619,-1.1619,-1.1619,-1.1619,-1.1619,-1.1619,-1.1619,-1.1619,-1.1619,-1.1619,-1.1619,-1.1619,-1.1619,-1.1619,-1.1619,-1.1619,-1.1619,-1.1619,-1.1619,-1.1619,-1.1619,-1.1681,-1.1748,-1.1816,-1.1959,-1.2121,-1.2257,-1.2352,-1.2427,-1.2488,-1.2501,-1.2386,-1.2047,-1.1653,-1.1274,-1.0928,-1.1172,-1.1389,-1.1389,-1.2047,-1.2501,-1.2501,-1.2501,-1.2501,-1.2501,-1.2501,-1.2501,-1.2501,-1.2501,-1.2501,-1.2501,-1.2501,-1.2542,-1.2623,-1.2698,-1.2807,-1.2969,-1.3105,-1.3214,-1.3295,-1.337,-1.3403,-1.3403,-1.3403,-1.3403,-1.3403,-1.3403,-1.3403,-1.3403,-1.3403,-1.3403,-1.3403,-1.3403,-1.3403,-1.3403,-1.0717,-1.0717,-1.0717,-1.0717,-1.0751,-1.0772,-1.0772,-1.0799,-1.0826,-1.0826,-1.0928,-1.0995,-1.0995,-1.1097,-1.1179,-1.1212,-1.1212,-1.128,-1.1436,-1.1335,-1.1321,-1.1436,-1.1443,-1.1497,-1.1619,-1.1619,-1.1619,-1.1619,-1.1619,-1.1619,-1.1619,-1.1619,-1.1619,-1.1619,-1.1619,-1.1619,-1.1619,-1.1619,-1.1619,-1.1619,-1.1619,-1.1619,-1.1619,-1.1619,-1.1619,-1.1619,-1.1619,-1.1619,-1.1619,-1.1619,-1.1619,-1.1619,-1.1619,-1.1619,-1.1619,-1.1619,-1.1619,-1.1619,-1.1619,-1.1619,-1.1626,-1.166,-1.1748,-1.185,-1.1918,-1.2121,-1.2298,-1.2332,-1.2427,-1.2501,-1.2501,-1.2501,-1.2447,-1.2271,0.0,-1.1389,-1.1389,-1.1389,-1.1457,-1.1626,-1.2155,-1.2501,-1.2501,-1.2501,-1.2501,-1.2501,-1.2501,-1.2501,-1.2501,-1.2501,-1.2515,-1.2556,-1.2556,-1.261,-1.2725,-1.28,-1.2949,-1.3173,-1.3207,-1.3288,-1.3403,-1.3403,-1.3403,-1.3403,-1.3403,-1.3403,-1.3403,-1.3403,-1.3403,-1.3403,-1.3403,-1.3403,-1.3403,-1.3403,-1.3403,-1.3403,-1.0717,-1.0717,-1.0717,-1.0717,-1.0772,-1.086,-1.086,-1.1043,-1.1131,-1.1131,-1.1138,-1.1145,-1.1145,-1.1158,-1.1219,-1.1362,-1.1375,-1.1436,-1.1592,-1.1592,-1.1592,-1.1599,-1.1599,-1.1606,-1.1619,-1.1619,-1.1619,-1.1619,-1.1619,-1.1619,-1.1619,-1.1619,-1.1619,-1.1619,-1.1619,-1.1619,-1.1619,-1.1619,-1.1619,-1.1619,-1.1619,-1.1619,-1.1619,-1.1619,-1.1619,-1.1619,-1.1619,-1.1619,-1.1619,-1.1619,-1.1619,-1.1619,-1.1619,-1.1619,-1.1619,-1.1619,-1.1619,-1.1619,-1.1619,-1.1619,-1.1653,-1.1782,-1.1823,-1.1904,-1.2189,-1.2277,-1.2325,-1.2461,-1.2494,-1.2501,-1.2501,-1.2501,-1.2277,-1.1586,0.0,0.0,-1.1389,-1.1389,-1.1647,-1.2338,-1.2467,-1.2501,-1.2501,-1.2501,-1.2501,-1.2501,-1.2501,-1.2501,-1.2501,-1.2501,-1.2569,-1.2712,-1.2712,-1.2718,-1.2732,-1.3003,-1.3152,-1.3173,-1.3315,-1.339,-1.3403,-1.3403,-1.3403,-1.3403,-1.3403,-1.3403,-1.3403,-1.3403,-1.3403,-1.3403,-1.3403,-1.3403,-1.3403,-1.3403,-1.3403,-1.3403,-1.0846,-1.0793,-1.0887,-1.0975,-1.1043,-1.1084,-1.1084,-1.1124,-1.1234,-1.1234,-1.1246,-1.1307,-1.1307,-1.1389,-1.147,-1.1531,-1.1531,-1.1558,-1.1613,-1.1619,-1.1619,-1.1619,-1.1619,-1.1619,-1.1619,-1.1619,-1.1619,-1.1619,-1.1619,-1.1619,-1.1619,-1.1619,-1.1619,-1.1619,-1.1619,-1.1619,-1.1619,-1.1619,-1.1619,-1.1619,-1.1619,-1.1619,-1.1619,-1.1619,-1.1619,-1.1619,-1.1619,-1.1619,-1.1619,-1.1619,-1.1619,-1.1619,-1.1619,-1.1619,-1.1619,-1.1619,-1.1619,-1.1619,-1.1619,-1.1619,-1.1653,-1.1796,-1.1904,-1.2026,-1.2244,-1.2359,-1.2433,-1.2488,-1.2501,-1.2501,-1.2501,-1.2501,-1.2406,-1.2128,0.0,-1.2081,-1.2081,-1.2081,-1.2182,-1.2467,-1.2501,-1.2501,-1.2501,-1.2501,-1.2501,-1.2501,-1.2501,-1.2501,-1.2501,-1.2589,-1.2671,-1.2725,-1.2908,-1.3003,-1.3003,-1.3119,-1.322,-1.3315,-1.337,-1.3403,-1.3403,-1.3403,-1.3403,-1.3403,-1.3403,-1.3403,-1.3403,-1.3403,-1.3403,-1.3403,-1.3403,-1.3403,-1.3403,-1.3403,-1.3403,-1.3403,-1.086,-1.0914,-1.105,-1.1214,-1.1206,-1.1233,-1.1233,-1.1274,-1.1307,-1.1307,-1.1396,-1.1463,-1.1463,-1.1558,-1.1619,-1.1619,-1.1619,-1.1619,-1.1619,-1.1619,-1.1619,-1.1619,-1.1619,-1.1619,-1.1619,-1.1619,-1.1619,-1.1619,-1.1619,-1.1619,-1.1619,-1.1619,-1.1619,-1.1619,-1.1619,-1.1619,-1.1619,-1.1619,-1.1619,-1.1619,-1.1619,-1.1619,-1.1619,-1.1619,-1.1619,-1.1619,-1.1619,-1.1619,-1.1619,-1.1619,-1.1619,-1.1619,-1.1619,-1.1619,-1.1619,-1.1619,-1.1619,-1.1619,-1.1619,-1.1653,-1.1721,-1.1864,-1.202,-1.2176,-1.2325,-1.2433,-1.2501,-1.2501,-1.2501,-1.2501,-1.2501,-1.2501,-1.2501,-1.2501,-1.2501,-1.2501,-1.2501,-1.2501,-1.2501,-1.2501,-1.2501,-1.2501,-1.2501,-1.2501,-1.2501,-1.2501,-1.2501,-1.2522,-1.2569,-1.2671,-1.2773,-1.2868,-1.3064,-1.3193,-1.3247,-1.3247,-1.3295,-1.3403,-1.3403,-1.3403,-1.3403,-1.3403,-1.3403,-1.3403,-1.3403,-1.3403,-1.3403,-1.3403,-1.3403,-1.3403,-1.3403,-1.3403,-1.3403,-1.3403,-1.3403,-1.3403,-1.0887,-1.1063,-1.1234,-1.1165,-1.1294,-1.1396,-1.1396,-1.1518,-1.1619,-1.1619,-1.1619,-1.1619,-1.1619,-1.1619,-1.1619,-1.1619,-1.1619,-1.1619,-1.1619,-1.1619,-1.1619,-1.1619,-1.1619,-1.1619,-1.1619,-1.1619,-1.1619,-1.1619,-1.1619,-1.1619,-1.1619,-1.1619,-1.1619,-1.1619,-1.1619,-1.1619,-1.1619,-1.1619,-1.1619,-1.1619,-1.1619,-1.1619,-1.1619,-1.1619,-1.1619,-1.1619,-1.1619,-1.1619,-1.1619,-1.1619,-1.1619,-1.1619,-1.1619,-1.1619,-1.1619,-1.1619,-1.1619,-1.1619,-1.1619,-1.1728,-1.187,-1.202,-1.2176,-1.2325,-1.2467,-1.2501,-1.2501,-1.2501,-1.2501,-1.2501,-1.2501,-1.2501,-1.2501,-1.2501,-1.2501,-1.2501,-1.2501,-1.2501,-1.2501,-1.2501,-1.2501,-1.2501,-1.2501,-1.2501,-1.2501,-1.2501,-1.2501,-1.2569,-1.2718,-1.2732,-1.2868,-1.3166,-1.3173,-1.3247,-1.3397,-1.3403,-1.3403,-1.3403,-1.3403,-1.3403,-1.3403,-1.3403,-1.3403,-1.3403,-1.3403,-1.3403,-1.3403,-1.3403,-1.3403,-1.3403,-1.3403,-1.3403,-1.3403,-1.3403,-1.3403,-1.3403,-1.124,-1.1294,-1.1355,-1.1463,-1.1518,-1.1552,-1.1552,-1.1592,-1.1619,-1.1619,-1.1619,-1.1619,-1.1619,-1.1619,-1.1619,-1.1619,-1.1619,-1.1619,-1.1619,-1.1619,-1.1619,-1.1619,-1.1619,-1.1619,-1.1619,-1.1619,-1.1619,-1.1619,-1.1619,-1.1619,-1.1619,-1.1619,-1.1619,-1.1619,-1.1619,-1.1619,-1.1619,-1.1619,-1.1619,-1.1619,-1.1619,-1.1619,-1.1619,-1.1619,-1.1619,-1.1619,-1.1619,-1.1619,-1.1619,-1.1619,-1.1619,-1.1619,-1.1619,-1.1619,-1.1619,-1.1619,-1.1619,-1.164,-1.1742,-1.1877,-1.2006,-1.2128,-1.2176,-1.2325,-1.2467,-1.2501,-1.2501,-1.2501,-1.2501,-1.2501,-1.2501,-1.2501,-1.2501,-1.2501,-1.2501,-1.2501,-1.2501,-1.2501,-1.2501,-1.2501,-1.2501,-1.2501,-1.2501,-1.2501,-1.2501,-1.2501,-1.2603,-1.2684,-1.2725,-1.2929,-1.3078,-1.3166,-1.3275,-1.3356,-1.3403,-1.3403,-1.3403,-1.3403,-1.3403,-1.3403,-1.3403,-1.3403,-1.3403,-1.3403,-1.3403,-1.3403,-1.3403,-1.3403,-1.3403,-1.3403,-1.3403,-1.3403,-1.3403,-1.3403,-1.3403,-1.3403,-1.1375,-1.1443,-1.1511,-1.1606,-1.1619,-1.1619,-1.1619,-1.1619,-1.1619,-1.1619,-1.1619,-1.1619,-1.1619,-1.1619,-1.1619,-1.1619,-1.1619,-1.1619,-1.1619,-1.1619,-1.1619,-1.1619,-1.1619,-1.1619,-1.1619,-1.1619,-1.1619,-1.1619,-1.1619,-1.1619,-1.1619,-1.1619,-1.1619,-1.1619,-1.1619,-1.1619,-1.1619,-1.1619,-1.1619,-1.1619,-1.1619,-1.1619,-1.1619,-1.1619,-1.1619,-1.1619,-1.1619,-1.1619,-1.1619,-1.1619,-1.1619,-1.1619,-1.1619,-1.1619,-1.1619,-1.1619,-1.1619,-1.1653,-1.1789,-1.1945,-1.2074,-1.2135,-1.2264,-1.2393,-1.2481,-1.2501,-1.2501,-1.2501,-1.2501,-1.2501,-1.2501,-1.2501,-1.2501,-1.2501,-1.2501,-1.2501,-1.2501,-1.2501,-1.2501,-1.2501,-1.2501,-1.2501,-1.2501,-1.2501,-1.2528,-1.2589,-1.2678,-1.2779,-1.2895,-1.3078,-1.32,-1.3261,-1.3356,-1.3403,-1.3403,-1.3403,-1.3403,-1.3403,-1.3403,-1.3403,-1.3403,-1.3403,-1.3403,-1.3403,-1.3403,-1.3403,-1.3403,-1.3403,-1.3403,-1.3403,-1.3403,-1.3403,-1.3403,-1.3403,-1.3403,-1.3403,-1.1409,-1.1525,-1.1619,-1.1619,-1.1619,-1.1619,-1.1619,-1.1619,-1.1619,-1.1619,-1.1619,-1.1619,-1.1619,-1.1619,-1.1619,-1.1619,-1.1619,-1.1619,-1.1619,-1.1619,-1.1619,-1.1619,-1.1619,-1.1619,-1.1619,-1.1619,-1.1619,-1.1619,-1.1619,-1.1619,-1.1619,-1.1619,-1.1619,-1.1619,-1.1619,-1.1619,-1.1619,-1.1619,-1.1619,-1.1619,-1.1619,-1.1619,-1.1619,-1.1619,-1.1619,-1.1619,-1.1619,-1.1619,-1.1619,-1.1619,-1.1619,-1.1619,-1.1619,-1.1619,-1.1619,-1.1619,-1.1626,-1.1667,-1.1816,-1.1965,-1.2121,-1.2271,-1.2406,-1.2501,-1.2501,-1.2501,-1.2501,-1.2501,-1.2501,-1.2501,-1.2501,-1.2501,-1.2501,-1.2501,-1.2501,-1.2501,-1.2501,-1.2501,-1.2501,-1.2501,-1.2501,-1.2501,-1.2501,-1.2515,-1.2583,-1.2718,-1.2752,-1.2888,-1.3159,-1.3186,-1.3254,-1.3397,-1.3403,-1.3403,-1.3403,-1.3403,-1.3403,-1.3403,-1.3403,-1.3403,-1.3403,-1.3403,-1.3403,-1.3403,-1.3403,-1.3403,-1.3403,-1.3403,-1.3403,-1.3403,-1.3403,-1.3403,-1.3403,-1.3403,-1.3403,-1.3403,-1.1572,-1.1599,-1.1619,-1.1619,-1.1619,-1.1619,-1.1619,-1.1619,-1.1619,-1.1619,-1.1619,-1.1619,-1.1619,-1.1619,-1.1619,-1.1619,-1.1619,-1.1619,-1.1619,-1.1619,-1.1619,-1.1619,-1.1619,-1.1619,-1.1619,-1.1619,-1.1619,-1.1619,-1.1619,-1.1619,-1.1619,-1.1619,-1.1619,-1.1619,-1.1619,-1.1619,-1.1619,-1.1619,-1.1619,-1.1619,-1.1619,-1.1619,-1.1619,-1.1619,-1.1619,-1.1619,-1.1619,-1.1619,-1.1619,-1.1619,-1.1619,-1.1619,-1.1619,-1.1619,-1.1619,-1.1619,-1.1701,-1.1816,-1.1972,-1.2121,-1.2277,-1.242,-1.2481,-1.2501,-1.2501,-1.2501,-1.2501,-1.2501,-1.2501,-1.2501,-1.2501,-1.2501,-1.2501,-1.2501,-1.2501,-1.2501,-1.2501,-1.2501,-1.2501,-1.2501,-1.2501,-1.2501,-1.2501,-1.261,-1.2698,-1.2725,-1.2949,-1.3105,-1.3166,-1.3288,-1.3363,-1.3397,-1.3403,-1.3403,-1.3403,-1.3403,-1.3403,-1.3403,-1.3403,-1.3403,-1.3403,-1.3403,-1.3403,-1.3403,-1.3403,-1.3403,-1.3403,-1.3403,-1.3403,-1.3403,-1.3403,-1.3403,-1.3403,-1.3403,-1.3403,-1.3403,-1.1619,-1.1619,-1.1619,-1.1619,-1.1619,-1.1619,-1.1619,-1.1619,-1.1619,-1.1619,-1.1619,-1.1619,-1.1619,-1.1619,-1.1619,-1.1619,-1.1619,-1.1619,-1.1619,-1.1619,-1.1619,-1.1619,-1.1619,-1.1619,-1.1619,-1.1619,-1.1619,-1.1619,-1.1619,-1.1619,-1.1619,-1.1619,-1.1619,-1.1619,-1.1619,-1.1619,-1.1619,-1.1619,-1.1619,-1.1619,-1.1619,-1.1619,-1.1619,-1.1619,-1.1619,-1.1619,-1.1619,-1.1619,-1.1619,-1.1619,-1.1619,-1.1619,-1.1619,-1.1619,-1.1619,-1.1619,-1.1721,-1.1864,-1.202,-1.2176,-1.2325,-1.2467,-1.2501,-1.2501,-1.2501,-1.2501,-1.2501,-1.2501,-1.2501,-1.2501,-1.2501,-1.2501,-1.2501,-1.2501,-1.2501,-1.2501,-1.2501,-1.2501,-1.2501,-1.2501,-1.2501,-1.2528,-1.2603,-1.2684,-1.2786,-1.2929,-1.3085,-1.3207,-1.3275,-1.3356,-1.3403,-1.3403,-1.3403,-1.3403,-1.3403,-1.3403,-1.3403,-1.3403,-1.3403,-1.3403,-1.3403,-1.3403,-1.3403,-1.3403,-1.3403,-1.3403,-1.3403,-1.3403,-1.3403,-1.3403,-1.3403,-1.3403,-1.3403,-1.3403,-1.3403,-1.3403,-1.1619,-1.1619,-1.1619,-1.1619,-1.1619,-1.1619,-1.1619,-1.1619,-1.1619,-1.1619,-1.1619,-1.1619,-1.1619,-1.1619,-1.1619,-1.1619,-1.1619,-1.1619,-1.1619,-1.1619,-1.1619,-1.1619,-1.1619,-1.1619,-1.1619,-1.1619,-1.1619,-1.1619,-1.1619,-1.1619,-1.1619,-1.1619,-1.1619,-1.1619,-1.1619,-1.1619,-1.1619,-1.1619,-1.1619,-1.1619,-1.1619,-1.1619,-1.1619,-1.1619,-1.1619,-1.1619,-1.1619,-1.1619,-1.1619,-1.1619,-1.1619,-1.1619,-1.1619,-1.1619,-1.1626,-1.1647,-1.1755,-1.1904,-1.206,-1.221,-1.2352,-1.2474,-1.2501,-1.2501,-1.2501,-1.2501,-1.2501,-1.2501,-1.2501,-1.2501,-1.2501,-1.2501,-1.2501,-1.2501,-1.2501,-1.2501,-1.2501,-1.2501,-1.2501,-1.2501,-1.2501,-1.2562,-1.2718,-1.2752,-1.2881,-1.3152,-1.32,-1.3268,-1.3397,-1.3403,-1.3403,-1.3403,-1.3403,-1.3403,-1.3403,-1.3403,-1.3403,-1.3403,-1.3403,-1.3403,-1.3403,-1.3403,-1.3403,-1.3403,-1.3403,-1.3403,-1.3403,-1.3403,-1.3403,-1.3403,-1.3403,-1.3403,-1.3403,-1.3403,-1.3403,-1.3403,-1.1619,-1.1619,-1.1619,-1.1619,-1.1619,-1.1619,-1.1619,-1.1619,-1.1619,-1.1619,-1.1619,-1.1619,-1.1619,-1.1619,-1.1619,-1.1619,-1.1619,-1.1619,-1.1619,-1.1619,-1.1619,-1.1619,-1.1619,-1.1619,-1.1619,-1.1619,-1.1619,-1.1619,-1.1619,-1.1619,-1.1619,-1.1619,-1.1619,-1.1619,-1.1619,-1.1619,-1.1619,-1.1619,-1.1619,-1.1619,-1.1619,-1.1619,-1.1619,-1.1619,-1.1619,-1.1619,-1.1619,-1.1619,-1.1619,-1.1619,-1.1619,-1.1619,-1.1619,-1.1619,-1.1647,-1.1769,-1.1911,-1.206,-1.2216,-1.2366,-1.2474,-1.2494,-1.2501,-1.2501,-1.2501,-1.2501,-1.2501,-1.2501,-1.2501,-1.2501,-1.2501,-1.2501,-1.2501,-1.2501,-1.2501,-1.2501,-1.2501,-1.2501,-1.2501,-1.2501,-1.2501,-1.2562,-1.2718,-1.2854,-1.2996,-1.3159,-1.3295,-1.3376,-1.3397,-1.3403,-1.3403,-1.3403,-1.3403,-1.3403,-1.3403,-1.3403,-1.3403,-1.3403,-1.3403,-1.3403,-1.3403,-1.3403,-1.3403,-1.3403,-1.3403,-1.3403,-1.3403,-1.3403,-1.3403,-1.3403,-1.3403,-1.3403,-1.3403,-1.3403,-1.3403,-1.3403,-1.1619,-1.1619,-1.1619,-1.1619,-1.1619,-1.1619,-1.1619,-1.1619,-1.1619,-1.1619,-1.1619,-1.1619,-1.1619,-1.1619,-1.1619,-1.1619,-1.1619,-1.1619,-1.1619,-1.1619,-1.1619,-1.1619,-1.1619,-1.1619,-1.1619,-1.1619,-1.1619,-1.1619,-1.1619,-1.1619,-1.1619,-1.1619,-1.1619,-1.1619,-1.1619,-1.1619,-1.1619,-1.1619,-1.1619,-1.1619,-1.1619,-1.1619,-1.1619,-1.1619,-1.1619,-1.1619,-1.1619,-1.1619,-1.1619,-1.1619,-1.1619,-1.1633,-1.1714,-1.1735,-1.1769,-1.1918,-1.2067,-1.2203,-1.2271,-1.2393,-1.2501,-1.2501,-1.2501,-1.2501,-1.2501,-1.2501,-1.2501,-1.2501,-1.2501,-1.2501,-1.2501,-1.2501,-1.2501,-1.2501,-1.2501,-1.2501,-1.2501,-1.2501,-1.2501,-1.2501,-1.2576,-1.2691,-1.284,-1.299,-1.3139,-1.3288,-1.3363,-1.3403,-1.3403,-1.3403,-1.3403,-1.3403,-1.3403,-1.3403,-1.3403,-1.3403,-1.3403,-1.3403,-1.3403,-1.3403,-1.3403,-1.3403,-1.3403,-1.3403,-1.3403,-1.3403,-1.3403,-1.3403,-1.3403,-1.3403,-1.3403,-1.3403,-1.3403,-1.3403,-1.3403,-1.3403]},{"header":{"parameterUnit":"m.s-1","parameterCategory":1,"la1":30.6,"la2":28.766,"lo1":-90.7593,"lo2":-88.6598,"dy":0.0162,"dx":0.0183,"nx":116,"ny":114,"refTime":"2023-08-15T18:00:00:Z","depth":0,"parameterNumber":3,"parameterNumberName":"V-component_of_WINDS"},"data":[0.0,0.0,0.0,0.0,0.0,0.0,0.0,0.0,0.0,0.0,0.0,0.0,0.0,0.0,0.0,0.0,0.0,0.0,0.0,0.0,0.0,0.0,0.0,0.0,0.0,0.0,0.0,0.0,0.0,0.0,0.0,0.0,0.0,0.0,0.0,0.0,0.0,0.0,0.0,0.0,0.0,0.0,0.0,0.0,0.0,0.0,0.0,0.0,0.0,0.0,0.0,0.0,0.0,0.0,0.0,0.0,0.0,0.0,0.0,0.0,0.0,0.0,0.0,0.0,0.0,0.0,0.0,0.0,0.0,0.0,0.0,0.0,0.0,0.0,0.0,0.0,0.0,0.0,0.0,0.0,0.0,0.0,0.0,0.0,0.0,0.0,0.0,0.0,0.0,0.0,0.0,0.0,0.0,0.0,0.0,0.0,0.0,0.0,0.0,0.0,0.0,0.0,0.0,0.0,0.0,0.0,0.0,0.0,0.0,0.0,0.0,0.0,0.0,0.0,0.0,0.0,0.0,0.0,0.0,0.0,0.0,0.0,0.0,0.0,0.0,0.0,0.0,0.0,0.0,0.0,0.0,0.0,0.0,0.0,0.0,0.0,0.0,0.0,0.0,0.0,0.0,0.0,0.0,0.0,0.0,0.0,0.0,0.0,0.0,0.0,0.0,0.0,0.0,0.0,0.0,0.0,0.0,0.0,0.0,0.0,0.0,0.0,0.0,0.0,0.0,0.0,0.0,0.0,0.0,0.0,0.0,0.0,0.0,0.0,0.0,0.0,0.0,0.0,0.0,0.0,0.0,0.0,0.0,0.0,0.0,0.0,0.0,0.0,0.0,0.0,0.0,0.0,0.0,0.0,0.0,0.0,0.0,0.0,0.0,0.0,0.0,0.0,0.0,0.0,0.0,0.0,0.0,0.0,0.0,0.0,0.0,0.0,0.0,0.0,0.0,0.0,0.0,0.0,0.0,0.0,0.0,0.0,0.0,0.0,0.0,0.0,0.0,0.0,0.0,0.0,0.0,0.0,0.0,0.0,0.0,0.0,0.0,0.0,0.0,0.0,0.0,0.0,0.0,0.0,0.0,0.0,0.0,0.0,0.0,0.0,0.0,0.0,0.0,0.0,0.0,0.0,0.0,0.0,0.0,0.0,0.0,0.0,0.0,0.0,0.0,0.0,0.0,0.0,0.0,0.0,0.0,0.0,0.0,0.0,0.0,0.0,0.0,0.0,0.0,0.0,0.0,0.0,0.0,0.0,0.0,0.0,0.0,0.0,0.0,0.0,0.0,0.0,0.0,0.0,0.0,0.0,0.0,0.0,0.0,0.0,0.0,0.0,0.0,0.0,0.0,0.0,0.0,0.0,0.0,0.0,0.0,0.0,0.0,0.0,0.0,0.0,0.0,0.0,0.0,0.0,0.0,0.0,0.0,0.0,0.0,0.0,0.0,0.0,0.0,0.0,0.0,0.0,0.0,0.0,0.0,0.0,0.0,0.0,0.0,0.0,0.0,0.0,0.0,0.0,0.0,0.0,0.0,0.0,0.0,0.0,0.0,0.0,0.0,0.0,0.0,0.0,0.0,0.0,0.0,0.0,0.0,0.0,0.0,0.0,0.0,0.0,0.0,0.0,0.0,0.0,0.0,0.0,0.0,0.0,0.0,0.0,0.0,0.0,0.0,0.0,0.0,0.0,0.0,0.0,0.0,0.0,0.0,0.0,0.0,0.0,0.0,0.0,0.0,0.0,0.0,0.0,0.0,0.0,0.0,0.0,0.0,0.0,0.0,0.0,0.0,0.0,0.0,0.0,0.0,0.0,0.0,0.0,0.0,0.0,0.0,0.0,0.0,0.0,0.0,0.0,0.0,0.0,0.0,0.0,0.0,0.0,0.0,0.0,0.0,0.0,0.0,0.0,0.0,0.0,0.0,0.0,0.0,0.0,0.0,0.0,0.0,0.0,0.0,0.0,0.0,0.0,0.0,0.0,0.0,0.0,0.0,0.0,0.0,0.0,0.0,0.0,0.0,0.0,0.0,0.0,0.0,0.0,0.0,0.0,0.0,0.0,0.0,0.0,0.0,0.0,0.0,0.0,0.0,0.0,0.0,0.0,0.0,0.0,0.0,0.0,0.0,0.0,0.0,0.0,0.0,0.0,0.0,0.0,0.0,0.0,0.0,0.0,0.0,0.0,0.0,0.0,0.0,0.0,0.0,0.0,0.0,0.0,0.0,0.0,0.0,0.0,0.0,0.0,0.0,0.0,0.0,0.0,0.0,0.0,0.0,0.0,0.0,0.0,0.0,0.0,0.0,0.0,0.0,0.0,0.0,0.0,0.0,0.0,0.0,0.0,0.0,0.0,0.0,0.0,0.0,0.0,0.0,0.0,0.0,0.0,0.0,0.0,0.0,0.0,0.0,0.0,0.0,0.0,0.0,0.0,0.0,0.0,0.0,0.0,0.0,0.0,0.0,0.0,0.0,0.0,0.0,0.0,0.0,0.0,0.0,0.0,0.0,0.0,0.0,0.0,0.0,0.0,0.0,0.0,0.0,0.0,0.0,0.0,0.0,0.0,0.0,0.0,0.0,0.0,0.0,0.0,0.0,0.0,0.0,0.0,0.0,0.0,0.0,0.0,0.0,0.0,0.0,0.0,0.0,0.0,0.0,0.0,0.0,0.0,0.0,0.0,0.0,0.0,0.0,0.0,0.0,0.0,0.0,0.0,0.0,0.0,0.0,0.0,0.0,0.0,0.0,0.0,0.0,0.0,0.0,0.0,0.0,0.0,0.0,0.0,0.0,0.0,0.0,0.0,0.0,0.0,0.0,0.0,0.0,0.0,0.0,0.0,0.0,0.0,0.0,0.0,0.0,0.0,0.0,0.0,0.0,0.0,0.0,0.0,0.0,0.0,0.0,0.0,0.0,0.0,0.0,0.0,0.0,0.0,0.0,0.0,0.0,0.0,0.0,0.0,0.0,0.0,0.0,0.0,0.0,0.0,0.0,0.0,0.0,0.0,0.0,0.0,0.0,0.0,0.0,0.0,0.0,0.0,0.0,0.0,0.0,0.0,0.0,0.0,0.0,0.0,0.0,0.0,0.0,0.0,0.0,0.0,0.0,0.0,0.0,0.0,0.0,0.0,0.0,0.0,0.0,0.0,0.0,0.0,0.0,0.0,0.0,0.0,0.0,0.0,0.0,0.0,0.0,0.0,0.0,0.0,0.0,0.0,0.0,0.0,0.0,0.0,0.0,0.0,0.0,0.0,0.0,0.0,0.0,0.0,0.0,0.0,0.0,0.0,0.0,0.0,0.0,0.0,0.0,0.0,0.0,0.0,0.0,0.0,0.0,0.0,0.0,0.0,0.0,0.0,0.0,0.0,0.0,0.0,0.0,0.0,0.0,0.0,0.0,0.0,0.0,0.0,0.0,0.0,0.0,0.0,0.0,0.0,0.0,0.0,0.0,0.0,0.0,0.0,0.0,0.0,0.0,0.0,0.0,0.0,0.0,0.0,0.0,0.0,0.0,0.0,0.0,0.0,0.0,0.0,0.0,0.0,0.0,0.0,0.0,0.0,0.0,0.0,0.0,0.0,0.0,0.0,0.0,0.0,0.0,0.0,0.0,0.0,0.0,0.0,0.0,0.0,0.0,0.0,0.0,0.0,0.0,0.0,0.0,0.0,0.0,0.0,0.0,0.0,0.0,0.0,0.0,0.0,0.0,0.0,0.0,0.0,0.0,0.0,0.0,0.0,0.0,0.0,0.0,0.0,0.0,0.0,0.0,0.0,0.0,0.0,0.0,0.0,0.0,0.0,0.0,0.0,0.0,0.0,0.0,0.0,0.0,0.0,0.0,0.0,0.0,0.0,0.0,0.0,0.0,0.0,0.0,0.0,0.0,0.0,0.0,0.0,0.0,0.0,0.0,0.0,0.0,0.0,0.0,0.0,0.0,0.0,0.0,0.0,0.0,0.0,0.0,0.0,0.0,0.0,0.0,0.0,0.0,0.0,0.0,0.0,0.0,0.0,0.0,0.0,0.0,0.0,0.0,0.0,0.0,0.0,0.0,0.0,0.0,0.0,0.0,0.0,0.0,0.0,0.0,0.0,0.0,0.0,0.0,0.0,0.0,0.0,0.0,0.0,0.0,0.0,0.0,0.0,0.0,0.0,0.0,0.0,0.0,0.0,0.0,0.0,0.0,0.0,0.0,0.0,0.0,0.0,0.0,0.0,0.0,0.0,0.0,0.0,0.0,0.0,0.0,0.0,0.0,0.0,0.0,0.0,0.0,0.0,0.0,0.0,0.0,0.0,0.0,0.0,0.0,0.0,0.0,0.0,0.0,0.0,0.0,0.0,0.0,0.0,0.0,0.0,0.0,0.0,0.0,0.0,0.0,0.0,0.0,0.0,0.0,0.0,0.0,0.0,0.0,0.0,0.0,0.0,0.0,0.0,0.0,0.0,0.0,0.0,0.0,0.0,0.0,0.0,0.0,0.0,0.0,0.0,0.0,0.0,0.0,0.0,0.0,0.0,0.0,0.0,0.0,0.0,0.0,0.0,0.0,0.0,0.0,0.0,0.0,0.0,0.0,0.0,0.0,0.0,0.0,0.0,0.0,0.0,0.0,0.0,0.0,0.0,0.0,0.0,0.0,0.0,0.0,0.0,0.0,0.0,0.0,0.0,0.0,0.0,0.0,0.0,0.0,0.0,0.0,0.0,0.0,0.0,0.0,0.0,0.0,0.0,0.0,0.0,0.0,0.0,0.0,0.0,0.0,0.0,0.0,0.0,0.0,0.0,0.0,0.0,0.0,0.0,0.0,0.0,0.0,0.0,0.0,0.0,0.0,0.0,0.0,0.0,0.0,0.0,0.0,0.0,0.0,0.0,0.0,0.0,0.0,0.0,0.0,0.0,0.0,0.0,0.0,0.0,0.0,0.0,0.0,0.0,0.0,0.0,0.0,0.0,0.0,0.0,0.0,0.0,0.0,0.0,0.0,0.0,0.0,0.0,0.0,0.0,0.0,0.0,0.0,0.0,0.0,0.0,0.0,0.0,0.0,0.0,0.0,0.0,0.0,0.0,0.0,0.0,0.0,0.0,0.0,0.0,0.0,0.0,0.0,0.0,0.0,0.0,0.0,0.0,0.0,0.0,0.0,0.0,0.0,0.0,0.0,0.0,0.0,0.0,0.0,0.0,0.0,0.0,0.0,0.0,0.0,0.0,0.0,0.0,0.0,0.0,0.0,0.0,0.0,0.0,0.0,0.0,0.0,0.0,0.0,0.0,0.0,0.0,0.0,0.0,0.0,0.0,0.0,0.0,0.0,0.0,0.0,0.0,0.0,0.0,0.0,0.0,0.0,0.0,0.0,0.0,0.0,0.0,0.0,0.0,0.0,0.0,0.0,0.0,0.0,0.0,0.0,0.0,0.0,0.0,0.0,0.0,0.0,0.0,0.0,0.0,0.0,0.0,0.0,0.0,0.0,0.0,0.0,0.0,0.0,0.0,0.0,0.0,0.0,0.0,0.0,0.0,0.0,0.0,0.0,0.0,0.0,0.0,0.0,0.0,0.0,0.0,0.0,0.0,0.0,0.0,0.0,0.0,0.0,0.0,0.0,0.0,0.0,0.0,0.0,0.0,0.0,0.0,0.0,0.0,0.0,0.0,0.0,0.0,0.0,0.0,0.0,0.0,0.0,0.0,0.0,0.0,0.0,0.0,0.0,0.0,0.0,0.0,0.0,0.0,0.0,0.0,0.0,0.0,0.0,0.0,0.0,0.0,0.0,0.0,0.0,0.0,0.0,0.0,0.0,0.0,0.0,0.0,0.0,0.0,0.0,0.0,0.0,0.0,0.0,0.0,0.0,0.0,0.0,0.0,0.0,0.0,0.0,0.0,0.0,0.0,0.0,0.0,0.0,0.0,0.0,0.0,0.0,0.0,0.0,0.0,0.0,0.0,0.0,0.0,0.0,0.0,0.0,0.0,0.0,0.0,0.0,0.0,0.0,0.0,0.0,0.0,0.0,0.0,0.0,0.0,0.0,0.0,0.0,0.0,0.0,0.0,0.0,0.0,0.0,0.0,0.0,0.0,0.0,0.0,0.0,0.0,0.0,0.0,3.1219,2.9814,0.0,0.0,0.0,0.0,0.0,0.0,0.0,0.0,0.0,0.0,0.0,0.0,0.0,0.0,0.0,0.0,0.0,0.0,0.0,0.0,0.0,0.0,0.0,0.0,0.0,0.0,0.0,0.0,0.0,0.0,0.0,0.0,0.0,0.0,0.0,0.0,0.0,0.0,0.0,0.0,0.0,0.0,0.0,0.0,0.0,0.0,0.0,0.0,0.0,0.0,0.0,0.0,0.0,0.0,0.0,0.0,0.0,0.0,0.0,0.0,0.0,0.0,0.0,0.0,0.0,0.0,0.0,0.0,0.0,0.0,0.0,0.0,0.0,0.0,0.0,0.0,0.0,0.0,0.0,0.0,0.0,0.0,0.0,0.0,0.0,0.0,0.0,0.0,0.0,0.0,0.0,0.0,0.0,0.0,0.0,0.0,0.0,0.0,0.0,0.0,0.0,0.0,0.0,0.0,0.0,0.0,0.0,0.0,0.0,0.0,0.0,0.0,0.0,0.0,3.1945,3.1427,0.0,0.0,0.0,0.0,0.0,0.0,0.0,0.0,0.0,0.0,0.0,0.0,0.0,0.0,0.0,0.0,0.0,0.0,0.0,0.0,0.0,0.0,0.0,0.0,0.0,0.0,0.0,0.0,0.0,0.0,0.0,0.0,0.0,0.0,0.0,0.0,0.0,0.0,0.0,0.0,0.0,0.0,0.0,0.0,0.0,0.0,0.0,0.0,0.0,0.0,0.0,0.0,0.0,0.0,0.0,0.0,0.0,0.0,0.0,0.0,0.0,0.0,0.0,0.0,0.0,0.0,0.0,0.0,0.0,0.0,0.0,0.0,0.0,0.0,0.0,0.0,0.0,0.0,0.0,0.0,0.0,0.0,0.0,0.0,0.0,0.0,0.0,0.0,0.0,0.0,0.0,0.0,0.0,0.0,0.0,0.0,0.0,0.0,0.0,0.0,0.0,0.0,0.0,0.0,0.0,0.0,0.0,0.0,3.1292,3.1799,3.2374,3.2374,3.2679,3.3309,3.3795,3.4066,3.4096,3.273,0.0,0.0,0.0,0.0,0.0,0.0,0.0,0.0,0.0,0.0,0.0,0.0,0.0,0.0,0.0,0.0,0.0,0.0,0.0,0.0,0.0,0.0,0.0,0.0,0.0,0.0,0.0,0.0,0.0,0.0,0.0,0.0,0.0,0.0,0.0,0.0,0.0,0.0,3.1288,3.1691,3.145,3.081,3.1532,0.0,0.0,0.0,0.0,0.0,0.0,0.0,0.0,0.0,0.0,0.0,0.0,0.0,0.0,0.0,0.0,0.0,0.0,0.0,0.0,0.0,0.0,0.0,0.0,0.0,0.0,0.0,0.0,0.0,0.0,0.0,0.0,0.0,0.0,0.0,0.0,0.0,0.0,0.0,0.0,0.0,0.0,0.0,3.0631,3.1858,0.0,0.0,0.0,0.0,0.0,0.0,0.0,0.0,0.0,0.0,0.0,0.0,0.0,3.0649,3.0751,3.2747,3.3829,3.3931,3.5926,3.6941,3.7043,3.7043,3.7077,3.7144,3.6569,0.0,3.5294,3.449,0.0,0.0,0.0,0.0,0.0,0.0,0.0,0.0,0.0,0.0,0.0,0.0,0.0,0.0,0.0,0.0,0.0,0.0,0.0,0.0,0.0,0.0,0.0,0.0,0.0,0.0,0.0,0.0,0.0,0.0,0.0,0.0,0.0,0.0,0.0,0.0,3.1617,3.3033,3.3694,3.3849,3.3849,3.3694,3.4021,3.2995,3.108,3.1428,0.0,0.0,0.0,0.0,0.0,0.0,0.0,0.0,0.0,0.0,0.0,0.0,0.0,0.0,0.0,0.0,0.0,0.0,0.0,0.0,0.0,0.0,0.0,0.0,0.0,0.0,0.0,0.0,0.0,0.0,0.0,0.0,0.0,0.0,0.0,0.0,0.0,0.0,0.0,3.0218,3.1426,3.1646,3.108,3.0022,0.0,0.0,0.0,0.0,0.0,0.0,0.0,0.0,0.0,3.1752,3.2611,3.3254,3.3694,3.5893,3.7246,3.7652,3.9073,3.9986,4.0358,4.0358,4.0358,4.0358,4.002,3.9681,3.9242,3.7686,3.6864,3.6468,0.0,0.0,0.0,0.0,3.2003,3.3159,0.0,0.0,0.0,0.0,0.0,0.0,0.0,0.0,0.0,0.0,0.0,0.0,0.0,0.0,0.0,2.9443,0.0,0.0,0.0,0.0,0.0,0.0,0.0,0.0,0.0,0.0,0.0,0.0,3.2882,3.4518,3.56,3.5802,3.5926,3.5926,3.6107,3.4712,3.2238,3.2595,3.2117,0.0,0.0,0.0,0.0,0.0,0.0,0.0,0.0,0.0,0.0,0.0,0.0,0.0,0.0,0.0,0.0,0.0,0.0,0.0,0.0,0.0,0.0,0.0,0.0,0.0,0.0,0.0,0.0,0.0,0.0,0.0,0.0,0.0,0.0,0.0,0.0,0.0,0.0,3.0832,3.2099,3.232,3.1866,3.1075,0.0,0.0,0.0,0.0,0.0,0.0,3.2293,3.251,3.3241,3.4561,3.5825,3.6772,3.729,3.9005,4.0121,4.0696,4.1238,4.1779,4.2286,4.2286,4.2286,4.2286,4.2489,4.2591,4.2455,4.0595,3.9512,3.8996,3.8638,3.7148,3.5261,3.5503,3.611,3.6818,0.0,0.0,0.0,0.0,0.0,0.0,0.0,0.0,0.0,0.0,0.0,0.0,0.0,0.0,2.9762,3.0977,3.069,2.9709,0.0,0.0,0.0,0.0,0.0,0.0,0.0,0.0,0.0,3.2192,3.4404,3.5532,3.5633,3.6366,3.6761,3.6761,3.7483,3.6129,3.335,3.3745,3.3329,3.2249,0.0,0.0,0.0,0.0,0.0,0.0,0.0,0.0,0.0,0.0,0.0,0.0,0.0,0.0,0.0,0.0,0.0,0.0,0.0,0.0,0.0,0.0,0.0,0.0,0.0,0.0,0.0,0.0,0.0,0.0,0.0,0.0,0.0,0.0,0.0,0.0,0.0,0.0,0.0,3.5047,3.6603,0.0,0.0,0.0,0.0,3.1654,3.1336,3.2429,3.5228,3.6096,3.7821,4.0663,4.1508,4.1914,4.1948,4.2083,4.2151,4.2185,4.2219,4.2252,4.2286,4.2286,4.2286,4.232,4.3064,4.3341,4.3274,4.2455,4.2117,4.1847,3.9774,3.886,3.8488,3.6378,3.7418,3.9858,0.0,0.0,0.0,0.0,0.0,0.0,0.0,0.0,0.0,0.0,0.0,0.0,0.0,2.9397,3.1121,3.1923,3.2685,3.2619,3.1489,0.0,0.0,0.0,0.0,0.0,0.0,0.0,3.1989,3.3715,3.5487,3.6603,3.711,3.7381,3.7516,3.7516,3.7787,3.7313,3.6265,3.5936,3.5173,3.4058,3.263,3.0805,0.0,0.0,0.0,0.0,0.0,0.0,0.0,0.0,0.0,0.0,0.0,0.0,0.0,0.0,0.0,0.0,0.0,0.0,0.0,0.0,0.0,0.0,0.0,0.0,0.0,0.0,0.0,0.0,0.0,0.0,0.0,0.0,0.0,0.0,0.0,0.0,0.0,3.5407,3.569,0.0,3.5392,3.5745,3.5892,3.5698,3.7316,3.8802,3.9851,4.0189,4.0798,4.188,4.2151,4.2286,4.2286,4.276,4.3031,4.3031,4.3504,4.4012,4.4485,4.4485,4.4756,4.5196,4.5466,4.5602,4.5568,4.5297,4.4925,4.4451,4.4147,4.4012,4.391,4.3098,4.347,4.4384,0.0,0.0,0.0,0.0,0.0,0.0,0.0,0.0,0.0,0.0,0.0,2.7394,2.856,3.0838,3.2482,3.3083,3.4253,3.4085,3.205,0.0,0.0,0.0,0.0,0.0,0.0,3.1393,3.3626,3.5656,3.6671,3.7415,3.7922,3.8159,3.8261,3.8294,3.8531,3.8633,3.8599,3.7879,3.7035,3.616,3.4843,3.2511,2.9795,0.0,0.0,0.0,0.0,0.0,0.0,0.0,0.0,0.0,0.0,0.0,0.0,0.0,0.0,0.0,0.0,0.0,0.0,0.0,0.0,0.0,0.0,0.0,0.0,0.0,0.0,0.0,0.0,0.0,0.0,0.0,0.0,0.0,0.0,0.0,3.51,3.6558,3.6772,3.7043,3.7787,3.8328,3.8836,3.9343,4.1204,4.2286,4.2286,4.2523,4.2658,4.2658,4.3166,4.3436,4.3436,4.4181,4.4553,4.4553,4.5094,4.5602,4.6075,4.6075,4.5906,4.5703,4.6447,4.6346,4.5737,4.6752,4.6887,4.6481,4.6718,4.6786,4.6786,4.6786,4.6786,4.6844,0.0,0.0,0.0,0.0,0.0,0.0,0.0,0.0,0.0,0.0,2.7167,2.8614,3.127,3.2784,3.3878,3.4544,3.5191,3.374,2.9382,2.8976,0.0,0.0,0.0,0.0,3.3288,3.3491,3.4979,3.7922,3.7922,3.7956,3.799,3.87,3.9039,3.9073,3.9774,4.0113,4.0045,3.9334,3.889,3.8508,3.672,3.4835,3.2901,0.0,0.0,0.0,0.0,0.0,0.0,0.0,0.0,0.0,0.0,0.0,0.0,0.0,0.0,0.0,0.0,0.0,0.0,0.0,0.0,0.0,0.0,0.0,0.0,0.0,0.0,0.0,0.0,0.0,0.0,0.0,0.0,0.0,3.1005,3.3652,3.658,3.8836,4.0358,4.1508,4.2219,4.232,4.232,4.232,4.2354,4.2388,4.2388,4.3031,4.3375,4.3375,4.4857,4.5635,4.5635,4.6413,4.6786,4.6786,4.6786,4.6819,4.6819,4.6819,4.5635,4.368,4.594,4.5635,4.3815,4.679,4.8007,4.7906,4.7158,4.6853,4.6853,4.6887,4.6921,4.7005,0.0,0.0,0.0,0.0,0.0,0.0,0.0,0.0,0.0,0.0,2.6956,2.8754,2.9904,3.2151,3.3878,3.4544,3.4759,3.3873,3.1562,0.0,0.0,0.0,0.0,0.0,3.3322,3.5554,3.7347,3.87,3.87,3.8971,3.9503,3.9706,3.9808,3.9808,4.0011,4.0113,4.0104,4.0299,4.0117,3.9617,3.8832,3.7137,3.5154,0.0,0.0,0.0,0.0,0.0,0.0,0.0,0.0,0.0,0.0,0.0,0.0,0.0,0.0,0.0,0.0,0.0,0.0,0.0,0.0,0.0,0.0,0.0,0.0,0.0,0.0,0.0,0.0,0.0,0.0,0.0,0.0,3.7597,3.7162,3.8138,3.9478,4.117,4.1745,4.2083,4.2286,4.2794,4.3098,4.3098,4.3639,4.4181,4.4756,4.3403,4.2861,4.3375,4.3815,4.4018,4.4018,4.5872,4.6786,4.6786,4.6786,4.709,4.7597,4.7597,4.7564,4.753,4.868,4.8815,4.8376,4.9729,5.0272,5.0168,4.8883,4.8409,4.8477,4.8984,4.9526,4.9726,0.0,0.0,0.0,0.0,0.0,0.0,0.0,0.0,0.0,0.0,2.7364,2.9124,3.0513,3.2667,3.4202,3.4592,3.4854,3.3729,3.063,0.0,0.0,0.0,0.0,3.251,3.569,3.7449,3.8734,3.9469,3.9469,3.9673,4.0113,4.0113,4.0113,4.0113,4.0113,4.0113,4.0138,4.0441,4.0504,4.0436,4.0459,3.9025,3.6958,3.7817,3.6763,3.4835,3.4835,3.4835,3.4578,3.2816,0.0,0.0,0.0,0.0,0.0,0.0,0.0,0.0,0.0,0.0,0.0,0.0,0.0,0.0,0.0,0.0,0.0,0.0,0.0,0.0,0.0,0.0,0.0,0.0,3.7219,4.0246,4.1544,4.1316,4.1441,4.2625,4.276,4.2895,4.3234,4.3944,4.4384,4.4384,4.506,4.5703,4.6143,4.4891,4.3944,4.3409,4.4626,4.4857,4.391,4.6447,4.7699,4.7733,4.8037,4.8409,4.8849,4.9123,4.9018,4.8612,4.9965,5.0033,4.9289,5.0642,5.1185,5.1083,0.0,0.0,0.0,0.0,5.0845,5.0979,0.0,0.0,0.0,0.0,0.0,0.0,0.0,0.0,0.0,0.0,0.0,2.9626,3.2229,3.3759,3.464,3.4712,3.5036,3.3098,0.0,0.0,0.0,3.2983,3.2814,3.4561,3.8903,3.9073,3.9436,4.0113,4.0113,4.0113,4.0113,4.0113,4.0146,4.0214,4.0214,4.0282,4.035,4.0425,4.0681,4.1116,4.1798,4.0692,3.877,3.9283,3.8505,3.711,3.711,3.711,3.6964,3.5885,0.0,0.0,0.0,0.0,0.0,0.0,0.0,0.0,0.0,0.0,0.0,0.0,0.0,0.0,0.0,0.0,0.0,0.0,0.0,0.0,0.0,0.0,0.0,0.0,3.8908,4.167,4.4344,4.3633,4.3031,4.3578,4.3646,4.3978,4.4784,4.5432,4.5838,4.5838,4.6413,4.6819,4.6921,4.6684,0.0,0.0,0.0,4.6752,4.4886,4.7699,4.9187,4.9255,4.9898,5.0202,5.0236,5.0913,5.0103,4.8379,5.0441,5.0204,4.8578,5.061,5.1455,5.1422,5.1252,5.1219,5.1285,5.0948,5.1083,5.1517,0.0,0.0,0.0,0.0,0.0,0.0,0.0,0.0,0.0,2.7768,2.8357,2.978,3.288,3.4037,3.4807,3.5362,3.39,3.1461,0.0,0.0,2.7368,3.2293,3.3512,3.5622,3.8937,3.9605,3.9977,4.0113,4.0113,4.0113,4.0113,4.0113,4.0417,4.1001,4.1001,4.1305,4.1899,4.238,4.238,4.2125,4.3232,4.2917,4.1893,4.2413,4.2402,4.2119,4.2119,4.2119,4.1789,3.968,3.8946,3.8909,3.8762,0.0,0.0,0.0,0.0,0.0,0.0,0.0,0.0,0.0,0.0,0.0,0.0,0.0,0.0,0.0,0.0,0.0,0.0,0.0,0.0,3.9778,4.2508,4.4823,4.5399,4.5737,4.5771,4.5331,4.5263,4.5568,4.6278,4.6481,4.6583,4.6583,4.6718,4.7056,4.7665,4.6007,4.5094,4.5263,4.5838,4.621,4.6346,4.8714,5.0202,5.0777,5.0947,0.0,5.1014,5.1117,5.0948,5.0642,5.1657,5.186,5.1522,5.2604,5.3078,5.2942,5.1691,5.1589,5.1792,4.9393,5.0473,5.2739,0.0,0.0,0.0,0.0,0.0,0.0,0.0,0.0,0.0,0.0,2.7879,2.9414,3.2002,3.2341,3.2801,3.3842,3.1562,0.0,0.0,2.8822,3.0412,3.4912,3.5791,3.7246,3.9503,3.991,4.0113,4.0113,4.0113,4.0113,4.0113,4.0485,4.0832,4.1238,4.1576,4.1948,4.2313,4.262,4.2749,4.28,4.3402,4.3553,4.3406,4.4044,4.4474,4.4709,4.4709,4.4709,4.4525,4.3314,4.291,4.291,4.291,4.1772,3.9811,0.0,0.0,0.0,0.0,0.0,0.0,0.0,0.0,0.0,0.0,0.0,0.0,0.0,0.0,3.7113,0.0,0.0,4.0342,4.133,4.3199,4.4959,4.6075,4.6549,4.665,4.6278,4.6244,4.638,4.6752,4.7124,4.7361,4.7361,4.7699,4.8071,4.8443,4.7733,4.6989,4.6278,4.7699,4.8105,4.7361,4.956,5.0845,5.1185,5.1589,5.1758,5.1758,5.2164,5.2367,5.2367,5.2739,5.2909,5.2942,5.3348,5.3518,5.3416,5.2672,5.257,5.2739,5.1251,5.1894,5.3281,0.0,0.0,0.0,0.0,0.0,0.0,0.0,0.0,0.0,0.0,2.7392,2.8752,3.0779,3.0345,3.0176,0.0,0.0,0.0,0.0,3.1157,3.3355,3.7719,3.7922,3.8599,4.0079,4.0113,4.0113,4.0113,4.0113,4.018,4.035,4.0933,4.1373,4.1644,4.2252,4.2591,4.2753,4.2753,4.3011,4.3467,4.3592,4.3903,4.4366,4.5058,4.553,4.5736,4.5736,4.581,4.5883,4.5883,4.5883,4.5883,4.5883,4.5883,4.4782,3.9129,3.9313,0.0,0.0,0.0,0.0,0.0,0.0,0.0,0.0,0.0,3.9296,3.8269,3.8523,3.8944,3.9101,3.972,4.0886,4.284,4.3809,4.4925,4.6752,4.7124,4.7225,4.7225,4.709,4.7056,4.7192,4.7767,4.8108,4.8108,4.8815,4.9221,4.9221,4.9898,4.9492,4.7699,4.9965,5.0439,4.8781,5.0541,5.1488,5.1624,5.2266,5.2536,5.257,5.3213,5.3518,5.3518,5.3518,5.3518,5.3518,5.3518,5.3518,5.3518,5.3518,5.3584,5.3684,5.3551,5.3584,5.3717,0.0,0.0,0.0,0.0,0.0,0.0,0.0,0.0,0.0,0.0,0.0,0.0,0.0,0.0,0.0,0.0,0.0,0.0,2.9247,3.1075,3.3884,3.7753,3.7922,3.8599,4.0079,4.0113,4.0113,4.0113,4.0113,4.0451,4.1068,4.117,4.1914,4.3139,4.324,4.3673,4.4344,4.4344,4.4372,4.451,4.5026,4.5277,4.5405,4.5999,4.5765,4.51,4.51,4.5452,4.5883,4.5883,4.5883,4.5883,4.5883,4.5883,4.5333,4.247,0.0,4.0891,3.5092,3.1955,3.1,3.3779,3.6755,3.9047,0.0,0.0,4.5609,4.308,4.4611,4.6235,4.584,4.6227,4.6584,4.6326,4.6921,4.7466,4.7736,4.8342,4.8748,4.8748,4.8206,4.8037,4.868,4.8849,4.8883,4.8883,4.956,4.9965,4.9965,5.0676,5.0948,5.0744,5.1016,5.142,5.1792,5.2063,5.2536,5.3247,5.3348,5.3382,5.3382,5.345,5.3518,5.3518,5.3518,5.3518,5.3518,5.3518,5.3518,5.3518,5.3518,5.3913,5.4388,5.375,5.3913,5.4482,0.0,0.0,0.0,0.0,0.0,0.0,0.0,0.0,0.0,0.0,0.0,0.0,0.0,0.0,0.0,0.0,0.0,0.0,2.8247,3.0804,3.3986,3.7753,3.7922,3.8599,4.0079,4.0113,4.0113,4.0113,4.0113,4.0282,4.0561,4.1441,4.2151,4.2794,4.3707,4.4282,4.4643,4.4988,4.5115,4.5196,4.5765,4.6014,4.6063,4.6294,4.6391,4.6158,4.4277,4.4013,0.0,0.0,4.4488,4.4819,4.6728,4.5993,4.4322,4.3277,4.1662,0.0,3.7546,3.7327,3.8041,0.0,4.1973,4.4,4.4174,4.5947,4.7157,4.5662,4.6584,4.7533,4.6922,4.63,4.6243,0.0,4.6989,4.709,4.8376,4.8815,4.9154,4.9593,4.7868,4.6921,4.7631,4.8883,4.9289,4.8443,4.983,5.0744,5.0744,5.1454,5.186,5.186,5.23,5.2706,5.301,5.301,5.3179,5.3518,5.3518,5.3518,5.3518,5.3518,5.3518,5.3518,5.3518,5.3518,5.3518,5.3518,5.3518,5.3518,5.3518,5.3684,5.3979,5.4106,5.4606,5.5232,0.0,0.0,0.0,0.0,0.0,0.0,0.0,0.0,0.0,0.0,0.0,0.0,0.0,0.0,0.0,0.0,0.0,0.0,0.0,3.077,3.3884,3.7449,3.7787,3.8497,3.9774,4.0011,4.0113,4.0113,4.0113,4.0214,4.0451,4.1677,4.2388,4.2658,4.4164,4.4824,4.4879,4.5468,4.5775,4.5765,4.6198,4.6389,4.6389,4.6389,4.6284,4.574,4.3192,4.265,0.0,0.0,4.2266,4.3387,4.4599,4.4158,4.3001,4.2119,3.9863,3.779,3.8319,3.9875,0.0,4.312,4.5165,4.6977,4.7516,4.7812,4.7885,4.7432,4.7632,4.7723,4.748,4.6515,4.6346,4.797,4.7327,4.7259,4.9052,4.9289,4.9289,4.9187,4.7293,4.5737,4.5026,4.753,4.9086,4.8818,5.0507,5.1522,5.1522,5.2232,5.2638,5.2638,5.3213,5.3518,5.3518,5.3518,5.3518,5.3518,5.3518,5.3518,5.3518,5.3518,5.3518,5.3518,5.3518,5.3518,5.3518,5.3518,5.3518,5.3518,5.3518,5.3618,5.3881,5.4637,5.5232,5.5752,0.0,0.0,0.0,0.0,0.0,0.0,0.0,0.0,0.0,0.0,0.0,0.0,0.0,0.0,0.0,0.0,0.0,0.0,0.0,3.1075,3.3647,3.6694,3.7516,3.8261,3.9005,3.974,4.0113,4.0113,4.0113,4.0485,4.117,4.1948,4.2692,4.343,4.4844,4.5468,4.5494,4.6136,4.6365,4.6365,4.6389,4.6389,4.6389,4.6389,4.4862,4.2652,4.1732,0.0,0.0,0.0,3.9093,4.1662,3.7845,3.9276,0.0,3.8594,3.645,3.533,0.0,0.0,3.6985,4.0907,4.3664,4.5835,4.7351,4.8268,4.8761,4.8737,4.827,4.8135,4.8815,4.8917,4.8883,4.8951,4.8951,4.9187,4.9965,5.0067,4.9255,4.7124,4.6819,4.506,0.0,4.4316,4.8071,5.0881,5.1826,5.2266,5.2266,5.3044,5.345,5.345,5.3484,5.3518,5.3518,5.3518,5.3518,5.3518,5.3518,5.3518,5.3518,5.3518,5.3518,5.3518,5.3518,5.3518,5.3518,5.3518,5.3518,5.3518,5.3518,5.3946,5.4634,5.5408,5.5695,5.5808,0.0,0.0,0.0,0.0,0.0,0.0,0.0,0.0,0.0,0.0,0.0,0.0,0.0,0.0,0.0,0.0,0.0,0.0,0.0,2.8874,3.1447,3.4404,3.6705,3.8261,3.8971,3.974,4.0113,4.0113,4.0113,4.0248,4.0493,4.1204,4.1948,4.2692,4.3681,4.4402,4.4988,4.5965,4.6389,4.646,4.7306,4.7658,4.7441,4.5279,4.3923,4.2539,0.0,0.0,0.0,0.0,3.3954,3.5202,3.6046,3.5716,3.4651,3.2485,3.4215,3.6686,3.6167,0.0,4.1507,4.3134,4.5639,4.7788,4.8305,4.8673,4.8881,4.8915,4.7817,4.6696,4.618,4.4722,4.4114,4.5794,4.5196,4.5838,4.956,4.8,4.7458,5.0135,4.7428,0.0,0.0,0.0,0.0,4.7564,5.1014,5.3112,5.3112,5.3348,5.3518,5.3518,5.3518,5.3518,5.3518,5.3518,5.3518,5.3518,5.3518,5.3518,5.3518,5.3518,5.3518,5.3518,5.3518,5.3518,5.3518,5.3518,5.3518,5.3518,5.3518,5.3946,5.4665,5.5437,5.6031,5.6616,0.0,0.0,0.0,0.0,0.0,0.0,0.0,0.0,0.0,0.0,0.0,0.0,0.0,0.0,0.0,0.0,0.0,0.0,0.0,0.0,2.8991,3.1698,3.4201,3.5723,3.6197,3.8014,3.8928,3.8928,3.9706,4.0113,4.0113,4.0832,4.1441,4.1974,4.3425,4.438,4.4967,4.6447,4.7088,4.7046,4.6718,4.6581,4.6214,4.302,4.1038,0.0,0.0,0.0,0.0,2.9634,3.0222,3.1507,3.2205,3.1531,3.076,3.1783,3.4721,3.768,3.7862,4.123,4.4836,4.5485,4.7631,4.9562,4.9278,4.9465,4.9604,4.9389,4.8425,4.7074,4.5159,4.3769,4.3407,4.4947,4.4489,4.5534,5.0236,4.8849,4.8274,5.0811,4.8173,4.7259,0.0,0.0,0.0,4.6955,5.0236,5.2164,5.1928,5.2131,5.2672,5.3484,5.3518,5.3518,5.3518,5.3518,5.3518,5.3518,5.3518,5.3518,5.3518,5.3518,5.2909,5.1961,5.3044,5.2909,5.1994,5.3341,5.3881,5.3913,5.4203,5.4575,5.5119,5.5836,5.6447,5.6989,0.0,0.0,0.0,0.0,0.0,0.0,0.0,0.0,0.0,0.0,0.0,0.0,0.0,0.0,0.0,0.0,0.0,0.0,0.0,0.0,0.0,2.8739,3.0311,3.1157,3.119,3.473,3.6592,3.6626,3.8749,3.9799,3.9774,4.0485,4.0857,4.0951,4.3617,4.482,4.4994,4.6993,4.7827,4.7571,4.4525,4.3277,4.291,3.968,0.0,0.0,0.0,0.0,0.0,0.0,0.0,0.0,2.71,2.7603,3.0527,3.5915,3.7644,3.8452,4.1001,4.4053,4.6786,4.7744,4.9597,5.0955,5.0202,5.0527,5.0779,4.9868,4.9623,4.8557,0.0,0.0,4.604,4.6094,4.6283,4.78,5.1589,5.2063,5.1285,0.0,0.0,0.0,0.0,0.0,0.0,4.9018,0.0,4.9965,4.9255,4.9898,5.1251,5.345,5.3518,5.3518,5.3518,5.3518,5.3518,5.3518,5.3518,5.3518,5.3518,5.3518,5.196,4.9452,5.2298,5.1958,4.961,5.3184,5.4634,5.4726,5.5437,5.5752,5.5865,5.6616,5.6912,5.704,0.0,0.0,0.0,0.0,0.0,0.0,0.0,0.0,0.0,0.0,0.0,0.0,0.0,0.0,0.0,0.0,0.0,0.0,0.0,0.0,0.0,0.0,0.0,0.0,0.0,0.0,0.0,0.0,0.0,3.5407,3.5115,3.5612,3.5966,3.6254,3.7271,3.8334,3.9499,4.0766,4.1288,4.1252,0.0,4.0451,3.957,0.0,0.0,0.0,0.0,0.0,0.0,0.0,0.0,0.0,0.0,3.4761,3.6149,3.5783,3.9179,4.2851,4.1767,4.5561,4.9734,4.95,5.0682,5.1519,5.0279,5.0146,4.9403,4.619,4.4505,4.2486,0.0,0.0,0.0,4.2378,4.2355,0.0,4.9086,4.8883,0.0,4.9695,0.0,5.0168,5.115,5.1928,0.0,0.0,5.1251,5.257,5.2367,5.2536,5.2909,5.3484,5.3518,5.3518,5.3518,5.3518,5.3518,5.3518,5.3518,5.3518,5.3518,5.3518,5.3374,5.3222,5.3983,5.4187,5.4087,5.4998,5.5437,5.5437,5.5638,5.6059,5.6616,5.6835,5.7252,5.775,0.0,0.0,0.0,0.0,0.0,0.0,0.0,0.0,0.0,0.0,0.0,0.0,0.0,0.0,0.0,0.0,0.0,0.0,0.0,0.0,0.0,0.0,0.0,0.0,0.0,0.0,0.0,0.0,0.0,0.0,0.0,3.3888,3.4109,3.4315,3.5316,3.6255,3.7122,3.8294,0.0,0.0,0.0,0.0,0.0,0.0,0.0,0.0,0.0,0.0,0.0,0.0,0.0,3.3403,3.8799,4.0157,4.013,4.1958,0.0,4.6302,4.581,4.852,5.1323,5.0664,5.1317,5.1431,4.8876,4.8287,4.7251,4.3571,4.2027,0.0,3.7177,3.6395,0.0,0.0,0.0,0.0,4.8781,4.8748,4.8714,0.0,5.0101,0.0,5.3281,5.3518,5.2807,0.0,5.1623,5.186,5.1555,5.1826,5.2469,5.3484,5.3518,5.3518,5.3518,5.3518,5.3518,5.3518,5.3518,5.3518,5.3518,5.3849,5.3479,5.2726,5.4376,5.4576,5.3921,5.5552,5.6232,5.6259,5.658,5.6978,5.7376,5.7376,5.7874,5.8547,0.0,0.0,0.0,0.0,0.0,0.0,0.0,0.0,0.0,0.0,0.0,0.0,0.0,0.0,0.0,0.0,0.0,0.0,0.0,0.0,0.0,0.0,0.0,0.0,0.0,0.0,0.0,0.0,0.0,0.0,0.0,0.0,0.0,0.0,0.0,0.0,0.0,0.0,0.0,0.0,0.0,0.0,0.0,0.0,0.0,0.0,0.0,0.0,0.0,0.0,3.689,3.5973,4.3901,4.4562,4.3576,4.9662,5.0262,4.9204,5.0294,5.1394,5.2089,5.1393,5.1716,5.1302,4.7717,4.6485,4.5204,4.1943,0.0,4.0055,3.8115,3.8829,4.0633,4.343,0.0,4.5711,4.8541,4.9526,4.983,4.9526,4.9864,5.098,5.3281,5.3247,5.3179,5.3484,5.1657,5.027,4.9627,5.0202,5.1454,5.345,5.3518,5.3518,5.3518,5.3518,5.3518,5.3518,5.3518,5.3518,5.3551,5.4264,5.3241,5.1017,5.4416,5.4474,5.2452,5.5707,5.704,5.7127,5.786,5.8143,5.818,5.829,5.8767,5.9368,0.0,0.0,0.0,0.0,0.0,0.0,0.0,0.0,0.0,0.0,2.8464,2.7853,0.0,0.0,0.0,0.0,0.0,0.0,0.0,0.0,0.0,0.0,0.0,0.0,0.0,0.0,0.0,0.0,0.0,0.0,0.0,0.0,0.0,0.0,0.0,0.0,0.0,0.0,0.0,0.0,0.0,0.0,0.0,0.0,0.0,0.0,0.0,0.0,0.0,0.0,3.8762,4.001,4.682,4.904,4.8984,4.817,5.0041,5.1721,4.877,5.0431,5.2813,5.2112,5.2486,5.2689,5.1338,4.851,0.0,0.0,3.9138,3.7502,3.8344,3.9421,4.1235,4.4443,4.5281,4.488,4.3003,4.6481,4.8511,0.0,4.8612,5.098,5.3281,5.1792,0.0,0.0,5.3145,5.2841,5.2739,5.2841,5.3078,5.3484,5.3518,5.3518,5.3518,5.3518,5.3518,5.3518,5.3518,5.3518,5.3551,5.4264,5.4625,5.4804,5.6125,5.674,5.6899,5.7554,5.7797,5.7894,5.8684,5.8964,5.9074,5.9758,6.0089,6.0199,0.0,0.0,0.0,0.0,0.0,0.0,0.0,0.0,2.8773,2.8964,2.8456,2.8058,2.7959,2.8082,0.0,0.0,0.0,0.0,0.0,0.0,0.0,0.0,0.0,0.0,0.0,0.0,0.0,0.0,0.0,0.0,0.0,0.0,0.0,0.0,0.0,0.0,0.0,0.0,0.0,0.0,0.0,0.0,0.0,0.0,0.0,0.0,0.0,0.0,0.0,0.0,3.7,3.946,4.7645,5.0472,5.0472,4.8857,5.0692,5.2501,4.9284,5.078,5.3103,5.2769,5.2937,5.2004,4.7441,0.0,0.0,0.0,3.5214,3.4782,3.5952,3.6724,0.0,4.4143,4.4927,4.5355,4.6821,4.8528,0.0,4.8694,4.9464,5.0507,0.0,5.0744,5.0541,5.1657,5.1725,5.2232,5.345,5.3518,5.3518,5.3518,5.3518,5.3518,5.3518,5.3518,5.3518,5.3518,5.3881,5.4074,5.4106,5.5267,5.5984,5.6367,5.7141,5.6729,5.5647,5.7776,5.7629,5.6381,5.8877,5.9808,5.9869,6.0272,6.0676,6.1006,0.0,0.0,0.0,0.0,0.0,0.0,0.0,2.9078,2.9055,2.9023,2.8448,2.8301,2.8913,2.884,2.8429,0.0,0.0,0.0,0.0,0.0,0.0,0.0,0.0,0.0,0.0,0.0,0.0,0.0,0.0,0.0,0.0,0.0,0.0,0.0,0.0,0.0,0.0,0.0,0.0,0.0,0.0,0.0,0.0,0.0,0.0,0.0,0.0,0.0,0.0,0.0,3.4688,3.7294,4.5993,4.8967,4.926,4.9297,5.0802,5.2123,5.0692,5.172,5.3203,5.3203,5.3203,5.1295,4.403,4.2359,0.0,0.0,3.2669,3.3096,3.4798,3.5329,3.7619,0.0,4.4105,4.5156,5.0444,4.9959,4.9634,0.0,5.0873,0.0,5.1241,5.0864,0.0,5.106,5.1063,5.1749,5.3416,5.3651,5.3651,5.3518,5.3651,5.3685,5.3518,5.3518,5.3584,5.375,5.4328,5.4665,5.4878,5.6259,5.6912,5.6938,5.7679,5.6271,5.3775,5.7607,5.7409,5.506,5.9098,6.0676,6.0676,6.086,6.13,6.1851,0.0,0.0,0.0,0.0,0.0,0.0,0.0,2.9343,2.9296,2.9021,2.895,2.8913,2.8987,2.8338,2.8143,0.0,0.0,0.0,0.0,0.0,0.0,0.0,0.0,0.0,0.0,0.0,0.0,0.0,0.0,0.0,0.0,0.0,0.0,0.0,0.0,0.0,0.0,0.0,0.0,0.0,0.0,0.0,0.0,0.0,0.0,0.0,0.0,0.0,0.0,0.0,0.0,3.4945,4.0288,4.2983,4.4709,4.7572,0.0,0.0,5.2344,5.3041,5.3203,5.3203,5.3203,5.2029,4.7553,0.0,0.0,3.7676,3.4614,3.3977,3.8505,3.9355,4.0892,0.0,0.0,4.2207,0.0,0.0,0.0,5.0844,0.0,0.0,5.4994,5.3356,5.2727,5.4091,5.4202,5.3994,5.3517,5.4139,5.4168,5.3517,5.4171,5.4203,5.3518,5.3518,5.3849,5.4513,5.4575,5.4969,5.5638,5.651,5.6912,5.6938,5.7679,5.6602,5.4546,5.7827,5.774,5.5868,5.9905,6.1484,6.1594,6.2328,6.2658,6.2695,0.0,0.0,0.0,0.0,0.0,0.0,0.0,2.9483,2.9343,2.9228,2.8669,2.8473,2.895,2.8264,2.8117,0.0,0.0,0.0,0.0,0.0,0.0,0.0,0.0,0.0,0.0,0.0,0.0,0.0,0.0,0.0,0.0,0.0,0.0,0.0,0.0,0.0,0.0,0.0,0.0,0.0,0.0,0.0,0.0,0.0,0.0,0.0,0.0,0.0,0.0,0.0,0.0,0.0,3.4504,3.6376,0.0,0.0,4.5883,4.871,4.8233,5.0598,5.3203,5.3203,5.3203,5.1479,4.4948,0.0,4.1258,3.5105,3.355,3.3917,3.5862,3.6229,3.7616,0.0,0.0,0.0,4.8914,0.0,0.0,5.4118,5.4492,0.0,0.0,0.0,5.2644,5.324,5.2852,5.3271,5.4748,5.5084,5.5114,5.4818,5.4665,5.4451,5.4136,5.3717,5.3848,5.4637,5.5024,5.5667,5.6447,5.7216,5.7546,5.7607,5.8393,5.5978,0.0,5.8107,5.7813,5.4032,5.9979,6.2328,6.2365,6.2695,6.278,6.278,0.0,0.0,0.0,0.0,0.0,2.9596,2.9758,2.9688,2.9551,2.9513,2.8832,2.8598,2.9143,2.8709,2.8566,2.9049,0.0,0.0,0.0,0.0,0.0,0.0,0.0,0.0,0.0,0.0,0.0,2.7299,2.764,2.7798,0.0,0.0,0.0,0.0,0.0,0.0,0.0,0.0,0.0,0.0,0.0,0.0,0.0,0.0,0.0,0.0,0.0,0.0,0.0,0.0,0.0,0.0,0.0,0.0,0.0,0.0,4.3204,4.7021,4.603,4.9407,5.3203,5.3203,5.247,4.9865,0.0,0.0,4.0047,3.2902,3.2669,3.3807,3.3807,3.3807,3.5128,0.0,0.0,4.1651,4.9128,4.9256,0.0,0.0,0.0,5.446,0.0,5.3872,5.3742,5.3742,5.3262,5.3858,5.596,5.625,5.6169,5.5724,5.5408,5.5179,5.4939,5.4422,5.4548,5.5297,5.5808,5.5981,5.5849,5.7311,5.7593,5.7005,5.8547,5.6381,0.0,5.8877,5.851,5.4363,6.0456,6.278,6.278,6.278,6.278,6.278,0.0,0.0,0.0,0.0,0.0,0.0,0.0,2.9999,2.9924,2.9712,2.9677,2.9677,2.9677,2.9677,2.9579,2.9404,0.0,0.0,0.0,0.0,0.0,0.0,0.0,0.0,0.0,0.0,2.8987,2.8987,2.8191,2.7798,2.7798,2.6979,2.7053,0.0,0.0,0.0,0.0,0.0,0.0,0.0,0.0,0.0,0.0,0.0,0.0,0.0,0.0,0.0,0.0,0.0,0.0,0.0,0.0,0.0,0.0,0.0,4.1589,4.5241,4.7609,5.0692,5.3203,5.3203,5.0765,4.7095,0.0,3.9884,3.7367,3.2412,3.2669,3.3807,3.3807,3.3807,3.5128,3.9239,0.0,0.0,4.5406,4.5957,0.0,0.0,0.0,5.357,5.7533,5.729,5.685,5.685,5.685,0.0,5.6887,5.757,5.729,5.5752,5.6447,5.6474,5.5724,5.5695,5.6059,5.6887,5.6887,5.5583,5.335,5.6528,5.6712,5.462,5.779,5.8267,0.0,6.0236,6.0162,5.8253,6.152,6.278,6.278,6.278,6.278,6.278,0.0,0.0,0.0,0.0,0.0,0.0,0.0,3.0122,2.9984,2.9916,2.978,2.9686,2.9686,2.9686,2.9651,2.9616,0.0,0.0,0.0,0.0,0.0,0.0,0.0,0.0,0.0,0.0,2.8987,2.8987,2.873,2.862,2.8583,2.7787,2.7567,2.7798,2.7798,0.0,0.0,0.0,0.0,0.0,0.0,0.0,0.0,0.0,0.0,0.0,0.0,0.0,0.0,0.0,0.0,0.0,0.0,0.0,0.0,0.0,0.0,0.0,4.0194,4.2873,4.5626,4.5058,4.4141,4.2233,3.7903,3.7441,3.6648,3.2315,3.2669,3.3807,3.3807,3.3807,3.5128,3.9239,3.99,0.0,0.0,0.0,0.0,5.5611,5.6088,5.6602,0.0,0.0,5.5438,5.7485,5.5741,5.5474,5.7545,5.7844,5.7774,5.729,5.704,5.6773,5.6501,5.5976,5.6087,5.6912,5.6912,5.5607,5.3314,5.6528,5.6675,5.462,5.84,5.8804,5.7116,6.086,6.0676,5.8327,6.1557,6.278,6.278,6.278,6.278,6.278,0.0,0.0,0.0,0.0,0.0,0.0,0.0,3.026,3.015,3.015,3.0044,2.9969,2.9969,2.9969,2.9939,2.9821,0.0,0.0,0.0,0.0,0.0,0.0,0.0,0.0,0.0,2.927,2.9156,2.9156,2.9044,2.9044,2.9119,2.8281,2.7922,2.7922,2.7922,0.0,0.0,0.0,0.0,0.0,0.0,0.0,2.9831,0.0,0.0,0.0,0.0,0.0,0.0,0.0,0.0,0.0,0.0,0.0,0.0,0.0,3.3954,0.0,0.0,3.9019,4.1735,4.1242,4.0178,0.0,0.0,3.5569,3.4908,3.2375,3.41,3.5642,3.4064,3.5055,3.6413,3.7441,4.0157,4.3387,0.0,0.0,0.0,5.3592,0.0,0.0,0.0,5.6314,5.5988,5.7863,5.6254,5.6012,5.79,5.7997,5.7997,5.7997,5.7546,5.7327,5.7327,5.6825,5.6825,5.7327,5.7327,5.5882,5.3314,5.6859,5.7152,5.506,5.9098,6.0162,0.0,6.1777,6.163,6.0015,6.2034,6.278,6.278,6.278,6.278,6.278,0.0,0.0,0.0,0.0,0.0,0.0,0.0,0.0,0.0,3.0385,3.0385,3.0385,3.0385,3.0385,3.0286,3.0042,0.0,0.0,0.0,0.0,0.0,0.0,0.0,0.0,0.0,2.9504,2.9404,2.9384,2.9178,2.9178,2.9384,2.8529,2.8128,2.8138,2.8128,2.8056,2.7967,2.8713,2.9033,2.9021,2.9044,2.9007,0.0,0.0,0.0,0.0,0.0,0.0,0.0,0.0,0.0,0.0,0.0,0.0,0.0,0.0,0.0,0.0,0.0,3.7991,0.0,0.0,0.0,0.0,3.5862,3.4137,0.0,3.2949,3.6707,3.8726,3.4945,3.7551,3.8982,3.4908,4.0781,4.4599,0.0,4.4525,0.0,0.0,5.161,0.0,5.7446,5.785,5.7997,5.7997,5.7997,5.7997,5.7997,5.7997,5.7997,5.7997,5.7997,5.7997,5.7997,5.7997,5.7886,5.7666,5.7886,5.6235,5.3078,5.7276,5.7923,5.5904,5.9869,6.2071,6.278,6.278,6.278,6.278,6.278,6.278,6.278,6.278,6.278,6.278,0.0,0.0,0.0,0.0,0.0,0.0,0.0,0.0,0.0,0.0,3.0385,3.0385,3.0385,3.0385,3.0367,0.0,0.0,0.0,0.0,0.0,0.0,0.0,0.0,0.0,0.0,2.972,2.9542,2.9384,2.9485,2.9485,2.9394,2.868,2.8373,2.8399,2.8365,2.8596,2.9052,2.94,2.9436,2.9301,2.9475,2.913,0.0,0.0,0.0,0.0,3.0044,3.0039,0.0,0.0,0.0,0.0,0.0,0.0,0.0,0.0,3.0189,2.9979,3.0563,0.0,3.2619,3.1995,3.1262,3.0858,0.0,3.1641,3.2742,3.6486,3.8652,3.9622,3.8652,4.1772,4.3167,3.9129,4.2653,4.5773,4.5461,0.0,0.0,4.8323,5.3445,5.6418,5.4509,5.6565,5.7997,5.7997,5.7997,5.7997,5.7997,5.7997,5.7997,5.7997,5.7997,5.7997,5.7997,5.7997,5.6748,5.4363,5.6822,5.5317,5.0582,5.6506,5.8194,5.6712,6.0126,6.2071,6.278,6.278,6.278,6.278,6.278,6.278,6.278,6.278,6.278,6.278,0.0,0.0,0.0,0.0,0.0,0.0,0.0,0.0,0.0,0.0,0.0,0.0,0.0,0.0,0.0,0.0,0.0,0.0,0.0,0.0,0.0,0.0,0.0,0.0,3.017,2.9947,2.978,2.9697,2.9677,2.9677,2.966,2.9288,2.8943,2.8624,2.8507,2.8637,2.8961,2.9473,2.9653,2.9542,2.9671,0.0,0.0,0.0,0.0,0.0,2.9945,2.9898,0.0,2.9763,2.9888,3.0021,0.0,0.0,0.0,0.0,2.9828,2.9322,2.9067,2.9317,2.9977,3.1408,3.0638,3.0234,3.2926,0.0,0.0,0.0,0.0,0.0,3.99,4.1992,4.2873,4.0304,4.2359,0.0,0.0,0.0,5.0729,4.8563,5.1756,5.3885,0.0,5.6124,5.7997,5.7997,5.7997,5.7997,5.7997,5.7997,5.7997,5.7997,5.7997,5.7997,5.7997,5.7997,5.6381,5.3261,5.6455,5.5794,5.194,5.7299,5.9501,5.9024,5.9685,6.1043,6.267,6.1227,6.1484,6.278,6.278,6.278,6.278,6.278,6.278,6.278,0.0,0.0,0.0,0.0,0.0,0.0,0.0,0.0,0.0,0.0,0.0,0.0,0.0,0.0,0.0,0.0,0.0,0.0,0.0,0.0,0.0,0.0,0.0,3.0385,3.0385,3.0163,2.9997,2.9815,2.9671,2.9596,2.9618,2.9806,2.9567,2.9052,2.9004,2.885,2.8709,2.9469,2.9771,2.9738,2.9658,0.0,0.0,0.0,0.0,0.0,0.0,0.0,0.0,2.9984,3.0259,3.0545,3.0724,0.0,0.0,0.0,0.0,0.0,2.9134,2.9131,3.0161,3.4197,3.2693,3.1494,3.6538,0.0,0.0,0.0,0.0,0.0,0.0,4.247,0.0,0.0,0.0,0.0,4.7645,4.926,4.9627,4.8453,4.9811,0.0,5.3078,5.6124,5.7997,5.7997,5.7997,5.7997,5.7997,5.7997,5.7997,5.7997,5.7997,5.7997,5.7997,5.7997,5.6381,5.3261,5.6602,5.6932,5.473,5.8767,6.1006,6.1667,5.9612,0.0,6.256,5.9869,6.0346,6.278,6.278,6.278,6.278,6.278,6.278,6.278,0.0,0.0,0.0,0.0,0.0,0.0,0.0,0.0,0.0,0.0,0.0,0.0,0.0,0.0,0.0,0.0,0.0,0.0,0.0,0.0,0.0,0.0,3.0385,3.0385,3.0385,3.0361,2.9896,2.8977,2.9111,2.876,2.7902,2.8829,2.9586,3.0201,3.0906,3.0661,2.9779,3.0132,3.0143,2.9893,2.9411,0.0,0.0,0.0,0.0,0.0,0.0,0.0,0.0,3.0254,3.0213,3.0106,3.0137,0.0,0.0,0.0,0.0,0.0,2.9394,2.9658,3.1017,3.5092,3.3146,3.1678,3.7257,0.0,0.0,0.0,0.0,0.0,0.0,5.1169,5.2234,0.0,0.0,4.6562,0.0,0.0,5.1573,4.8673,0.0,5.5794,5.3424,5.6124,5.7997,5.7997,5.7997,5.7997,5.7997,5.7997,5.7997,5.7997,5.7997,5.7997,5.7997,5.7997,5.6381,5.324,5.713,5.774,5.5537,5.9575,6.1851,6.2622,0.0,6.234,6.2743,6.2291,6.2365,6.278,6.278,6.278,6.278,6.278,6.278,6.278,0.0,0.0,0.0,0.0,0.0,0.0,0.0,0.0,0.0,0.0,0.0,0.0,0.0,0.0,0.0,0.0,0.0,0.0,0.0,0.0,0.0,3.0385,3.0385,3.0385,3.0385,3.0385,2.9926,2.8976,2.9054,2.8856,2.8395,2.9356,2.9775,2.9737,3.0615,3.0426,2.9551,3.0163,3.0074,2.9513,0.0,0.0,0.0,0.0,0.0,0.0,0.0,0.0,0.0,0.0,3.0164,3.0547,2.9625,0.0,0.0,0.0,0.0,0.0,2.9626,3.0,3.2033,3.8722,3.6247,3.4431,4.324,3.9717,0.0,0.0,0.0,0.0,0.0,0.0,4.8012,4.5388,0.0,5.238,5.0635,5.1993,5.2637,0.0,0.0,5.484,5.3314,5.6124,5.7997,5.7997,5.7997,5.7997,5.7997,5.7997,5.7997,5.7997,5.7997,5.7997,5.7997,5.7997,5.6602,5.3885,5.7519,5.818,5.6381,5.9942,6.2034,6.267,0.0,6.119,6.267,6.0933,6.1227,6.278,6.278,6.278,6.278,6.278,6.278,6.278,0.0,0.0,0.0,0.0,0.0,0.0,0.0,0.0,0.0,0.0,0.0,0.0,0.0,0.0,0.0,0.0,0.0,0.0,0.0,0.0,3.0385,3.0385,3.0385,3.0385,3.0385,3.0192,2.9698,2.8819,2.8819,2.9011,2.9429,3.0077,3.0154,2.9742,3.0429,3.0121,2.9127,2.9813,2.9698,2.9127,0.0,0.0,0.0,0.0,0.0,0.0,0.0,0.0,0.0,0.0,0.0,0.0,0.0,0.0,0.0,3.0167,2.9924,3.0007,3.004,3.049,3.2799,4.0863,0.0,3.6597,4.8416,4.3277,0.0,0.0,0.0,0.0,0.0,4.5388,0.0,4.8746,5.3628,5.6271,5.4583,5.4326,5.4326,5.4326,5.4326,5.4326,5.4326,5.6565,5.7997,5.7997,5.7997,5.7997,5.7997,5.7997,5.7997,5.7997,5.7997,5.7997,5.7997,5.818,5.7336,5.5574,5.8217,5.8951,5.8033,6.0676,6.2218,6.2633,6.0199,6.0529,6.2597,6.0126,6.0603,6.278,6.278,6.278,6.278,6.278,6.278,6.278,0.0,0.0,0.0,0.0,0.0,0.0,0.0,0.0,0.0,0.0,0.0,0.0,0.0,0.0,0.0,0.0,0.0,0.0,0.0,0.0,3.0385,3.0385,3.0385,3.0385,3.0385,2.9621,2.8819,2.8011,2.8011,2.8775,3.0308,3.0385,3.0808,3.1506,3.1583,3.066,2.9088,2.9165,2.9165,2.905,2.8357,0.0,0.0,0.0,0.0,0.0,0.0,0.0,0.0,0.0,0.0,0.0,0.0,0.0,3.0456,3.0393,3.017,3.0151,3.0952,3.145,3.3015,3.845,3.6236,3.6068,4.8967,4.3204,0.0,4.9664,0.0,0.0,0.0,5.0031,4.8893,5.2286,5.3261,5.4509,5.7262,0.0,5.7666,5.7666,5.7666,5.7666,5.7666,5.785,5.7997,5.7997,5.7997,5.7997,5.7997,5.7997,5.7997,5.7997,5.7997,5.7997,5.7997,5.8767,5.9038,5.8854,5.9869,6.0639,6.13,6.2291,6.2743,6.278,6.256,6.256,6.278,6.2523,6.256,6.278,6.278,6.278,6.278,6.278,6.278,6.278,0.0,0.0,0.0,0.0,0.0,0.0,0.0,0.0,0.0,0.0,0.0,0.0,0.0,0.0,0.0,0.0,0.0,0.0,0.0,0.0,2.9583,2.9583,2.9121,2.8852,2.8852,2.9011,2.8934,2.8665,2.8665,2.8973,2.9583,3.0154,3.0577,3.0885,3.0314,2.9704,2.9088,2.9088,2.8819,2.8434,2.9159,2.9506,0.0,0.0,0.0,0.0,0.0,0.0,0.0,0.0,2.8967,2.9165,0.0,2.9967,3.0385,3.0385,3.0343,3.0446,3.1296,3.2108,3.4492,4.185,3.8826,0.0,0.0,4.5677,4.2616,5.3482,4.9921,0.0,0.0,0.0,5.1736,5.2983,5.4876,5.6602,5.7813,5.7997,5.7997,5.7997,5.7997,5.7997,5.7997,5.7997,5.7997,5.7997,5.7997,5.7997,5.7997,5.7997,5.7997,5.7997,5.7997,5.7997,5.7997,5.8804,5.9441,5.9979,6.075,6.1557,6.2365,6.2658,6.278,6.278,6.278,6.278,6.278,6.278,6.278,6.278,6.278,6.278,6.278,6.278,6.278,6.278,0.0,0.0,0.0,0.0,0.0,0.0,0.0,0.0,0.0,0.0,0.0,0.0,0.0,0.0,0.0,0.0,0.0,0.0,0.0,2.9429,2.8973,2.8742,2.8203,2.8011,2.828,2.8588,2.8703,2.8703,2.8973,2.9242,2.9506,3.0115,3.0385,3.0385,2.9775,2.9357,2.9088,2.9088,2.878,2.8396,2.9544,2.9813,0.0,0.0,0.0,0.0,0.0,0.0,0.0,0.0,2.8472,2.8819,0.0,0.0,0.0,3.0385,3.0385,3.0654,3.1775,3.2546,3.4916,4.2644,0.0,0.0,4.975,4.6982,4.4709,5.4473,5.2013,4.7755,4.6728,0.0,0.0,0.0,5.506,5.6859,5.785,5.7997,5.7997,5.7997,5.7997,5.7997,5.7997,5.7997,5.7997,5.7997,5.7997,5.7997,5.7997,5.7997,5.7997,5.7997,5.7997,5.8107,5.84,5.9208,5.9979,6.0786,6.1594,6.2291,6.278,6.278,6.278,6.278,6.278,6.278,6.278,6.278,6.278,6.278,6.278,6.278,6.278,6.278,6.278,6.278,0.0,0.0,0.0,0.0,0.0,0.0,0.0,0.0,0.0,0.0,0.0,0.0,0.0,0.0,0.0,0.0,0.0,0.0,2.9165,2.9088,2.8703,2.7934,2.7895,2.828,2.905,2.8319,2.7895,2.7895,2.8703,2.9544,3.0385,3.0385,3.0385,3.0385,3.0423,2.9967,2.9088,2.9127,2.9127,2.9088,2.9127,2.9621,3.0308,0.0,0.0,0.0,0.0,0.0,0.0,0.0,2.8549,2.8198,0.0,0.0,0.0,3.0462,3.0423,3.0808,3.2506,3.2749,3.393,3.9692,0.0,0.0,4.9748,4.6539,4.3443,5.1552,5.5757,5.6969,5.3775,5.3203,0.0,5.3203,5.3203,5.4363,5.7556,5.7997,5.7997,5.7997,5.7997,5.7997,5.7997,5.7997,5.7997,5.7997,5.7997,5.7997,5.7997,5.7997,5.7997,5.7997,5.7997,5.84,5.9184,6.0015,6.0823,6.1594,6.2438,6.278,6.278,6.278,6.278,6.278,6.278,6.278,6.278,6.278,6.278,6.278,6.278,6.278,6.278,6.278,6.278,6.278,0.0,0.0,0.0,0.0,0.0,0.0,0.0,0.0,0.0,0.0,0.0,0.0,0.0,0.0,0.0,0.0,0.0,0.0,2.9127,2.8005,2.7236,2.7005,2.7005,2.7082,2.7351,2.828,2.8742,2.8742,2.9583,2.9813,2.9506,3.0737,3.066,2.9621,3.2654,3.216,2.9242,3.1666,3.132,2.9165,2.9775,2.9813,2.9467,0.0,0.0,0.0,0.0,0.0,0.0,0.0,0.0,0.0,3.0038,0.0,0.0,3.3962,3.3154,3.2199,3.6276,3.6158,0.0,4.0916,0.0,0.0,0.0,4.5958,0.0,0.0,5.4803,5.4473,5.1242,5.3922,0.0,5.3592,5.5097,5.6895,5.785,5.7997,5.7997,5.7997,5.7997,5.7997,5.7997,5.7997,5.7997,5.7997,5.7997,5.7997,5.7997,5.7997,5.7997,5.7997,5.8547,5.8964,5.9184,6.0566,6.1374,6.1594,6.2438,6.278,6.278,6.278,6.278,6.278,6.278,6.278,6.278,6.278,6.278,6.278,6.278,6.278,6.278,6.278,6.278,6.278,0.0,0.0,0.0,0.0,0.0,0.0,0.0,0.0,0.0,0.0,0.0,0.0,0.0,0.0,0.0,0.0,0.0,0.0,0.0,0.0,2.6621,2.6621,2.6621,2.6928,2.7582,2.8929,2.9429,2.9088,2.9621,2.9775,2.9621,3.0698,3.0621,2.9737,3.2692,3.2352,2.9737,3.1814,3.1506,2.9621,2.9813,2.9583,2.9011,0.0,0.0,0.0,0.0,0.0,0.0,0.0,0.0,0.0,3.0115,0.0,0.0,3.3923,3.4192,3.4903,3.8159,3.8204,0.0,4.4976,4.4476,4.3065,4.5296,0.0,0.0,0.0,5.5831,5.5244,5.3298,5.5721,0.0,5.5427,5.6748,5.7997,5.7997,5.7997,5.7997,5.7997,5.7997,5.7997,5.7997,5.7997,5.7997,5.7997,5.7997,5.7997,5.7997,5.7997,5.7997,5.7997,5.8804,5.9331,5.9661,6.097,6.1741,6.2071,6.2585,6.278,6.278,6.278,6.278,6.278,6.278,6.278,6.278,6.278,6.278,6.278,6.278,6.278,6.278,6.278,6.278,6.278,0.0,0.0,0.0,0.0,0.0,0.0,0.0,0.0,0.0,0.0,0.0,0.0,0.0,0.0,0.0,0.0,0.0,0.0,0.0,0.0,2.6621,2.6621,2.6736,2.7582,2.9165,2.9929,2.9929,2.9204,2.9204,2.9544,3.0192,3.0423,3.0423,3.0346,3.1577,3.15,3.0423,3.0654,3.0577,3.0192,2.9352,2.8934,2.8703,2.7198,0.0,0.0,0.0,0.0,0.0,0.0,0.0,0.0,3.0154,3.3038,3.5462,3.2077,3.443,3.8285,3.9069,3.9688,0.0,4.9591,4.7114,0.0,4.8198,4.8967,5.0508,5.6712,0.0,5.774,5.796,5.7997,5.7997,5.7997,5.7997,5.7997,5.7997,5.7997,5.7997,5.7997,5.7997,5.7997,5.7997,5.7997,5.7997,5.7997,5.7997,5.7997,5.7997,5.7997,5.8033,5.8107,5.8914,5.9698,6.0493,6.13,6.2071,6.278,6.278,6.278,6.278,6.278,6.278,6.278,6.278,6.278,6.278,6.278,6.278,6.278,6.278,6.278,6.278,6.278,6.278,6.278,0.0,0.0,0.0,0.0,0.0,0.0,0.0,0.0,0.0,0.0,0.0,0.0,0.0,0.0,0.0,0.0,0.0,0.0,0.0,0.0,2.6621,2.6621,2.7852,2.9044,3.0115,2.9621,2.9621,3.0115,3.0115,2.9544,2.8467,3.0467,3.0698,2.9544,3.3776,3.3692,3.0538,3.2545,3.1814,2.9313,2.8511,2.7736,2.7082,2.6736,2.6192,0.0,0.0,0.0,0.0,0.0,0.0,0.0,3.0346,3.1038,3.2346,3.5468,3.7623,3.9821,4.3575,4.3611,0.0,0.0,4.4075,4.555,5.398,5.3959,5.3261,5.7189,5.6492,5.5757,5.7629,5.7997,5.7997,5.7997,5.7997,5.7997,5.7997,5.7997,5.7997,5.7997,5.7997,5.7997,5.7997,5.7997,5.7997,5.7997,5.7997,5.7997,5.7997,5.7997,5.829,5.8914,5.9722,6.0529,6.1337,6.2144,6.2658,6.278,6.278,6.278,6.278,6.278,6.278,6.278,6.278,6.278,6.278,6.278,6.278,6.278,6.278,6.278,6.278,6.278,6.278,6.278,0.0,0.0,0.0,0.0,0.0,0.0,0.0,0.0,0.0,0.0,0.0,0.0,0.0,0.0,0.0,0.0,0.0,0.0,0.0,0.0,0.0,2.7775,2.9044,2.9929,3.0385,2.9967,2.9737,2.9775,3.0192,2.9962,2.9121,3.0462,3.0583,2.9852,3.2929,3.2846,3.0462,3.1352,3.0743,2.8973,2.7775,2.7274,2.7198,2.6774,2.6582,2.6621,2.7044,0.0,0.0,0.0,0.0,0.0,0.0,0.0,3.3615,3.4699,3.7046,3.9868,4.2421,0.0,0.0,4.7251,0.0,5.1353,5.4913,5.5611,5.5978,5.7666,5.7005,5.6492,5.7776,5.7997,5.7997,5.7997,5.7997,5.7997,5.7997,5.7997,5.7997,5.7997,5.7997,5.7997,5.7997,5.7997,5.7997,5.7997,5.7997,5.7997,5.7997,5.8364,5.8767,5.9184,6.0346,6.119,6.1594,6.2401,6.278,6.278,6.278,6.278,6.278,6.278,6.278,6.278,6.278,6.278,6.278,6.278,6.278,6.278,6.278,6.278,6.278,6.278,6.278,6.278,0.0,0.0,0.0,0.0,0.0,0.0,0.0,0.0,0.0,0.0,0.0,0.0,0.0,0.0,0.0,0.0,0.0,0.0,0.0,0.0,0.0,2.928,3.0,3.0385,3.0385,3.0231,2.989,2.9319,2.989,3.0538,3.1269,3.1269,3.1269,3.1308,3.2038,3.1615,3.0346,2.9467,2.9088,2.8973,2.7428,2.7274,2.7818,2.7082,2.7274,2.7934,2.8049,2.8549,2.9127,2.928,0.0,0.0,0.0,0.0,3.5115,3.266,3.543,3.9407,3.9888,0.0,4.7959,5.216,5.4831,0.0,5.4421,5.5647,5.7336,5.7886,5.7997,5.7997,5.7997,5.7997,5.7997,5.7997,5.7997,5.7997,5.7997,5.7997,5.7997,5.7997,5.7997,5.7997,5.7997,5.7997,5.7997,5.7997,5.7997,5.807,5.8217,5.8841,5.9331,5.9588,6.0896,6.1667,6.1814,6.2475,6.278,6.278,6.278,6.278,6.278,6.278,6.278,6.278,6.278,6.278,6.278,6.278,6.278,6.278,6.278,6.278,6.278,6.278,6.278,6.278,0.0,0.0,0.0,0.0,0.0,0.0,0.0,0.0,0.0,0.0,0.0,0.0,0.0,0.0,0.0,0.0,0.0,0.0,2.6621,0.0,0.0,3.0192,3.0346,3.0385,3.0385,2.966,2.9583,3.0231,2.9583,3.1198,3.4808,3.4808,3.4808,3.4808,3.4923,3.3269,3.0346,2.9467,2.9088,2.9011,2.8088,2.7818,2.7895,2.778,2.7818,2.8011,2.8703,2.9011,2.9204,2.9967,3.0308,0.0,0.0,0.0,3.1423,3.2429,3.5853,3.9561,0.0,0.0,4.8821,0.0,5.1692,5.1454,0.0,0.0,5.4656,0.0,5.7997,5.7997,5.7997,5.7997,5.7997,5.7997,5.7997,5.7997,5.7997,5.7997,5.7997,5.7997,5.7997,5.7997,5.7997,5.7997,5.7997,5.7997,5.7997,5.829,5.9001,5.9148,5.9832,6.1227,6.1484,6.1924,6.2658,6.2743,6.278,6.278,6.278,6.278,6.278,6.278,6.278,6.278,6.278,6.278,6.278,6.278,6.278,6.278,6.278,6.278,6.278,6.278,6.278,6.278,0.0,0.0,0.0,0.0,0.0,0.0,0.0,0.0,0.0,0.0,0.0,0.0,0.0,0.0,0.0,2.6645,2.667,2.7041,2.7934,2.9159,3.0237,3.1077,3.0654,3.0615,3.1115,3.0275,3.0,3.0385,3.0,3.2737,3.8315,3.8315,3.7315,3.5615,3.7962,3.5808,3.05,3.2045,3.1314,2.9011,2.8203,2.8467,2.9236,2.8775,2.9159,3.0006,2.989,2.9813,2.989,3.0269,3.0385,3.0385,3.0385,0.0,0.0,0.0,3.4584,3.7633,4.3145,4.4445,4.6248,0.0,5.2378,4.9966,5.6846,5.5702,5.4106,5.7336,5.7997,5.7997,5.7997,5.7997,5.7997,5.7997,5.7997,5.7997,5.7997,5.7997,5.7997,5.7997,5.7997,5.7997,5.7997,5.7997,5.7997,5.7997,5.7997,5.8364,5.9148,5.9648,6.0419,6.1557,6.2034,6.2438,6.278,6.278,6.278,6.278,6.278,6.278,6.278,6.278,6.278,6.278,6.278,6.278,6.278,6.278,6.278,6.278,6.278,6.278,6.278,6.278,6.278,6.278,0.0,0.0,0.0,0.0,0.0,0.0,0.0,0.0,0.0,0.0,0.0,0.0,0.0,0.0,0.0,0.0,2.7189,2.7909,2.9319,3.0038,3.0692,3.1346,3.0731,3.0692,3.1352,3.0731,3.0385,3.0385,3.0385,3.3423,3.9238,4.0315,3.9508,3.7231,4.0385,3.8769,3.3731,3.5423,3.416,3.1006,3.0621,3.0583,3.0692,3.0237,3.0852,3.1891,3.1038,3.0731,3.0692,3.0462,3.0231,3.0115,3.0346,3.0846,0.0,0.0,0.0,0.0,0.0,0.0,4.3688,5.367,5.118,4.789,0.0,0.0,5.2631,0.0,5.7299,5.7997,5.7997,5.7997,5.7997,5.7997,5.7997,5.7997,5.7997,5.7997,5.7997,5.7997,5.7997,5.7997,5.7997,5.7997,5.7997,5.7997,5.818,5.8657,5.9441,6.0272,6.108,6.1887,6.2511,6.278,6.278,6.278,6.278,6.278,6.278,6.278,6.278,6.278,6.278,6.278,6.278,6.278,6.278,6.278,6.278,6.278,6.278,6.278,6.278,6.278,6.278,6.278,0.0,0.0,0.0,0.0,0.0,0.0,0.0,0.0,0.0,0.0,0.0,0.0,2.7935,2.721,2.6994,2.7872,2.8584,2.9363,3.0269,3.0385,3.0423,3.0462,3.0423,0.0,3.0462,3.0423,3.0385,3.0385,3.0385,3.2231,3.5846,3.9846,4.1654,4.1462,4.1692,4.2047,4.2239,3.9161,3.7276,3.6385,3.7161,3.5122,3.1698,3.2429,3.2776,3.2737,3.1929,3.1621,3.1506,3.0692,2.9852,2.9319,3.0154,3.0423,3.0808,0.0,0.0,0.0,0.0,4.1571,0.0,4.6403,4.5104,0.0,0.0,0.0,4.8677,5.1691,5.5354,5.7997,5.7997,5.7997,5.7997,5.7997,5.7997,5.7997,5.7997,5.7997,5.7997,5.7997,5.7997,5.7997,5.7997,5.7997,5.7997,5.7997,5.8731,5.9478,6.0309,6.108,6.1924,6.2732,6.278,6.278,6.278,6.278,6.278,6.278,6.278,6.278,6.278,6.278,6.278,6.278,6.278,6.278,6.278,6.278,6.278,6.278,6.278,6.278,6.278,6.278,6.278,6.278,0.0,0.0,0.0,0.0,0.0,0.0,0.0,0.0,0.0,0.0,0.0,0.0,0.0,2.7472,2.7895,2.8685,3.0001,3.066,3.0423,3.0923,3.1231,3.1231,3.0692,3.0654,3.1231,3.0692,3.0385,3.0385,3.0962,3.2962,3.6308,3.8392,4.0546,4.2854,4.7778,4.5855,3.9277,4.3508,4.0431,3.3154,3.8969,3.7738,3.2737,3.5238,3.6507,3.6546,3.2968,0.0,3.4462,3.1423,0.0,0.0,0.0,0.0,0.0,0.0,0.0,0.0,0.0,0.0,0.0,4.5927,4.3028,3.9989,4.5505,4.7133,4.7801,4.8936,5.3891,5.7426,5.5549,5.6706,5.7997,5.7997,5.7997,5.7997,5.7997,5.7997,5.7997,5.7997,5.7997,5.7997,5.7997,5.7997,5.8217,5.8731,5.6653,5.7042,6.097,5.8988,5.9281,6.267,6.278,6.278,6.278,6.278,6.278,6.278,6.278,6.278,6.278,6.278,6.278,6.278,6.278,6.278,6.278,6.278,6.278,6.278,6.278,6.278,6.278,6.278,6.3172,6.3613,0.0,0.0,0.0,0.0,0.0,0.0,0.0,0.0,0.0,0.0,0.0,0.0,0.0,0.0,2.874,2.9516,3.0898,3.1346,3.0462,3.0923,3.1269,3.1269,3.0692,3.0654,3.1231,3.0692,3.0538,3.0846,3.1429,3.2968,3.5468,3.7199,3.92,4.1662,4.7894,4.7048,4.1354,4.7317,4.4778,3.7199,4.2008,4.12,3.7315,3.8738,3.9623,3.9854,0.0,0.0,3.7738,3.6045,0.0,0.0,0.0,0.0,0.0,0.0,0.0,0.0,3.7553,0.0,0.0,0.0,3.9934,3.7239,4.1958,4.5307,4.7461,4.742,5.3312,5.7835,5.5689,5.6895,5.8172,5.8042,5.7997,5.7997,5.7997,5.7997,5.7997,5.7997,5.7997,5.7997,5.7997,5.7997,5.8327,5.9148,5.6946,5.7373,6.1374,5.9318,5.9501,6.267,6.278,6.278,6.278,6.278,6.278,6.278,6.278,6.278,6.278,6.278,6.278,6.278,6.278,6.278,6.278,6.278,6.278,6.278,6.278,6.278,6.2842,6.3135,6.3613,6.4127,0.0,0.0,0.0,0.0,0.0,0.0,0.0,0.0,0.0,0.0,0.0,0.0,0.0,0.0,0.0,3.0346,3.1192,3.1346,3.0462,3.0423,3.0423,3.0385,3.0385,3.0423,3.0423,3.0423,3.0846,0.0,0.0,0.0,0.0,3.6315,3.7853,3.8007,4.1431,4.524,4.9125,5.0212,4.9971,4.8702,4.6749,4.5671,4.5056,4.2931,4.2,4.2269,4.5692,4.4201,0.0,4.4479,0.0,0.0,0.0,0.0,0.0,0.0,0.0,0.0,0.0,0.0,0.0,0.0,0.0,0.0,3.5174,0.0,4.7137,4.693,5.3443,5.9098,5.8666,5.8659,5.8549,5.8074,5.802,5.7997,5.7997,5.7997,5.7997,5.7997,5.7997,5.7997,5.7997,5.8033,5.8364,5.9148,5.9869,6.0676,6.1594,6.2401,6.278,6.278,6.278,6.278,6.278,6.278,6.278,6.278,6.278,6.278,6.278,6.278,6.278,6.278,6.278,6.278,6.278,6.278,6.278,6.278,6.2817,6.2842,6.2952,6.3796,6.4127,6.4273,0.0,0.0,0.0,0.0,0.0,0.0,0.0,0.0,0.0,0.0,0.0,0.0,2.9094,2.966,3.0154,3.0385,3.1192,3.1346,3.0462,3.1,3.1077,3.0423,3.0385,3.0692,3.1346,3.1346,3.1737,0.0,0.0,0.0,0.0,0.0,0.0,0.0,3.7892,4.0046,4.1546,4.7317,4.4662,3.7623,4.9211,4.7586,3.9161,4.7048,4.7009,4.3124,0.0,4.6163,4.5163,0.0,4.3017,3.9207,0.0,0.0,0.0,0.0,0.0,0.0,3.3045,0.0,0.0,0.0,0.0,0.0,0.0,0.0,4.3046,4.3732,4.9721,5.5093,5.5882,5.7488,5.8673,5.8508,5.8216,5.7997,5.7997,5.7997,5.7997,5.7997,5.7997,5.7997,5.7997,5.8547,5.9208,0.0,5.8107,5.8547,6.2291,6.2695,6.278,6.278,6.278,6.278,6.278,6.278,6.278,6.278,6.278,6.278,6.278,6.278,6.278,6.278,6.278,6.278,6.278,6.278,6.278,6.2853,6.3503,6.3723,6.3833,6.4677,6.5338,6.5852,0.0,0.0,0.0,0.0,0.0,0.0,0.0,0.0,0.0,0.0,0.0,0.0,2.9583,3.0429,3.0808,3.0423,3.1192,3.1346,3.0462,3.1231,3.1468,3.0962,3.1269,3.1698,3.2199,3.2199,3.2622,0.0,0.0,0.0,0.0,0.0,0.0,0.0,0.0,3.5353,3.5815,4.2393,4.3239,4.0885,4.9356,4.9856,4.6115,5.1625,5.1279,4.8279,5.1548,0.0,5.0279,5.151,4.824,0.0,0.0,0.0,0.0,0.0,0.0,0.0,0.0,0.0,0.0,0.0,0.0,0.0,3.4749,3.9535,4.419,4.4825,5.0987,5.595,5.471,5.5662,5.6584,5.6406,5.5963,5.6227,5.7762,5.7997,5.7997,5.7997,5.7997,5.7997,5.7997,5.8731,5.9515,6.0346,5.8951,5.9465,6.2633,6.278,6.278,6.278,6.278,6.278,6.278,6.278,6.278,6.278,6.278,6.278,6.278,6.278,6.278,6.278,6.278,6.3025,6.3356,6.3356,6.3356,6.3429,6.4273,6.4604,6.4714,6.5521,6.6109,6.6549,0.0,0.0,0.0,0.0,0.0,0.0,0.0,0.0,0.0,0.0,0.0,2.9544,3.0308,3.1077,0.0,0.0,3.1231,3.1429,3.0731,3.1385,3.1814,3.1814,3.2506,3.2968,3.3045,3.2968,0.0,0.0,0.0,0.0,0.0,0.0,0.0,0.0,0.0,0.0,3.2275,3.6815,4.3431,5.0731,4.85,5.1933,5.8165,5.6011,5.4741,5.4664,5.9165,5.8127,5.5203,5.8858,5.5011,0.0,0.0,0.0,0.0,0.0,3.4622,0.0,0.0,0.0,0.0,0.0,3.3545,0.0,3.409,4.0546,4.6663,4.7048,5.3126,5.7278,5.3569,5.2857,5.271,5.2394,5.1942,5.299,5.6868,5.7749,5.7813,5.7373,5.774,5.8033,5.8107,5.8877,5.9661,6.0456,6.1263,6.2034,6.2768,6.278,6.278,6.278,6.278,6.278,6.278,6.278,6.278,6.278,6.278,6.278,6.278,6.278,6.278,6.278,6.2915,6.3392,6.409,6.4273,6.431,6.431,6.5118,6.5448,6.5521,6.6329,6.6623,6.6733,2.5538,0.0,0.0,0.0,0.0,0.0,0.0,0.0,0.0,0.0,3.0154,3.0192,3.0385,3.0538,0.0,0.0,3.1583,3.1891,3.2391,3.2583,3.266,3.266,3.2814,3.3237,3.3936,3.3276,0.0,0.0,0.0,0.0,0.0,0.0,0.0,0.0,0.0,0.0,0.0,3.4783,3.8931,4.524,5.0048,5.1741,5.1972,5.7473,5.6203,5.2251,5.855,5.8511,5.5472,5.5665,5.4164,5.0971,0.0,0.0,0.0,3.4007,0.0,0.0,0.0,0.0,0.0,0.0,3.3545,0.0,3.3314,3.5084,3.77,4.0431,4.2362,4.4261,4.6743,4.6882,4.6832,4.7441,4.7151,4.8455,5.3089,5.6208,5.6785,5.3555,5.6014,5.8253,5.8891,5.9685,6.0493,6.13,6.2108,6.2658,6.278,6.278,6.278,6.278,6.278,6.278,6.278,6.278,6.278,6.278,6.278,6.278,6.278,6.278,6.278,6.2842,6.3539,6.3943,6.42,6.5485,6.5668,6.5154,6.5962,6.6256,6.6366,6.7173,6.7467,6.7467,2.6505,0.0,0.0,0.0,0.0,0.0,0.0,0.0,0.0,0.0,3.0506,3.1038,3.1038,3.1423,3.1814,0.0,0.0,0.0,0.0,3.3314,3.3545,3.3545,3.3545,3.3744,3.4205,3.3353,3.3122,0.0,0.0,0.0,0.0,0.0,0.0,0.0,0.0,0.0,0.0,3.4853,3.7777,4.2931,4.8432,5.1395,5.3164,5.8704,5.8704,5.6165,5.9588,5.9704,5.7934,5.5818,5.4549,0.0,4.8817,4.4278,3.9892,0.0,3.3968,3.2122,0.0,0.0,0.0,3.1538,0.0,0.0,0.0,3.4622,3.7245,3.8938,4.0977,4.2439,4.2478,4.2265,4.2259,4.268,4.2697,4.3391,4.5515,5.1246,5.5144,5.5008,5.7116,5.8767,5.9148,6.0309,6.1337,6.2144,6.2585,6.278,6.278,6.278,6.278,6.278,6.278,6.278,6.278,6.278,6.278,6.278,6.278,6.278,6.278,6.278,6.3062,6.3466,6.3906,6.4567,6.5338,6.6182,6.6512,6.6549,6.6953,6.71,6.7136,6.754,6.7687,6.7687,2.778,0.0,0.0,0.0,0.0,0.0,0.0,0.0,0.0,2.9819,3.1198,3.2352,3.2852,3.3199,3.366,0.0,0.0,0.0,0.0,3.4507,3.4821,3.3975,3.3936,3.4013,3.4205,3.3353,3.2968,0.0,0.0,0.0,0.0,0.0,0.0,0.0,0.0,0.0,0.0,3.6885,3.9385,4.3624,4.7702,5.1318,5.4703,5.9127,6.0281,5.9704,6.0512,6.0781,6.0242,5.6665,5.4934,5.4126,5.3472,4.7894,0.0,0.0,0.0,0.0,0.0,0.0,0.0,0.0,0.0,3.1852,0.0,0.0,0.0,3.7623,4.0315,4.1631,3.82,0.0,0.0,3.8245,0.0,0.0,0.0,4.5327,0.0,5.3822,5.5815,5.6948,5.6926,5.9195,6.1263,6.267,6.278,6.278,6.278,6.278,6.278,6.278,6.278,6.2855,6.2941,6.2855,6.2855,6.2941,6.2855,6.278,6.278,6.2989,6.3429,6.4127,6.442,6.5301,6.6512,6.6659,6.71,6.7687,6.7687,6.7687,6.7687,6.7687,6.7687,6.7687,2.7895,2.7972,0.0,0.0,0.0,0.0,0.0,0.0,0.0,3.2352,3.3314,3.4783,3.7046,3.6038,3.6392,3.94,0.0,0.0,3.5385,3.7392,3.7014,3.3199,3.3045,3.3391,3.4167,3.3353,3.3276,3.4052,0.0,0.0,0.0,0.0,0.0,0.0,3.5738,0.0,0.0,4.1931,4.4662,4.8856,5.2356,5.1856,4.9817,5.778,5.8473,5.5703,5.9473,6.0781,6.0165,0.0,5.4049,5.2818,0.0,4.5047,4.0477,3.9554,0.0,0.0,0.0,0.0,0.0,0.0,3.1577,0.0,3.0885,0.0,3.2352,3.1577,0.0,3.1962,3.15,0.0,0.0,0.0,0.0,0.0,4.0065,4.0468,4.0248,4.0437,4.5441,4.8896,4.8844,5.3997,5.8877,6.2523,6.278,6.278,6.278,6.278,6.278,6.278,6.278,6.3038,6.352,6.3038,6.3038,6.352,6.3038,6.278,6.2817,6.3613,6.4016,6.4163,6.5595,6.6329,6.6549,6.7247,6.7614,6.7687,6.7687,6.7687,6.7687,6.7687,6.7687,6.7687,2.8703,2.8588,0.0,0.0,0.0,0.0,0.0,0.0,0.0,3.2852,3.366,3.536,3.843,3.8546,3.9777,4.317,4.3478,4.3085,4.2154,0.0,0.0,3.8123,3.5238,3.3821,3.4205,3.3353,3.3083,3.343,3.3583,0.0,0.0,0.0,0.0,0.0,3.6392,0.0,4.2585,4.2931,4.524,4.8817,5.0741,5.0164,4.9048,5.755,5.9704,5.8127,5.7934,5.9127,5.9935,0.0,5.4664,0.0,0.0,0.0,0.0,4.3932,0.0,0.0,0.0,0.0,0.0,0.0,0.0,0.0,3.4968,0.0,3.0846,0.0,0.0,0.0,0.0,0.0,0.0,0.0,3.1814,0.0,0.0,0.0,3.6707,4.1153,0.0,0.0,5.2084,5.269,5.4649,5.8988,5.9322,5.9335,5.9305,6.1842,6.3121,6.2805,6.278,6.3062,6.3571,6.3363,6.3505,6.4076,6.3543,6.3653,6.4433,6.4204,6.4795,6.5988,6.6327,6.6769,6.721,6.754,6.7687,6.7687,6.7687,6.7687,6.7687,6.7687,6.7687,6.7687,2.9583,0.0,0.0,0.0,0.0,0.0,3.2352,3.366,3.4737,3.493,3.5514,3.7322,4.0969,4.0431,4.167,4.6249,4.6633,4.6817,4.7201,4.3893,4.217,4.2816,3.7046,3.4513,3.5898,3.416,3.3353,3.3622,0.0,0.0,0.0,0.0,0.0,0.0,0.0,3.9084,4.3162,4.4355,4.6894,5.0317,5.1895,5.2164,5.2125,5.7165,5.9781,6.0473,5.7973,5.8704,5.9858,5.378,5.4857,0.0,5.2472,4.9394,4.7894,0.0,0.0,0.0,4.0439,0.0,0.0,0.0,0.0,0.0,0.0,0.0,0.0,0.0,0.0,0.0,0.0,0.0,0.0,0.0,0.0,3.1269,0.0,3.1767,0.0,0.0,0.0,0.0,0.0,5.1148,5.151,5.468,5.6108,5.6856,5.702,6.1332,6.355,6.3038,6.3014,6.3285,6.3808,6.3659,6.3917,6.4572,6.4284,6.4657,6.5596,6.5185,6.5816,6.7296,6.6971,6.7136,6.7687,6.7687,6.7687,6.7687,6.7687,6.7687,6.7687,6.7687,6.7687,6.7687,3.0346,3.1038,0.0,0.0,0.0,3.316,3.3975,3.6937,3.9361,4.0169,4.0285,4.1931,4.6201,4.1508,4.1085,4.8625,4.9279,4.8933,4.8125,4.6394,4.5441,0.0,0.0,3.5238,0.0,3.6245,3.4584,3.5423,0.0,0.0,0.0,0.0,0.0,0.0,3.6346,3.9084,4.3355,4.7471,5.1625,5.5742,5.9088,6.0435,5.9973,5.6165,5.7242,6.0781,6.0666,0.0,0.0,5.5818,5.3972,0.0,0.0,0.0,0.0,0.0,0.0,0.0,0.0,0.0,0.0,3.9469,0.0,0.0,0.0,0.0,3.0385,0.0,0.0,0.0,0.0,0.0,0.0,0.0,0.0,0.0,0.0,0.0,0.0,0.0,0.0,0.0,0.0,4.805,5.0563,5.0248,5.4328,5.7039,5.7543,6.1901,6.4119,6.3609,6.355,6.3829,6.4351,6.3871,6.4099,6.5083,6.5385,6.5539,6.5653,6.6709,6.7221,6.7333,6.7561,6.7677,6.7687,6.7687,6.7687,6.7687,6.7687,6.7687,6.7687,6.7687,6.7687,6.7687,0.0,0.0,0.0,0.0,3.1737,3.2391,3.3199,3.4821,3.6822,3.9361,4.0662,4.3624,4.9538,4.8933,4.9317,5.251,5.4318,5.4664,5.3203,5.1548,5.0894,5.1471,4.6009,4.247,0.0,0.0,0.0,0.0,0.0,0.0,0.0,0.0,0.0,0.0,0.0,3.9084,0.0,0.0,0.0,0.0,5.6973,5.7434,5.7511,5.8357,5.955,6.0781,6.0781,6.0781,0.0,5.6549,5.6588,5.7896,5.5895,5.3741,5.2779,5.6973,5.3241,4.824,0.0,0.0,5.1433,4.9433,0.0,0.0,0.0,0.0,0.0,0.0,0.0,0.0,0.0,0.0,0.0,0.0,0.0,0.0,0.0,0.0,3.3353,0.0,0.0,0.0,0.0,0.0,4.3176,4.6091,4.82,4.9467,4.9631,5.6668,6.0467,5.9909,6.2632,6.437,6.485,6.4696,6.522,6.6417,6.6205,6.6919,6.8304,6.7997,6.8309,6.9133,6.8887,6.8773,6.8773,6.8773,6.8773,6.8773,6.8773,6.8773,6.8682,6.7956,6.7687,6.7687,3.1962,0.0,0.0,3.1269,3.2006,3.3276,3.5276,3.6622,3.9008,4.3624,4.4124,4.6269,5.2202,5.1972,5.2356,5.4703,5.5588,5.6434,5.7434,5.3395,5.2702,5.6549,5.0317,4.6624,0.0,0.0,0.0,0.0,0.0,3.6269,0.0,0.0,0.0,0.0,0.0,3.8161,4.1623,4.6778,5.0856,0.0,0.0,5.6434,0.0,0.0,5.9742,6.0781,0.0,6.0781,6.0473,5.8242,5.8973,6.0435,5.8204,5.7165,5.728,6.0012,5.6896,5.3203,5.5972,5.6742,0.0,5.4472,5.1587,0.0,4.6133,0.0,3.6969,0.0,0.0,0.0,0.0,0.0,0.0,0.0,0.0,0.0,0.0,3.3859,0.0,0.0,0.0,0.0,0.0,3.9661,4.0186,4.1829,4.3942,4.5351,4.5849,5.4255,5.8816,5.8294,6.2394,6.4782,6.5099,6.5404,6.6077,6.709,6.7434,6.833,6.9679,6.9057,6.9299,7.0078,6.953,6.9313,6.9313,6.9313,6.9313,6.9313,6.9313,6.9313,6.9231,6.8535,6.8173,6.8007,3.1346,3.0538,3.1038,3.2622,3.3776,3.5821,3.9823,4.2047,4.5624,5.2087,5.0317,4.9971,5.4126,5.1087,5.0587,5.5164,5.3472,5.4511,6.005,5.2241,5.1395,0.0,5.0741,4.8048,5.4357,0.0,0.0,0.0,0.0,0.0,0.0,0.0,0.0,0.0,3.55,0.0,3.843,4.524,4.9202,5.1212,5.4241,5.7511,6.0204,5.6934,5.7819,6.0781,6.0781,6.0781,6.0781,6.0781,6.0781,6.0781,6.0781,6.0781,6.0781,6.0781,6.0781,6.0781,6.0781,6.0781,5.9627,5.478,5.3472,0.0,0.0,0.0,4.7,0.0,0.0,0.0,0.0,0.0,0.0,0.0,0.0,0.0,0.0,0.0,3.4584,0.0,3.9777,0.0,3.5962,3.9931,4.1311,3.7735,4.1506,4.4689,0.0,5.4287,5.882,5.883,6.2521,6.4711,6.5168,6.5817,6.6513,6.7244,6.8898,6.9706,6.9769,7.0018,7.0129,7.0112,6.9607,6.9393,6.9393,6.9393,6.9393,6.9393,6.9393,6.9393,6.9373,6.9333,6.8956,6.8511,3.2968,3.2275,3.2391,3.2814,3.5699,3.8361,3.9438,4.3201,4.6778,4.9086,5.1433,5.351,5.5203,5.6665,5.6549,5.4049,5.4962,5.5538,5.5164,5.4664,0.0,6.0589,5.8088,5.5934,5.4511,5.2356,5.0202,4.8086,0.0,0.0,4.1692,0.0,0.0,0.0,0.0,3.6423,3.843,4.524,5.0548,5.428,5.2636,5.401,5.6896,0.0,5.7819,6.0781,6.0781,6.0781,6.0781,6.0781,6.0781,6.0781,6.0781,6.0781,6.0781,6.0781,6.0781,6.0781,6.0781,6.0781,6.0473,5.9165,5.6934,5.4549,0.0,0.0,0.0,0.0,0.0,0.0,0.0,0.0,0.0,0.0,0.0,0.0,0.0,0.0,0.0,3.5462,3.6654,3.6923,3.5615,3.7231,3.7947,3.6965,3.8593,4.1445,4.5591,4.7943,5.2277,5.9113,5.7335,5.9573,6.6535,6.3693,6.4501,6.9052,6.9475,7.0014,7.0591,7.0647,7.0681,7.0681,7.0539,7.0478,7.0478,7.0478,7.0478,7.0478,7.0478,7.0478,7.0378,6.9588,6.8956,6.8511,3.366,3.3199,3.3468,3.3468,3.8854,4.3047,4.2662,4.6009,4.9779,5.3203,5.478,5.6203,5.7742,5.9665,5.9665,5.678,5.5818,5.5703,5.6472,5.4741,0.0,6.0589,5.9742,5.7857,5.5088,5.4664,0.0,5.1433,0.0,0.0,4.4423,0.0,0.0,0.0,0.0,3.6231,3.793,4.547,5.1202,5.5049,5.351,5.4895,0.0,5.628,5.7819,6.0781,6.0781,6.0781,6.0781,6.0781,6.0781,6.0781,6.0781,6.0781,6.0781,6.0781,6.0781,6.0858,6.1243,6.1358,6.1435,6.182,6.0435,5.8896,5.8434,5.7165,5.5895,0.0,5.5626,5.5318,0.0,0.0,0.0,0.0,0.0,0.0,0.0,0.0,0.0,0.0,3.7462,3.7962,3.5731,3.5923,3.6308,3.6654,3.7161,3.9008,0.0,4.6355,5.0087,5.3857,5.528,5.778,6.155,5.9588,6.1358,6.6898,6.7282,6.8667,7.0898,7.0898,7.0898,7.0898,7.0898,7.0898,7.0898,7.0898,7.0898,7.0898,7.0898,7.0898,7.0843,7.0233,6.9664,6.921,3.4045,3.3853,3.4552,3.509,4.2085,4.7663,4.7855,5.024,5.4021,5.9588,5.8676,5.8215,6.0089,6.0589,6.0666,6.0319,5.6242,5.5588,6.0012,5.4087,5.351,6.0512,5.8676,5.7137,5.6357,5.5665,5.5665,0.0,0.0,0.0,0.0,0.0,0.0,0.0,0.0,0.0,0.0,4.574,5.101,5.4703,5.5434,5.7473,5.9858,5.7319,5.8204,6.0781,6.0781,6.0781,6.0781,6.0781,6.0781,6.0781,6.0781,6.0781,6.0819,6.0935,6.0973,6.1166,6.2024,6.2255,6.2435,6.3128,6.3397,6.3462,6.3462,6.4128,6.4782,6.4782,6.5359,6.4743,6.1012,0.0,0.0,0.0,0.0,0.0,0.0,0.0,0.0,0.0,0.0,0.0,3.6,3.55,3.5808,3.65,3.6538,0.0,0.0,0.0,4.9346,4.7769,5.4395,5.7203,5.5511,5.5742,5.8704,6.432,6.4512,6.6821,7.0898,7.0898,7.0898,7.0898,7.0898,7.0898,7.0898,7.0898,7.0898,7.0898,7.0898,7.0898,7.0898,7.0898,7.0684,7.0331,3.5731,3.5154,3.6385,3.9854,4.297,4.6817,5.2318,5.6511,5.8704,5.7791,5.9088,5.9511,5.7868,5.955,5.9935,5.7857,5.6857,5.6714,5.7599,5.6406,0.0,6.0627,6.0358,6.005,5.9896,5.9781,5.9781,0.0,0.0,0.0,0.0,0.0,0.0,0.0,0.0,0.0,4.6047,4.5432,0.0,5.5511,5.5626,5.6049,5.6819,5.905,6.0281,6.0781,6.0781,6.0781,6.0781,6.0781,6.0781,6.0781,6.0781,6.0781,6.0935,6.1678,6.187,6.205,6.2858,6.3089,6.3128,6.3281,6.3858,6.4359,6.4359,6.5051,6.5667,6.5667,6.5782,6.5667,6.4936,0.0,0.0,0.0,0.0,0.0,0.0,0.0,0.0,0.0,0.0,4.1085,3.6,3.55,3.5577,3.5692,3.5692,0.0,0.0,0.0,4.4008,0.0,5.0818,5.3549,0.0,0.0,6.1089,6.9513,6.6205,6.6821,7.0898,7.0898,7.0898,7.0898,7.0898,7.0898,7.0898,7.0898,7.0898,7.0898,7.0898,7.0898,7.0898,7.0898,7.128,7.1679,3.9077,3.7,3.6423,3.9315,4.3393,4.7702,5.1895,5.7242,6.0358,5.9138,6.005,6.0319,5.9088,6.005,6.0319,5.9088,5.7742,5.755,5.8858,5.7753,5.8138,6.0704,6.0781,5.9973,5.8204,5.9896,5.9935,5.8165,0.0,0.0,0.0,0.0,0.0,0.0,0.0,4.1038,0.0,0.0,5.1702,5.528,5.7473,5.8357,5.8511,6.0165,6.0781,6.0781,6.0781,6.1089,6.1408,6.0935,6.1089,6.1485,6.1485,6.1743,6.2166,6.2589,6.2704,6.2897,6.3743,6.3974,6.4089,6.4551,6.4974,6.5282,6.5282,6.559,6.5897,6.5897,6.5897,6.5089,6.2435,5.828,0.0,0.0,0.0,0.0,0.0,0.0,4.3893,0.0,0.0,0.0,0.0,3.9431,0.0,0.0,0.0,0.0,0.0,0.0,4.4124,0.0,0.0,0.0,5.9407,0.0,6.0589,6.7628,6.559,6.6821,7.0898,7.0898,7.0898,7.0898,7.0898,7.0898,7.0898,7.0898,7.0898,7.0937,7.1398,7.1552,7.1629,7.2091,7.2514,7.2717,4.3154,4.0462,3.8885,4.1123,4.547,4.9586,5.2443,5.6907,6.0204,6.0742,6.0781,6.0781,6.0781,6.0781,6.0589,6.005,5.8665,5.8127,5.8858,5.8204,5.8369,5.9665,6.0396,5.955,5.6819,5.9435,5.9473,0.0,0.0,0.0,0.0,0.0,0.0,0.0,0.0,0.0,0.0,0.0,5.5011,5.6126,5.9473,6.0781,6.0781,6.0781,6.0935,6.1089,6.1089,6.1627,6.2243,6.155,6.1781,6.237,6.237,6.2781,6.3346,6.3512,6.3589,6.3782,6.4628,6.4897,6.5051,6.5743,6.5897,6.5897,6.5897,6.5897,6.5897,6.5897,6.5897,6.4666,6.0666,5.9165,0.0,0.0,0.0,0.0,0.0,0.0,0.0,0.0,0.0,0.0,4.3816,4.2393,0.0,0.0,0.0,0.0,4.0208,0.0,0.0,0.0,0.0,5.428,5.6714,0.0,6.0204,6.5936,6.5013,6.6821,7.0898,7.0898,7.0898,7.0898,7.0898,7.0898,7.0898,7.0898,7.1014,7.1245,7.1937,7.2322,7.2552,7.3245,7.363,7.3668,4.7509,4.7201,4.8202,5.2241,5.1548,5.2597,5.8896,5.8434,5.8176,6.0512,6.0781,6.0781,6.0781,6.0781,5.9858,5.7561,5.9242,5.8242,5.3077,5.7588,5.9165,5.628,5.9165,6.0627,6.0319,6.0627,6.0627,0.0,0.0,5.1895,0.0,0.0,0.0,0.0,0.0,0.0,0.0,5.4164,5.6703,6.0242,6.0627,6.0781,6.0781,6.0781,6.1281,6.1985,6.1985,6.2512,6.3166,6.3077,6.3128,6.3205,6.3205,6.3243,6.3474,6.4243,6.4474,6.4666,6.5551,6.5782,6.5782,6.5859,6.5897,6.5897,6.5897,6.5897,6.5897,6.5897,6.5897,6.5743,6.5282,6.2012,5.7973,0.0,0.0,0.0,0.0,0.0,4.6471,4.5594,0.0,0.0,4.4316,4.0008,3.7469,0.0,3.7084,0.0,0.0,0.0,0.0,4.6808,4.8125,5.0971,5.578,5.7396,6.2243,7.0244,6.6436,6.6821,7.0898,7.0898,7.0898,7.0898,7.0898,7.0898,7.0898,7.0898,7.136,7.2091,7.2168,7.2668,7.3399,7.3476,7.3976,7.4591,5.1933,4.9856,4.8971,5.1741,5.2626,5.4241,5.7945,5.8946,5.9627,6.0666,6.0781,6.0781,6.0781,6.0781,6.0396,5.9358,6.0204,5.9781,5.7396,5.9473,6.0204,5.8819,6.005,6.0781,6.0781,6.0781,6.0781,0.0,0.0,0.0,0.0,0.0,0.0,0.0,0.0,5.2895,5.4664,5.7203,5.9242,6.0781,6.0781,6.1089,6.1601,6.1601,6.2089,6.282,6.282,6.3358,6.4089,6.4089,6.4089,6.4089,6.4089,6.4436,6.4936,6.5282,6.5397,6.5474,6.582,6.5897,6.5897,6.5897,6.5897,6.5897,6.5897,6.5897,6.5897,6.5897,6.5897,6.5897,6.5897,6.4512,6.1935,5.7665,0.0,0.0,0.0,0.0,0.0,5.3664,0.0,5.0818,5.2549,4.5778,4.12,0.0,0.0,0.0,0.0,0.0,0.0,5.1279,0.0,5.7088,6.4743,6.3012,6.5051,7.0898,6.9206,6.9283,7.0898,7.0898,7.0898,7.0898,7.0898,7.1206,7.1668,7.1668,7.2206,7.3014,7.3514,7.3899,7.4284,7.4822,7.5207,7.5476,5.6357,5.3895,5.2202,5.3482,5.5164,5.6395,5.6599,5.9023,6.0435,5.9435,6.0165,6.0781,6.0781,6.0781,6.0512,5.9742,6.0358,6.005,5.8319,5.9819,6.0358,5.9319,6.0242,0.0,6.0781,6.0781,6.0781,6.0781,5.478,0.0,0.0,0.0,0.0,0.0,5.4434,5.6357,5.6549,5.9819,6.1166,6.1204,6.1435,6.1897,6.2435,6.2435,6.2974,6.3666,6.3666,6.4243,6.4974,6.4974,6.4974,6.4974,6.4974,6.5397,6.5897,6.5897,6.5897,6.5897,6.5897,6.5897,6.5897,6.5897,6.5897,6.5897,6.5897,6.5897,6.5897,6.5897,6.5897,6.5897,6.5897,6.5897,6.4512,6.0204,0.0,0.0,0.0,5.3203,0.0,5.728,5.3933,5.2895,5.6819,4.9817,4.4932,4.4586,0.0,0.0,0.0,0.0,0.0,0.0,0.0,0.0,6.6705,6.4128,6.5474,7.0898,7.0898,7.0898,7.0898,7.0898,7.0898,7.0898,7.1168,7.1629,7.2206,7.2476,7.3091,7.3899,7.4476,7.4861,7.5168,7.5784,7.6015,7.6015,6.0704,6.0666,6.0627,6.0666,6.0704,5.9588,5.6242,5.8588,5.9588,5.6203,5.8704,6.0781,6.0781,6.0781,5.9781,5.7291,5.9369,5.8319,5.2385,5.755,5.9281,0.0,5.9011,6.0781,6.0781,6.0781,6.0781,6.0781,0.0,0.0,5.4434,0.0,5.4357,5.4626,5.8819,6.0704,6.0781,6.1716,6.2101,6.2139,6.2935,6.3281,6.3269,6.3269,6.382,6.4589,6.4589,6.5128,6.5859,6.5859,6.5859,6.5859,6.5859,6.5897,6.5897,6.5897,6.5897,6.5897,6.5897,6.5897,6.5897,6.5897,6.5897,6.5897,6.5897,6.5897,6.5897,6.5897,6.5897,6.5897,6.5897,6.5897,6.4512,6.0204,0.0,0.0,0.0,5.3203,0.0,5.328,4.9548,4.8971,5.4049,4.9894,0.0,4.7971,4.724,0.0,0.0,0.0,0.0,4.9279,4.5432,0.0,5.7077,5.7973,6.2589,7.0898,7.0898,7.0898,7.0898,7.0898,7.0898,7.0937,7.1822,7.2168,7.2283,7.3129,7.3976,7.4707,7.4707,7.5245,7.5976,7.6015,7.6015,7.6015,5.4367,5.7627,6.005,5.7742,5.9242,6.0435,5.9319,6.0089,6.0396,5.9319,6.0127,6.0781,6.0781,6.0781,6.0473,5.9665,5.8204,5.7511,5.7934,5.755,5.7857,5.9127,5.7973,5.7319,5.7319,5.7319,5.7319,5.7319,0.0,0.0,5.4511,5.4511,5.6049,5.8858,6.0831,6.1678,6.1755,6.2551,6.2935,6.2935,6.3205,6.3666,6.4205,6.4205,6.4743,6.5474,6.5474,6.5667,6.5897,6.5897,6.5897,6.5897,6.5897,6.5897,6.5897,6.5897,6.5897,6.5897,6.5897,6.5897,6.5897,6.5897,6.5897,6.5897,6.5897,6.5897,6.5897,6.5897,6.5897,6.5897,6.5897,6.5897,6.4512,6.0204,6.1935,0.0,5.8088,0.0,5.8396,5.8396,5.5126,5.4703,5.9254,5.5049,0.0,0.0,4.8663,0.0,0.0,0.0,0.0,0.0,5.7857,0.0,6.6436,6.3897,6.5397,7.0898,7.0898,7.0898,7.0937,7.1514,7.1783,7.1822,7.2706,7.3399,7.3937,7.4207,7.4822,7.5592,7.5592,7.5745,7.6015,7.6015,7.6015,7.6015,5.4895,5.7896,6.0127,5.7973,5.9358,6.0358,5.9088,5.9973,6.0319,5.905,6.0012,6.0781,6.0781,6.0781,6.0781,6.0781,5.8858,5.8511,6.0666,5.8781,5.855,6.0704,5.8742,5.7627,5.7627,5.7627,5.7627,5.7627,5.7088,5.7011,5.7357,5.7357,5.8934,6.1743,6.232,6.2551,6.2589,6.3435,6.3782,6.382,6.4128,6.4589,6.5089,6.5089,6.5436,6.5897,6.5897,6.5897,6.5897,6.5897,6.5897,6.5897,6.5897,6.5897,6.5897,6.5897,6.5897,6.5897,6.5897,6.5897,6.5897,6.5897,6.5897,6.5897,6.5897,6.5897,6.5897,6.5897,6.5897,6.5897,6.5897,6.6128,6.5474,6.2781,6.4897,6.5897,6.3205,0.0,6.1281,0.0,0.0,5.7511,6.2089,5.9665,5.7703,0.0,0.0,0.0,0.0,0.0,5.5588,6.0512,6.1704,6.4243,6.8475,6.5936,6.6705,7.0898,7.0898,7.1052,7.1398,7.1937,7.236,7.2745,7.3591,7.4245,7.4745,7.5053,7.5515,7.6015,7.6015,7.6015,7.6015,7.6015,7.6015,7.6015,6.0127,6.0473,6.0742,6.0473,6.0627,5.9742,5.6549,5.8742,5.9665,5.6472,5.8819,6.0781,6.0781,6.0781,6.0781,6.0781,6.0589,6.055,6.0781,6.0589,6.055,6.0781,6.055,6.0435,6.0435,6.0512,6.0666,6.0973,6.0973,6.1396,6.2178,6.2178,6.2589,6.3308,6.3346,6.3397,6.3474,6.432,6.4705,6.4743,6.5551,6.5897,6.5897,6.5897,6.5897,6.5897,6.5897,6.5897,6.5897,6.5897,6.5897,6.5897,6.5897,6.5897,6.5897,6.5897,6.5897,6.5897,6.5897,6.5897,6.5897,6.5897,6.5897,6.5897,6.5897,6.5897,6.5897,6.5974,6.5974,6.6013,6.6051,6.6705,6.7167,6.7167,6.7859,6.8321,6.8013,6.4628,6.2062,6.1793,0.0,0.0,6.2935,6.3666,6.4012,0.0,0.0,0.0,0.0,0.0,5.3087,5.9011,5.9165,6.105,6.5013,6.5051,6.7013,7.0898,7.0975,7.1398,7.2206,7.2322,7.2822,7.363,7.4437,7.4784,7.4861,7.5668,7.6015,7.6015,7.6015,7.6015,7.6015,7.6015,7.6015,7.6015,5.3598,5.7242,5.9973,5.7357,5.905,6.0512,5.9704,6.0281,6.0512,5.9704,6.0281,6.0781,6.0781,6.0781,6.0781,6.0781,5.8396,5.8011,6.0627,5.8357,5.805,6.0704,5.828,5.6896,5.6896,5.7561,5.9473,6.2704,6.2704,6.282,6.3012,6.3012,6.3128,6.332,6.4012,6.4282,6.4359,6.5205,6.559,6.559,6.582,6.5897,6.5897,6.5897,6.5897,6.5897,6.5897,6.5897,6.5897,6.5897,6.5897,6.5897,6.5897,6.5897,6.5897,6.5897,6.5897,6.5897,6.5897,6.5897,6.5897,6.5897,6.5897,6.5897,6.5897,6.5897,6.6051,6.6667,6.6821,6.7013,6.7705,6.7975,6.809,6.809,6.8282,6.7282,6.4051,6.3243,6.182,0.0,6.0742,6.2974,6.4166,6.7205,6.759,0.0,0.0,6.2551,6.3551,6.132,6.2435,6.7744,6.7936,6.8398,6.9398,6.9398,6.9898,7.0898,7.1552,7.2014,7.2245,7.3514,7.4207,7.4476,7.5322,7.5707,7.5707,7.5899,7.6015,7.6015,7.6015,7.6015,7.6015,7.6015,7.6015,7.6015,5.5665,5.828,6.0204,5.8357,5.955,6.0781,6.0781,6.0781,6.0781,6.0781,6.0781,6.0781,6.0781,6.0781,6.0781,6.0781,5.9088,5.8819,6.0666,5.905,5.905,6.1293,5.9627,5.8781,5.9165,5.9627,6.1012,6.3308,6.3308,6.3512,6.3897,6.3897,6.4128,6.4512,6.4974,6.5205,6.5243,6.5705,6.5897,6.5897,6.5897,6.5897,6.5897,6.5897,6.5897,6.5897,6.5897,6.5897,6.5897,6.5897,6.5897,6.5897,6.5897,6.5897,6.5897,6.5897,6.5897,6.5897,6.5897,6.5897,6.5897,6.5897,6.5897,6.5897,6.5897,6.6167,6.6551,6.7013,6.7398,6.7859,6.8321,6.8744,6.9013,6.9013,6.7667,6.5859,6.3551,6.1973,6.0896,6.0512,6.2935,6.5359,6.7282,6.9552,6.9744,6.6974,6.5013,0.0,6.6667,6.4936,6.6051,7.0744,7.0898,7.0898,7.0898,7.0898,7.1091,7.1514,7.1975,7.2591,7.336,7.4284,7.4938,7.5322,7.5784,7.6015,7.6015,7.6015,7.6015,7.6015,7.6015,7.6015,7.6015,7.6015,7.6015,7.6015,6.0781,6.0781,6.0781,6.0781,6.0781,6.0781,6.0781,6.0781,6.0781,6.0781,6.0781,6.0781,6.0781,6.0781,6.0858,6.0973,6.1012,6.1012,6.1012,6.1012,6.1358,6.2243,6.2281,6.2589,6.3269,6.3435,6.3551,6.3705,6.3705,6.4089,6.4782,6.4782,6.5205,6.5897,6.5897,6.5897,6.5897,6.5897,6.5897,6.5897,6.5897,6.5897,6.5897,6.5897,6.5897,6.5897,6.5897,6.5897,6.5897,6.5897,6.5897,6.5897,6.5897,6.5897,6.5897,6.5897,6.5897,6.5897,6.5897,6.5897,6.5897,6.5897,6.5897,6.5936,6.6051,6.659,6.7167,6.7436,6.809,6.8615,6.8744,6.9398,6.9667,6.9013,6.6474,6.4397,6.3743,0.0,6.0589,6.4166,6.5166,6.6974,7.0552,7.0898,7.0898,7.0898,6.759,6.7128,7.0706,6.7513,6.7205,7.0783,7.0898,7.0898,7.0898,7.1014,7.1475,7.2206,7.2437,7.3322,7.4707,7.4861,7.5284,7.6015,7.6015,7.6015,7.6015,7.6015,7.6015,7.6015,7.6015,7.6015,7.6015,7.6015,7.6015,7.6015,6.0781,6.0781,6.0781,6.0781,6.0781,6.0781,6.0781,6.0781,6.0781,6.0781,6.0781,6.0781,6.0781,6.0781,6.1089,6.1831,6.1908,6.1908,6.1908,6.1908,6.2243,6.3089,6.3128,6.3166,6.3308,6.4012,6.4743,6.5513,6.5513,6.5551,6.5705,6.5705,6.5782,6.5897,6.5897,6.5897,6.5897,6.5897,6.5897,6.5897,6.5897,6.5897,6.5897,6.5897,6.5897,6.5897,6.5897,6.5897,6.5897,6.5897,6.5897,6.5897,6.5897,6.5897,6.5897,6.5897,6.5897,6.5897,6.5897,6.5897,6.5897,6.5897,6.5897,6.609,6.6744,6.7013,6.7513,6.8975,6.9398,6.9706,7.0398,7.0629,6.9552,6.5974,6.4936,6.3358,5.9781,0.0,6.3858,6.4512,6.7744,7.0167,7.0821,7.0898,7.0898,7.0898,7.0283,7.0206,7.086,7.0283,7.0206,7.0898,7.0898,7.0898,7.0898,7.1629,7.2052,7.2206,7.363,7.4437,7.4707,7.5476,7.5861,7.6015,7.6015,7.6015,7.6015,7.6015,7.6015,7.6015,7.6015,7.6015,7.6015,7.6015,7.6015,7.6015,6.0781,6.0781,6.0781,6.0781,6.0781,6.0781,6.0781,6.0781,6.0781,6.0781,6.1204,6.1512,6.1512,6.1897,6.232,6.2704,6.2743,6.2935,6.3397,6.3012,6.3128,6.3974,6.4012,6.4205,6.4705,6.5089,6.5513,6.5897,6.5897,6.5897,6.5897,6.5897,6.5897,6.5897,6.5897,6.5897,6.5897,6.5897,6.5897,6.5897,6.5897,6.5897,6.5897,6.5897,6.5897,6.5897,6.5897,6.5897,6.5897,6.5897,6.5897,6.5897,6.5897,6.5897,6.5897,6.5897,6.5897,6.5897,6.5897,6.5897,6.5897,6.5897,6.6244,6.6628,6.7013,6.7821,6.8744,6.9513,7.0052,7.0475,7.0821,7.0898,7.0244,6.8321,6.609,6.3935,6.1973,6.3358,6.4589,6.4589,6.8321,7.0898,7.0898,7.0898,7.0898,7.0898,7.0898,7.0898,7.0898,7.0898,7.0898,7.0898,7.0898,7.1129,7.1591,7.2014,7.2629,7.3553,7.4322,7.4938,7.5399,7.5822,7.6015,7.6015,7.6015,7.6015,7.6015,7.6015,7.6015,7.6015,7.6015,7.6015,7.6015,7.6015,7.6015,7.6015,6.0781,6.0781,6.0781,6.0781,6.0973,6.1089,6.1089,6.1243,6.1396,6.1396,6.1973,6.2358,6.2358,6.2935,6.3397,6.3589,6.3589,6.3974,6.4859,6.4282,6.4205,6.4859,6.4897,6.5205,6.5897,6.5897,6.5897,6.5897,6.5897,6.5897,6.5897,6.5897,6.5897,6.5897,6.5897,6.5897,6.5897,6.5897,6.5897,6.5897,6.5897,6.5897,6.5897,6.5897,6.5897,6.5897,6.5897,6.5897,6.5897,6.5897,6.5897,6.5897,6.5897,6.5897,6.5897,6.5897,6.5897,6.5897,6.5897,6.5897,6.5936,6.6128,6.6628,6.7205,6.759,6.8744,6.9744,6.9937,7.0475,7.0898,7.0898,7.0898,7.0591,6.959,0.0,6.4589,6.4589,6.4589,6.4974,6.5936,6.8936,7.0898,7.0898,7.0898,7.0898,7.0898,7.0898,7.0898,7.0898,7.0898,7.0975,7.1206,7.1206,7.1514,7.2168,7.2591,7.3437,7.4707,7.4899,7.5361,7.6015,7.6015,7.6015,7.6015,7.6015,7.6015,7.6015,7.6015,7.6015,7.6015,7.6015,7.6015,7.6015,7.6015,7.6015,7.6015,6.0781,6.0781,6.0781,6.0781,6.1485,6.1985,6.1985,6.2627,6.3128,6.3128,6.3166,6.3205,6.3205,6.3281,6.3628,6.4436,6.4512,6.4859,6.5743,6.5743,6.5743,6.5782,6.5782,6.582,6.5897,6.5897,6.5897,6.5897,6.5897,6.5897,6.5897,6.5897,6.5897,6.5897,6.5897,6.5897,6.5897,6.5897,6.5897,6.5897,6.5897,6.5897,6.5897,6.5897,6.5897,6.5897,6.5897,6.5897,6.5897,6.5897,6.5897,6.5897,6.5897,6.5897,6.5897,6.5897,6.5897,6.5897,6.5897,6.5897,6.609,6.6821,6.7051,6.7513,6.9129,6.9629,6.9898,7.0667,7.086,7.0898,7.0898,7.0898,6.9629,6.5705,0.0,0.0,6.4589,6.4589,6.6051,6.9975,7.0706,7.0898,7.0898,7.0898,7.0898,7.0898,7.0898,7.0898,7.0898,7.0898,7.1283,7.2091,7.2091,7.2129,7.2206,7.3745,7.4591,7.4707,7.5515,7.5938,7.6015,7.6015,7.6015,7.6015,7.6015,7.6015,7.6015,7.6015,7.6015,7.6015,7.6015,7.6015,7.6015,7.6015,7.6015,7.6015,6.1512,6.1601,6.1743,6.2243,6.2627,6.2858,6.2858,6.3089,6.3308,6.3308,6.3782,6.4128,6.4128,6.4589,6.5051,6.5397,6.5397,6.5551,6.5859,6.5897,6.5897,6.5897,6.5897,6.5897,6.5897,6.5897,6.5897,6.5897,6.5897,6.5897,6.5897,6.5897,6.5897,6.5897,6.5897,6.5897,6.5897,6.5897,6.5897,6.5897,6.5897,6.5897,6.5897,6.5897,6.5897,6.5897,6.5897,6.5897,6.5897,6.5897,6.5897,6.5897,6.5897,6.5897,6.5897,6.5897,6.5897,6.5897,6.5897,6.5897,6.609,6.6898,6.7513,6.8205,6.9436,7.009,7.0514,7.0821,7.0898,7.0898,7.0898,7.0898,7.036,6.8783,0.0,6.8513,6.8513,6.8513,6.909,7.0706,7.0898,7.0898,7.0898,7.0898,7.0898,7.0898,7.0898,7.0898,7.0898,7.1398,7.186,7.2168,7.3206,7.3745,7.3745,7.4399,7.4976,7.5515,7.5822,7.6015,7.6015,7.6015,7.6015,7.6015,7.6015,7.6015,7.6015,7.6015,7.6015,7.6015,7.6015,7.6015,7.6015,7.6015,7.6015,7.6015,6.1985,6.2293,6.2666,6.3192,6.3551,6.3705,6.3705,6.3935,6.4128,6.4128,6.4628,6.5013,6.5013,6.5551,6.5897,6.5897,6.5897,6.5897,6.5897,6.5897,6.5897,6.5897,6.5897,6.5897,6.5897,6.5897,6.5897,6.5897,6.5897,6.5897,6.5897,6.5897,6.5897,6.5897,6.5897,6.5897,6.5897,6.5897,6.5897,6.5897,6.5897,6.5897,6.5897,6.5897,6.5897,6.5897,6.5897,6.5897,6.5897,6.5897,6.5897,6.5897,6.5897,6.5897,6.5897,6.5897,6.5897,6.5897,6.5897,6.609,6.6474,6.7282,6.8167,6.9052,6.9898,7.0514,7.0898,7.0898,7.0898,7.0898,7.0898,7.0898,7.0898,7.0898,7.0898,7.0898,7.0898,7.0898,7.0898,7.0898,7.0898,7.0898,7.0898,7.0898,7.0898,7.0898,7.0898,7.1014,7.1283,7.186,7.2437,7.2976,7.4091,7.4822,7.513,7.513,7.5399,7.6015,7.6015,7.6015,7.6015,7.6015,7.6015,7.6015,7.6015,7.6015,7.6015,7.6015,7.6015,7.6015,7.6015,7.6015,7.6015,7.6015,7.6015,7.6015,6.2139,6.2743,6.3308,6.332,6.4051,6.4628,6.4628,6.532,6.5897,6.5897,6.5897,6.5897,6.5897,6.5897,6.5897,6.5897,6.5897,6.5897,6.5897,6.5897,6.5897,6.5897,6.5897,6.5897,6.5897,6.5897,6.5897,6.5897,6.5897,6.5897,6.5897,6.5897,6.5897,6.5897,6.5897,6.5897,6.5897,6.5897,6.5897,6.5897,6.5897,6.5897,6.5897,6.5897,6.5897,6.5897,6.5897,6.5897,6.5897,6.5897,6.5897,6.5897,6.5897,6.5897,6.5897,6.5897,6.5897,6.5897,6.5897,6.6513,6.7321,6.8167,6.9052,6.9898,7.0706,7.0898,7.0898,7.0898,7.0898,7.0898,7.0898,7.0898,7.0898,7.0898,7.0898,7.0898,7.0898,7.0898,7.0898,7.0898,7.0898,7.0898,7.0898,7.0898,7.0898,7.0898,7.0898,7.1283,7.2129,7.2206,7.2976,7.4668,7.4707,7.513,7.5976,7.6015,7.6015,7.6015,7.6015,7.6015,7.6015,7.6015,7.6015,7.6015,7.6015,7.6015,7.6015,7.6015,7.6015,7.6015,7.6015,7.6015,7.6015,7.6015,7.6015,7.6015,6.3743,6.4051,6.4397,6.5013,6.532,6.5513,6.5513,6.5743,6.5897,6.5897,6.5897,6.5897,6.5897,6.5897,6.5897,6.5897,6.5897,6.5897,6.5897,6.5897,6.5897,6.5897,6.5897,6.5897,6.5897,6.5897,6.5897,6.5897,6.5897,6.5897,6.5897,6.5897,6.5897,6.5897,6.5897,6.5897,6.5897,6.5897,6.5897,6.5897,6.5897,6.5897,6.5897,6.5897,6.5897,6.5897,6.5897,6.5897,6.5897,6.5897,6.5897,6.5897,6.5897,6.5897,6.5897,6.5897,6.5897,6.6013,6.659,6.7359,6.809,6.8346,6.9052,6.9898,7.0706,7.0898,7.0898,7.0898,7.0898,7.0898,7.0898,7.0898,7.0898,7.0898,7.0898,7.0898,7.0898,7.0898,7.0898,7.0898,7.0898,7.0898,7.0898,7.0898,7.0898,7.0898,7.1475,7.1937,7.2168,7.3322,7.4168,7.4668,7.5284,7.5745,7.6015,7.6015,7.6015,7.6015,7.6015,7.6015,7.6015,7.6015,7.6015,7.6015,7.6015,7.6015,7.6015,7.6015,7.6015,7.6015,7.6015,7.6015,7.6015,7.6015,7.6015,7.6015,6.4512,6.4897,6.5282,6.582,6.5897,6.5897,6.5897,6.5897,6.5897,6.5897,6.5897,6.5897,6.5897,6.5897,6.5897,6.5897,6.5897,6.5897,6.5897,6.5897,6.5897,6.5897,6.5897,6.5897,6.5897,6.5897,6.5897,6.5897,6.5897,6.5897,6.5897,6.5897,6.5897,6.5897,6.5897,6.5897,6.5897,6.5897,6.5897,6.5897,6.5897,6.5897,6.5897,6.5897,6.5897,6.5897,6.5897,6.5897,6.5897,6.5897,6.5897,6.5897,6.5897,6.5897,6.5897,6.5897,6.5897,6.609,6.6859,6.7744,6.8475,6.8821,6.9552,7.0283,7.0783,7.0898,7.0898,7.0898,7.0898,7.0898,7.0898,7.0898,7.0898,7.0898,7.0898,7.0898,7.0898,7.0898,7.0898,7.0898,7.0898,7.0898,7.0898,7.0898,7.1052,7.1398,7.1898,7.2476,7.3129,7.4168,7.4861,7.5207,7.5745,7.6015,7.6015,7.6015,7.6015,7.6015,7.6015,7.6015,7.6015,7.6015,7.6015,7.6015,7.6015,7.6015,7.6015,7.6015,7.6015,7.6015,7.6015,7.6015,7.6015,7.6015,7.6015,7.6015,6.4705,6.5359,6.5897,6.5897,6.5897,6.5897,6.5897,6.5897,6.5897,6.5897,6.5897,6.5897,6.5897,6.5897,6.5897,6.5897,6.5897,6.5897,6.5897,6.5897,6.5897,6.5897,6.5897,6.5897,6.5897,6.5897,6.5897,6.5897,6.5897,6.5897,6.5897,6.5897,6.5897,6.5897,6.5897,6.5897,6.5897,6.5897,6.5897,6.5897,6.5897,6.5897,6.5897,6.5897,6.5897,6.5897,6.5897,6.5897,6.5897,6.5897,6.5897,6.5897,6.5897,6.5897,6.5897,6.5897,6.5936,6.6167,6.7013,6.7859,6.8744,6.959,7.036,7.0898,7.0898,7.0898,7.0898,7.0898,7.0898,7.0898,7.0898,7.0898,7.0898,7.0898,7.0898,7.0898,7.0898,7.0898,7.0898,7.0898,7.0898,7.0898,7.0898,7.0975,7.136,7.2129,7.2322,7.3091,7.463,7.4784,7.5168,7.5976,7.6015,7.6015,7.6015,7.6015,7.6015,7.6015,7.6015,7.6015,7.6015,7.6015,7.6015,7.6015,7.6015,7.6015,7.6015,7.6015,7.6015,7.6015,7.6015,7.6015,7.6015,7.6015,7.6015,7.6015,6.5628,6.5782,6.5897,6.5897,6.5897,6.5897,6.5897,6.5897,6.5897,6.5897,6.5897,6.5897,6.5897,6.5897,6.5897,6.5897,6.5897,6.5897,6.5897,6.5897,6.5897,6.5897,6.5897,6.5897,6.5897,6.5897,6.5897,6.5897,6.5897,6.5897,6.5897,6.5897,6.5897,6.5897,6.5897,6.5897,6.5897,6.5897,6.5897,6.5897,6.5897,6.5897,6.5897,6.5897,6.5897,6.5897,6.5897,6.5897,6.5897,6.5897,6.5897,6.5897,6.5897,6.5897,6.5897,6.5897,6.6359,6.7013,6.7898,6.8744,6.9629,7.0437,7.0783,7.0898,7.0898,7.0898,7.0898,7.0898,7.0898,7.0898,7.0898,7.0898,7.0898,7.0898,7.0898,7.0898,7.0898,7.0898,7.0898,7.0898,7.0898,7.0898,7.0898,7.1514,7.2014,7.2168,7.3437,7.4322,7.4668,7.5361,7.5784,7.5976,7.6015,7.6015,7.6015,7.6015,7.6015,7.6015,7.6015,7.6015,7.6015,7.6015,7.6015,7.6015,7.6015,7.6015,7.6015,7.6015,7.6015,7.6015,7.6015,7.6015,7.6015,7.6015,7.6015,7.6015,6.5897,6.5897,6.5897,6.5897,6.5897,6.5897,6.5897,6.5897,6.5897,6.5897,6.5897,6.5897,6.5897,6.5897,6.5897,6.5897,6.5897,6.5897,6.5897,6.5897,6.5897,6.5897,6.5897,6.5897,6.5897,6.5897,6.5897,6.5897,6.5897,6.5897,6.5897,6.5897,6.5897,6.5897,6.5897,6.5897,6.5897,6.5897,6.5897,6.5897,6.5897,6.5897,6.5897,6.5897,6.5897,6.5897,6.5897,6.5897,6.5897,6.5897,6.5897,6.5897,6.5897,6.5897,6.5897,6.5897,6.6474,6.7282,6.8167,6.9052,6.9898,7.0706,7.0898,7.0898,7.0898,7.0898,7.0898,7.0898,7.0898,7.0898,7.0898,7.0898,7.0898,7.0898,7.0898,7.0898,7.0898,7.0898,7.0898,7.0898,7.0898,7.1052,7.1475,7.1937,7.2514,7.3322,7.4207,7.4899,7.5284,7.5745,7.6015,7.6015,7.6015,7.6015,7.6015,7.6015,7.6015,7.6015,7.6015,7.6015,7.6015,7.6015,7.6015,7.6015,7.6015,7.6015,7.6015,7.6015,7.6015,7.6015,7.6015,7.6015,7.6015,7.6015,7.6015,7.6015,6.5897,6.5897,6.5897,6.5897,6.5897,6.5897,6.5897,6.5897,6.5897,6.5897,6.5897,6.5897,6.5897,6.5897,6.5897,6.5897,6.5897,6.5897,6.5897,6.5897,6.5897,6.5897,6.5897,6.5897,6.5897,6.5897,6.5897,6.5897,6.5897,6.5897,6.5897,6.5897,6.5897,6.5897,6.5897,6.5897,6.5897,6.5897,6.5897,6.5897,6.5897,6.5897,6.5897,6.5897,6.5897,6.5897,6.5897,6.5897,6.5897,6.5897,6.5897,6.5897,6.5897,6.5897,6.5936,6.6051,6.6667,6.7513,6.8398,6.9244,7.0052,7.0744,7.0898,7.0898,7.0898,7.0898,7.0898,7.0898,7.0898,7.0898,7.0898,7.0898,7.0898,7.0898,7.0898,7.0898,7.0898,7.0898,7.0898,7.0898,7.0898,7.1245,7.2129,7.2322,7.3053,7.4591,7.4861,7.5245,7.5976,7.6015,7.6015,7.6015,7.6015,7.6015,7.6015,7.6015,7.6015,7.6015,7.6015,7.6015,7.6015,7.6015,7.6015,7.6015,7.6015,7.6015,7.6015,7.6015,7.6015,7.6015,7.6015,7.6015,7.6015,7.6015,7.6015,7.6015,6.5897,6.5897,6.5897,6.5897,6.5897,6.5897,6.5897,6.5897,6.5897,6.5897,6.5897,6.5897,6.5897,6.5897,6.5897,6.5897,6.5897,6.5897,6.5897,6.5897,6.5897,6.5897,6.5897,6.5897,6.5897,6.5897,6.5897,6.5897,6.5897,6.5897,6.5897,6.5897,6.5897,6.5897,6.5897,6.5897,6.5897,6.5897,6.5897,6.5897,6.5897,6.5897,6.5897,6.5897,6.5897,6.5897,6.5897,6.5897,6.5897,6.5897,6.5897,6.5897,6.5897,6.5897,6.6051,6.6744,6.7552,6.8398,6.9283,7.0129,7.0744,7.086,7.0898,7.0898,7.0898,7.0898,7.0898,7.0898,7.0898,7.0898,7.0898,7.0898,7.0898,7.0898,7.0898,7.0898,7.0898,7.0898,7.0898,7.0898,7.0898,7.1245,7.2129,7.2899,7.3707,7.463,7.5399,7.5861,7.5976,7.6015,7.6015,7.6015,7.6015,7.6015,7.6015,7.6015,7.6015,7.6015,7.6015,7.6015,7.6015,7.6015,7.6015,7.6015,7.6015,7.6015,7.6015,7.6015,7.6015,7.6015,7.6015,7.6015,7.6015,7.6015,7.6015,7.6015,6.5897,6.5897,6.5897,6.5897,6.5897,6.5897,6.5897,6.5897,6.5897,6.5897,6.5897,6.5897,6.5897,6.5897,6.5897,6.5897,6.5897,6.5897,6.5897,6.5897,6.5897,6.5897,6.5897,6.5897,6.5897,6.5897,6.5897,6.5897,6.5897,6.5897,6.5897,6.5897,6.5897,6.5897,6.5897,6.5897,6.5897,6.5897,6.5897,6.5897,6.5897,6.5897,6.5897,6.5897,6.5897,6.5897,6.5897,6.5897,6.5897,6.5897,6.5897,6.5974,6.6436,6.6551,6.6744,6.759,6.8436,6.9206,6.959,7.0283,7.0898,7.0898,7.0898,7.0898,7.0898,7.0898,7.0898,7.0898,7.0898,7.0898,7.0898,7.0898,7.0898,7.0898,7.0898,7.0898,7.0898,7.0898,7.0898,7.0898,7.1321,7.1975,7.2822,7.3668,7.4514,7.5361,7.5784,7.6015,7.6015,7.6015,7.6015,7.6015,7.6015,7.6015,7.6015,7.6015,7.6015,7.6015,7.6015,7.6015,7.6015,7.6015,7.6015,7.6015,7.6015,7.6015,7.6015,7.6015,7.6015,7.6015,7.6015,7.6015,7.6015,7.6015,7.6015,7.6015]}]]